Date StartTime U_cm/s V_cm/s W_cm/s Ustd_cm/s Vstd_cm/s Wstd_cm/s Uvar_(cm/s)^2 Vvar_(cm/s)^2 Wvar_(cm/s)^2 KE_(m/s)^2 TurbulentKE_(m/s)^2 HorizWindSpeed_cm/s FrictionSpeec_cm/s DragCoef SpeedOfSound_m/s SonicTemperature_C Pressure_mb 
09/13/2014  00:00:00      -76.776       29.577      -14.270       21.511       29.703       15.554      462.722      882.251      241.926        0.428        0.079       82.277       11.899        0.021      344.255       20.943      860.972
09/13/2014  00:01:00      -67.732       71.066      -12.895       38.666       34.380       23.449     1495.033     1181.978      549.848        0.652        0.161       98.173       17.038        0.030      344.484       21.336      860.977
09/13/2014  00:02:00      -58.772       63.219      -15.344       27.348       30.941       14.640      747.901      957.333      214.344        0.480        0.096       86.318       13.984        0.026      344.451       21.280      860.971
09/13/2014  00:03:00      -44.589       11.939       -6.323       18.068       28.128       14.207      326.441      791.195      201.836        0.174        0.066       46.160       10.167        0.049      344.262       20.956      860.967
09/13/2014  00:04:00      -42.083      -21.787       -6.380       14.821       11.648       12.818      219.662      135.671      164.311        0.140        0.026       47.388        6.254        0.017      344.022       20.546      860.975
09/13/2014  00:05:00      -66.267      -38.923       -9.355       16.902       14.846       13.562      285.662      220.389      183.928        0.334        0.034       76.853        8.704        0.013      343.838       20.232      860.978
09/13/2014  00:06:00      -81.925      -37.444       -9.665       19.902       19.085       14.164      396.106      364.250      200.619        0.458        0.048       90.076        8.271        0.008      343.601       19.827      860.981
09/13/2014  00:07:00      -99.114      -31.752      -14.965       18.911       17.463       12.674      357.612      304.964      160.641        0.594        0.041      104.076        6.811        0.004      343.651       19.912      860.993
09/13/2014  00:08:00      -94.751      -11.771      -10.078       26.869       16.752       15.439      721.956      280.633      238.348        0.523        0.062       95.479       12.920        0.018      343.632       19.879      860.985
09/13/2014  00:09:00      -99.991      -14.710      -12.109       32.091       15.841       13.744     1029.806      250.945      188.902        0.592        0.073      101.067       13.753        0.019      343.690       19.978      860.986
09/13/2014  00:10:00      -84.089      -10.869       -1.560       37.086       21.514       18.780     1375.346      462.842      352.675        0.469        0.110       84.788       21.805        0.066      343.716       20.023      860.984
09/13/2014  00:11:00      -66.049      -13.970        0.241       27.312       24.501       15.387      745.961      600.283      236.755        0.307        0.079       67.510       16.443        0.059      343.731       20.047      860.984
09/13/2014  00:12:00      -93.340      -45.404        0.134       26.581       16.583       11.687      706.546      275.003      136.588        0.595        0.056      103.798       12.910        0.015      343.752       20.086      860.979
09/13/2014  00:13:00      -60.085      -28.873        8.449       33.662       30.006       20.885     1133.106      900.334      436.174        0.349        0.123       66.662       15.177        0.052      343.568       19.771      860.989
09/13/2014  00:14:00      -81.809      -92.357       -7.103       32.457       21.801       19.674     1053.445      475.274      387.066        0.859        0.096      123.380       18.464        0.022      343.820       20.200      860.985
09/13/2014  00:15:00      -66.726      -49.699       -5.889       35.462       13.641       18.210     1257.567      186.081      331.614        0.437        0.089       83.200       18.785        0.051      343.803       20.172      860.982
09/13/2014  00:16:00      -51.835      -40.329       -0.626       25.754       27.311       14.030      663.263      745.909      196.838        0.296        0.080       65.676       12.673        0.037      343.684       19.968      860.994
09/13/2014  00:17:00      -51.254      -27.578       -7.907       21.958       20.188       13.461      482.160      407.552      181.199        0.226        0.054       58.202       10.162        0.030      343.731       20.050      861.007
09/13/2014  00:18:00      -29.312      -30.034        2.083       24.671       16.593       13.549      608.658      275.312      183.571        0.142        0.053       41.967       14.449        0.119      343.749       20.079      861.016
09/13/2014  00:19:00      -22.292      -36.074        3.164       21.296       16.582       11.153      453.518      274.964      124.392        0.133        0.043       42.406       10.607        0.063      343.952       20.427      861.028
09/13/2014  00:20:00       18.210      -42.613       -6.875       18.544       13.328       13.035      343.880      177.647      169.923        0.144        0.035       46.341       14.545        0.099      343.874       20.293      861.039
09/13/2014  00:21:00        3.842      -22.821       -4.779        7.426        9.311        8.812       55.139       86.689       77.658        0.039        0.011       23.142        6.043        0.068      343.947       20.417      861.039
09/13/2014  00:22:00      -25.458       -5.378       -8.435       15.422        9.729        9.796      237.839       94.654       95.964        0.059        0.021       26.020        8.150        0.098      343.903       20.344      861.028
09/13/2014  00:23:00      -46.829       -3.571       -9.520       10.082        6.649        9.424      101.637       44.211       88.814        0.127        0.012       46.965        2.403        0.003      343.804       20.175      861.028
09/13/2014  00:24:00      -38.884      -18.827       -8.229        8.523        6.420        6.990       72.644       41.222       48.855        0.105        0.008       43.202        2.198        0.003      343.769       20.113      861.026
09/13/2014  00:25:00      -26.682      -16.924       -3.586       17.642        7.160        7.999      311.247       51.272       63.978        0.072        0.021       31.597        6.148        0.038      343.680       19.963      861.027
09/13/2014  00:26:00      -13.264      -28.177       -3.632       14.908        8.785        8.824      222.252       77.176       77.863        0.068        0.019       31.143        5.166        0.028      343.760       20.100      861.034
09/13/2014  00:27:00      -42.924      -28.958       -6.459       12.914        9.241        8.985      166.765       85.399       80.731        0.153        0.017       51.779        5.825        0.013      343.713       20.018      861.045
09/13/2014  00:28:00      -53.380      -29.977       -2.626       12.342        8.849        7.317      152.327       78.311       53.543        0.202        0.014       61.221        1.583        0.001      343.699       19.994      861.049
09/13/2014  00:29:00      -45.003      -27.813       -2.426       11.629        7.537        5.883      135.240       56.810       34.614        0.152        0.011       52.904        2.868        0.003      343.660       19.927      861.055
09/13/2014  00:30:00      -39.472      -28.158      -11.977        7.430        9.337        9.175       55.210       87.181       84.177        0.136        0.011       48.487        4.046        0.007      343.803       20.173      861.067
09/13/2014  00:31:00      -60.482      -30.528       -8.180       15.223       12.921        7.658      231.747      166.961       58.638        0.256        0.023       67.750        4.547        0.005      343.730       20.047      861.076
09/13/2014  00:32:00      -75.354      -37.716      -13.684       16.309       16.020        8.579      265.979      256.655       73.595        0.394        0.030       84.266        7.116        0.007      343.637       19.885      861.082
09/13/2014  00:33:00      -60.341      -42.615       -9.389       16.078       12.959       14.528      258.486      167.939      211.059        0.309        0.032       73.872       11.317        0.023      343.528       19.704      861.084
09/13/2014  00:34:00      -56.308      -40.525       -6.454       24.619       21.437       18.315      606.095      459.559      335.449        0.313        0.070       69.375       12.480        0.032      343.519       19.688      861.108
09/13/2014  00:35:00      -41.225      -43.597        3.245       37.775       23.193       20.061     1426.983      537.916      402.458        0.299        0.118       60.002       16.419        0.075      343.611       19.844      861.115
09/13/2014  00:36:00      -41.319      -35.578       -0.823       24.054       23.248       13.791      578.571      540.461      190.205        0.214        0.065       54.526       13.548        0.062      343.676       19.956      861.114
09/13/2014  00:37:00      -47.641      -45.010       -2.280       26.421       21.497       17.941      698.064      462.137      321.875        0.289        0.074       65.541       14.133        0.046      343.764       20.104      861.115
09/13/2014  00:38:00      -48.951      -39.207       -5.764       20.980       20.917       19.047      440.173      437.509      362.792        0.260        0.062       62.717       12.457        0.039      343.843       20.240      861.129
09/13/2014  00:39:00      -62.623      -44.260       -1.461       20.842       26.117       14.601      434.373      682.099      213.188        0.361        0.066       76.685       13.286        0.030      343.732       20.052      861.127
09/13/2014  00:40:00      -68.668      -25.855        0.973       22.894       21.538       13.870      524.151      463.907      192.381        0.328        0.059       73.374        8.586        0.014      343.564       19.766      861.131
09/13/2014  00:41:00      -36.852      -23.825       -6.161       20.182       12.100       10.849      407.331      146.411      117.697        0.132        0.034       43.883        7.745        0.031      343.545       19.730      861.145
09/13/2014  00:42:00      -18.969        1.930       -1.693        6.524        6.371        6.368       42.561       40.592       40.552        0.025        0.006       19.067        2.792        0.021      343.542       19.727      861.150
09/13/2014  00:43:00      -34.900       -7.846       -6.657        9.143        7.702        4.403       83.594       59.318       19.390        0.074        0.008       35.771        0.616        0.000      343.842       20.237      861.151
09/13/2014  00:44:00      -15.378      -16.957       -3.057       16.744        8.134        7.158      280.359       66.154       51.243        0.047        0.020       22.892        3.370        0.022      344.048       20.591      861.168
09/13/2014  00:45:00      -28.500      -22.465       -2.546       16.219        6.509        4.032      263.048       42.362       16.259        0.082        0.016       36.290        2.738        0.006      343.736       20.057      861.182
09/13/2014  00:46:00      -68.853      -23.387      -11.394       12.878       10.088        7.666      165.854      101.763       58.767        0.287        0.016       72.716        6.023        0.007      343.501       19.657      861.188
09/13/2014  00:47:00     -112.758      -34.697      -14.309       11.705       10.035        8.448      137.016      100.699       71.370        0.722        0.015      117.976        3.254        0.001      343.369       19.432      861.195
09/13/2014  00:48:00     -129.452      -21.964      -19.749       16.155       15.899        9.720      260.971      252.792       94.484        0.912        0.030      131.302        6.228        0.002      343.322       19.351      861.208
09/13/2014  00:49:00     -144.576      -20.496      -24.747       15.472       14.685       11.636      239.374      215.639      135.392        1.126        0.030      146.022        6.598        0.002      343.248       19.227      861.210
09/13/2014  00:50:00     -132.295      -21.595      -19.666       17.064       15.762       11.319      291.188      248.437      128.124        0.951        0.033      134.046        6.616        0.002      343.258       19.245      861.205
09/13/2014  00:51:00     -112.398      -24.023      -17.279       14.244       17.901       10.892      202.884      320.444      118.630        0.708        0.032      114.936        5.888        0.003      343.282       19.284      861.204
09/13/2014  00:52:00      -96.078      -18.272      -15.116       12.973        9.088       10.391      168.295       82.591      107.969        0.508        0.018       97.800        7.599        0.006      343.307       19.328      861.214
09/13/2014  00:53:00      -83.622      -28.363       -5.715       10.986       13.612       11.197      120.699      185.282      125.369        0.413        0.022       88.302        6.589        0.006      343.330       19.366      861.229
09/13/2014  00:54:00      -90.272      -35.314      -13.294       11.101        7.186        6.548      123.232       51.635       42.879        0.490        0.011       96.933        4.163        0.002      343.339       19.381      861.229
09/13/2014  00:55:00      -90.713      -22.711      -14.933        8.086       11.322        7.000       65.383      128.193       49.004        0.461        0.012       93.513        1.904        0.000      343.354       19.407      861.229
09/13/2014  00:56:00      -69.880      -22.176      -15.537       13.299       10.059        9.975      176.867      101.178       99.506        0.300        0.019       73.314        3.675        0.003      343.443       19.557      861.238
09/13/2014  00:57:00      -46.247      -18.007      -14.268        8.645        8.350        5.697       74.728       69.720       32.452        0.142        0.009       49.629        3.752        0.006      343.683       19.967      861.237
09/13/2014  00:58:00      -63.242      -12.571      -12.505       10.430        9.257        7.195      108.795       85.691       51.765        0.228        0.012       64.480        3.995        0.004      343.463       19.593      861.237
09/13/2014  00:59:00      -90.857      -15.946      -14.000       12.729       19.511       11.719      162.024      380.682      137.328        0.469        0.034       92.246        6.751        0.005      343.298       19.312      861.237
09/13/2014  01:00:00      -80.202      -17.909      -10.555       16.920       19.192       12.118      286.275      368.329      146.843        0.383        0.040       82.177        8.822        0.012      343.071       18.924      861.245
09/13/2014  01:01:00      -78.097      -27.954       -7.271       21.327       21.036       20.044      454.831      442.520      401.769        0.412        0.065       82.949       15.357        0.034      342.904       18.640      861.247
09/13/2014  01:02:00      -89.182       -9.088       -6.374       34.024       24.120       15.424     1157.635      581.778      237.892        0.503        0.099       89.644       15.160        0.029      342.932       18.688      861.259
09/13/2014  01:03:00      -75.901      -49.238       -7.300       22.881       21.511       18.134      523.553      462.720      328.829        0.478        0.066       90.473        5.267        0.003      342.872       18.586      861.275
09/13/2014  01:04:00      -38.970      -29.885        9.982       39.977       22.967       23.166     1598.192      527.498      536.686        0.259        0.133       49.110       25.481        0.269      342.720       18.328      861.292
09/13/2014  01:05:00      -39.612       -3.980        7.924       40.061       31.347       21.005     1604.861      982.641      441.206        0.234        0.151       39.812       25.100        0.397      342.804       18.470      861.293
09/13/2014  01:06:00      -54.622       -6.711       -4.226       23.800       28.906       17.268      566.418      835.575      298.176        0.237        0.085       55.033       15.008        0.074      342.928       18.680      861.297
09/13/2014  01:07:00      -45.658      -40.450       -9.922       38.157       26.544       22.807     1455.920      704.578      520.139        0.325        0.134       60.999       22.365        0.134      342.945       18.709      861.308
09/13/2014  01:08:00     -108.083      -50.846      -17.664       19.616       14.776       11.687      384.778      218.328      136.577        0.766        0.037      119.445       10.532        0.008      342.890       18.617      861.314
09/13/2014  01:09:00      -83.166      -30.553       -7.978       17.265       22.589       12.935      298.087      510.268      167.313        0.444        0.049       88.600       10.497        0.014      342.842       18.534      861.318
09/13/2014  01:10:00      -89.271       -2.427       -9.471       24.701       14.831       14.799      610.144      219.966      219.019        0.456        0.052       89.304       10.103        0.013      342.905       18.641      861.318
09/13/2014  01:11:00      -41.568      -27.579       -4.938       19.752       17.663       11.557      390.143      311.986      133.571        0.167        0.042       49.885       10.607        0.045      342.946       18.712      861.324
09/13/2014  01:12:00      -30.607      -26.891       -9.580       16.060       17.288       13.815      257.914      298.885      190.854        0.125        0.037       40.742       10.784        0.070      343.079       18.939      861.307
09/13/2014  01:13:00      -53.853       -7.002      -12.491       15.478       17.908       12.670      239.556      320.707      160.517        0.191        0.036       54.307        6.277        0.013      343.262       19.250      861.299
09/13/2014  01:14:00      -44.725      -22.153      -14.271       18.412       19.477       10.367      338.997      379.365      107.466        0.176        0.041       49.911        7.606        0.023      343.360       19.417      861.302
09/13/2014  01:15:00      -19.222      -17.182       -7.394       13.434       13.683       10.739      180.483      187.226      115.316        0.060        0.024       25.782        4.687        0.033      343.139       19.039      861.291
09/13/2014  01:16:00       -1.440      -12.621        0.581        9.741       10.303        6.621       94.882      106.161       43.837        0.020        0.012       12.703        6.618        0.271      343.317       19.342      861.300
09/13/2014  01:17:00        5.770      -14.563       -0.096        6.395       11.334        4.394       40.898      128.459       19.304        0.022        0.009       15.665        4.586        0.086      343.368       19.432      861.300
09/13/2014  01:18:00      -10.404      -46.872       -1.309       33.952       27.203       21.063     1152.761      740.030      443.639        0.232        0.117       48.012       17.232        0.129      343.099       18.971      861.300
09/13/2014  01:19:00      -78.046      -71.243       -1.166       58.401       38.288       25.205     3410.651     1465.964      635.286        0.834        0.276      105.673       28.129        0.071      342.912       18.653      861.303
09/13/2014  01:20:00     -139.280      -68.579       -9.800       27.497       28.814       15.384      756.112      830.273      236.658        1.301        0.091      155.248       12.211        0.006      343.159       19.075      861.312
09/13/2014  01:21:00     -123.852      -20.154       -5.037       39.233       25.380       17.595     1539.192      644.166      309.584        0.913        0.125      125.481       17.383        0.019      342.905       18.643      861.308
09/13/2014  01:22:00     -130.112      -59.073       -9.596       22.050       22.253       13.958      486.191      495.209      194.822        1.084        0.059      142.894       11.127        0.006      342.817       18.491      861.301
09/13/2014  01:23:00      -87.034      -57.669        1.290       40.666       25.212       18.931     1653.721      635.667      358.379        0.677        0.132      104.407       15.825        0.023      342.769       18.410      861.304
09/13/2014  01:24:00     -134.792      -59.396       -2.468       32.711       30.864       19.011     1070.023      952.610      361.424        1.204        0.119      147.299       15.546        0.011      342.823       18.503      861.288
09/13/2014  01:25:00     -132.240      -11.343       -6.690       51.413       25.401       23.109     2643.258      645.228      534.008        1.074        0.191      132.726       28.124        0.045      342.679       18.257      861.282
09/13/2014  01:26:00      -98.788      -36.881        1.371       38.653       39.684       23.300     1494.031     1574.834      542.900        0.737        0.181      105.448       19.634        0.035      342.633       18.179      861.292
09/13/2014  01:27:00      -78.558      -10.557       -1.842       42.967       28.842       17.267     1846.144      831.856      298.141        0.463        0.149       79.265       18.250        0.053      342.585       18.098      861.302
09/13/2014  01:28:00      -56.037       -1.212       -1.007       41.089       19.654       12.880     1688.273      386.290      165.884        0.269        0.112       56.050        8.046        0.021      342.746       18.372      861.297
09/13/2014  01:29:00      -58.742        9.379       -4.136       24.744       16.930       13.301      612.264      286.630      176.912        0.232        0.054       59.486        8.525        0.021      342.823       18.502      861.295
09/13/2014  01:30:00      -83.412       19.002       -9.002       32.840       26.088       17.983     1078.434      680.559      323.375        0.474        0.104       85.549       13.186        0.024      342.839       18.529      861.284
09/13/2014  01:31:00     -111.246       42.685      -13.006       52.826       34.579       27.728     2790.613     1195.713      768.827        0.956        0.238      119.154       24.015        0.041      342.766       18.404      861.269
09/13/2014  01:32:00      -95.067       12.744       -7.955       60.346       37.014       27.900     3641.609     1370.044      778.418        0.753        0.290       95.918       28.491        0.088      342.763       18.401      861.265
09/13/2014  01:33:00     -174.475       46.649      -18.285       53.644       40.802       25.233     2877.714     1664.772      636.690        1.906        0.259      180.604       17.856        0.010      342.773       18.415      861.268
09/13/2014  01:34:00     -151.374       26.350      -17.410       39.186       37.901       26.735     1535.530     1436.506      714.782        1.380        0.184      153.650       19.643        0.016      342.750       18.378      861.256
09/13/2014  01:35:00     -150.424       28.734      -21.820       47.940       37.635       28.621     2298.246     1416.384      819.150        1.423        0.227      153.144       17.457        0.013      342.635       18.182      861.256
09/13/2014  01:36:00     -154.369       26.410      -17.720       42.388       41.720       29.775     1796.762     1740.600      886.529        1.463        0.221      156.611       23.149        0.022      342.540       18.020      861.265
09/13/2014  01:37:00     -178.010       39.625      -14.373       46.198       37.640       25.417     2134.239     1416.773      646.028        1.883        0.210      182.367       18.236        0.010      342.559       18.052      861.262
09/13/2014  01:38:00     -183.506       63.415      -15.659       41.812       31.975       25.044     1748.206     1022.376      627.186        2.067        0.170      194.154       11.124        0.003      342.536       18.013      861.261
09/13/2014  01:39:00     -195.702       71.503      -22.689       58.353       34.395       35.637     3405.062     1183.050     1269.987        2.489        0.293      208.355       33.781        0.026      342.523       17.990      861.264
09/13/2014  01:40:00     -200.863       67.632      -18.136       59.052       42.527       37.673     3487.145     1808.568     1419.272        2.598        0.336      211.943       30.266        0.020      342.502       17.953      861.257
09/13/2014  01:41:00     -228.428       55.079      -33.816       66.212       56.324       31.419     4383.982     3172.391      987.150        3.245        0.427      234.975       25.856        0.012      342.469       17.897      861.249
09/13/2014  01:42:00     -166.280      -18.964      -15.981       53.534       54.464       25.784     2865.843     2966.378      664.797        1.738        0.325      167.357       17.059        0.010      342.372       17.734      861.260
09/13/2014  01:43:00     -164.449      -48.061      -13.213       48.137       56.719       32.351     2317.187     3216.989     1046.576        1.805        0.329      171.329       15.831        0.009      342.298       17.609      861.272
09/13/2014  01:44:00     -169.499      -10.059      -25.968       46.536       38.816       28.714     2165.632     1506.697      824.489        1.700        0.225      169.797       25.088        0.022      342.425       17.824      861.285
09/13/2014  01:45:00     -120.210        4.619      -13.999       39.102       39.205       25.592     1528.972     1537.002      654.960        0.919        0.186      120.299       25.846        0.046      342.421       17.818      861.284
09/13/2014  01:46:00     -148.350       28.002      -17.444       43.105       34.552       28.828     1858.016     1193.856      831.059        1.349        0.194      150.970       20.030        0.018      342.457       17.879      861.267
09/13/2014  01:47:00     -202.226      -22.565      -29.912       48.303       47.047       29.289     2333.157     2213.390      857.824        2.385        0.270      203.481       25.505        0.016      342.395       17.773      861.277
09/13/2014  01:48:00     -223.556      -26.676      -31.461       30.568       28.270       17.647      934.377      799.216      311.421        2.686        0.102      225.142       14.097        0.004      342.314       17.633      861.286
09/13/2014  01:49:00     -255.968       34.878      -28.142       31.524       30.059       19.083      993.767      903.533      364.155        3.489        0.113      258.334        7.756        0.001      342.556       18.043      861.289
09/13/2014  01:50:00     -250.608       78.904      -22.891       44.334       37.996       28.825     1965.538     1443.723      830.876        3.690        0.212      262.736       16.671        0.004      342.639       18.183      861.291
09/13/2014  01:51:00     -186.541       38.173      -18.792       51.577       67.981       26.958     2660.164     4621.466      726.756        2.231        0.400      190.407       15.333        0.006      342.559       18.050      861.282
09/13/2014  01:52:00      -85.882      -16.564       -1.795       38.047       45.016       30.171     1447.552     2026.398      910.317        0.602        0.219       87.464       29.147        0.111      342.508       17.967      861.278
09/13/2014  01:53:00      -68.941      -33.524       -5.226       36.931       22.270       25.958     1363.868      495.933      673.813        0.422        0.127       76.659       22.702        0.088      342.536       18.014      861.257
09/13/2014  01:54:00     -158.169      -45.033      -24.168       42.130       36.599       22.780     1774.937     1339.514      518.925        1.563        0.182      164.455        7.997        0.002      342.553       18.042      861.261
09/13/2014  01:55:00     -160.179      -15.797      -10.682       45.336       34.075       25.649     2055.330     1161.112      657.862        1.495        0.194      160.956       24.027        0.022      342.519       17.984      861.261
09/13/2014  01:56:00     -125.419       -9.539      -13.856       35.030       36.804       21.846     1227.118     1354.521      477.260        0.954        0.153      125.781       17.904        0.020      342.528       18.001      861.254
09/13/2014  01:57:00     -142.225       -9.280      -11.306       33.168       30.818       24.487     1100.095      949.761      599.637        1.155        0.132      142.527       17.004        0.014      342.535       18.012      861.254
09/13/2014  01:58:00     -122.372      -50.714       -8.341       39.750       25.802       22.632     1580.074      665.735      512.189        1.019        0.138      132.464       18.953        0.020      342.627       18.167      861.248
09/13/2014  01:59:00      -31.518      -37.599       -1.188       29.148       17.705       19.203      849.605      313.462      368.742        0.197        0.077       49.062       18.260        0.139      342.709       18.307      861.235
09/13/2014  02:00:00      -61.958      -32.779       -2.539       27.500       21.076       19.300      756.274      444.191      372.498        0.325        0.079       70.094       14.213        0.041      342.747       18.372      861.234
09/13/2014  02:01:00      -78.986      -45.615       -7.089       39.555       34.340       18.747     1564.586     1179.234      351.458        0.573        0.155       91.212       19.735        0.047      342.783       18.432      861.224
09/13/2014  02:02:00        2.079      -17.467       -4.257       19.880       15.893       13.756      395.229      252.583      189.241        0.058        0.042       17.590        9.274        0.278      342.775       18.419      861.229
09/13/2014  02:03:00      -55.123      -27.577        2.124       31.831       14.277       11.823     1013.225      203.842      139.777        0.258        0.068       61.636       13.680        0.049      342.783       18.432      861.221
09/13/2014  02:04:00      -65.746      -34.532       -3.551       16.141       14.255        8.638      260.532      203.201       74.621        0.303        0.027       74.263        5.509        0.006      342.688       18.273      861.216
09/13/2014  02:05:00      -35.526      -21.579       -0.829       17.224       14.695        8.794      296.665      215.938       77.331        0.116        0.029       41.566        4.847        0.014      342.832       18.517      861.228
09/13/2014  02:06:00      -19.066      -14.299       -2.703       18.118       16.243        8.841      328.257      263.849       78.170        0.062        0.034       23.832        7.382        0.096      342.913       18.653      861.221
09/13/2014  02:07:00      -44.102      -48.910        5.772       35.716       30.707       25.435     1275.659      942.905      646.927        0.362        0.143       65.857       20.073        0.093      342.630       18.174      861.232
09/13/2014  02:08:00      -94.826      -68.962       -1.537       25.510       22.516       16.828      650.749      506.964      283.176        0.760        0.072      117.251       11.896        0.010      342.655       18.216      861.254
09/13/2014  02:09:00      -64.011      -65.652        2.128       30.056       25.265       16.545      903.345      638.331      273.737        0.511        0.091       91.693       17.574        0.037      342.670       18.242      861.259
09/13/2014  02:10:00      -69.808      -62.651       -4.622       35.894       26.839       17.113     1288.377      720.337      292.867        0.556        0.115       93.799        9.680        0.011      342.652       18.211      861.263
09/13/2014  02:11:00     -132.386      -79.321       -6.168       53.867       47.426       21.077     2901.609     2249.232      444.249        1.472        0.280      154.330       18.531        0.014      342.700       18.291      861.260
09/13/2014  02:12:00     -143.332      -83.382        0.744       38.820       40.086       18.894     1506.955     1606.888      356.992        1.548        0.174      165.821       18.136        0.012      342.741       18.363      861.262
09/13/2014  02:13:00     -111.897      -78.399        5.577       39.539       35.354       25.848     1563.345     1249.901      668.115        1.109        0.174      136.629       23.277        0.029      342.720       18.327      861.251
09/13/2014  02:14:00     -110.269      -58.921        3.333       33.615       23.063       19.416     1129.959      531.893      376.984        0.884        0.102      125.024       18.682        0.022      342.793       18.452      861.233
09/13/2014  02:15:00     -112.067      -60.008       -2.286       50.517       26.844       19.068     2551.959      720.579      363.581        0.990        0.182      127.122       18.730        0.022      342.670       18.240      861.226
09/13/2014  02:16:00      -94.461      -63.587        2.471       39.333       37.896       25.534     1547.064     1436.142      651.973        0.830        0.182      113.869       23.284        0.042      342.573       18.076      861.219
09/13/2014  02:17:00      -72.961      -38.888       10.057       40.989       36.576       24.437     1680.114     1337.787      597.174        0.528        0.181       82.678       25.992        0.099      342.614       18.148      861.222
09/13/2014  02:18:00      -77.144      -36.461        2.885       32.332       29.081       19.127     1045.388      845.725      365.846        0.477        0.113       85.326       18.420        0.047      342.545       18.029      861.225
09/13/2014  02:19:00      -50.886      -24.707       12.583       37.166       25.684       20.243     1381.300      659.683      409.775        0.290        0.123       56.567       17.999        0.101      342.431       17.834      861.228
09/13/2014  02:20:00      -65.476      -48.405        7.656       36.648       35.612       22.623     1343.061     1268.242      511.799        0.491        0.156       81.426       21.388        0.069      342.425       17.825      861.224
09/13/2014  02:21:00      -72.086      -60.336        5.264       43.166       41.661       26.672     1863.323     1735.642      711.378        0.659        0.216       94.004       29.234        0.097      342.430       17.832      861.229
09/13/2014  02:22:00      -57.362      -43.076        6.020       53.332       33.674       25.897     2844.285     1133.954      670.640        0.491        0.232       71.735       27.936        0.152      342.405       17.791      861.242
09/13/2014  02:23:00     -139.398      -71.838       -1.308       41.417       37.246       22.928     1715.361     1387.265      525.674        1.411        0.181      156.820       21.143        0.018      342.506       17.963      861.267
09/13/2014  02:24:00     -113.451      -74.410       -0.270       45.901       34.534       26.949     2106.920     1192.584      726.256        1.122        0.201      135.676       20.080        0.022      342.578       18.086      861.276
09/13/2014  02:25:00      -82.515      -43.129       -1.107       41.991       31.497       19.493     1763.273      992.051      379.959        0.590        0.157       93.106       21.643        0.054      342.498       17.951      861.279
09/13/2014  02:26:00     -115.698      -32.681      -12.892       30.203       39.054       15.601      912.194     1525.231      243.387        0.865        0.134      120.225       11.601        0.009      342.475       17.912      861.279
09/13/2014  02:27:00     -122.510      -19.070       -4.892       37.857       27.184       22.742     1433.137      738.944      517.186        0.904        0.134      123.985       19.718        0.025      342.292       17.600      861.278
09/13/2014  02:28:00     -127.382      -17.841       -6.237       46.211       36.972       24.955     2135.426     1366.906      622.745        1.035        0.206      128.626       24.258        0.036      342.134       17.331      861.276
09/13/2014  02:29:00     -123.153      -23.285       -5.326       49.246       30.772       23.888     2425.185      946.887      570.620        0.984        0.197      125.335       24.098        0.037      342.065       17.215      861.283
09/13/2014  02:30:00     -113.273      -37.280        0.348       38.697       37.158       23.398     1497.484     1380.725      547.452        0.882        0.171      119.250       17.415        0.021      342.119       17.305      861.270
09/13/2014  02:31:00     -123.873      -39.585        1.306       37.460       48.155       24.237     1403.286     2318.937      587.426        1.061        0.215      130.044       18.561        0.020      342.072       17.225      861.261
09/13/2014  02:32:00      -97.610      -42.105        1.225       44.243       30.653       20.598     1957.441      939.614      424.266        0.731        0.166      106.304       24.827        0.055      342.043       17.176      861.243
09/13/2014  02:33:00     -113.140      -50.930        0.648       32.331       31.654       19.440     1045.293     1001.986      377.922        0.891        0.121      124.074       18.842        0.023      342.023       17.141      861.237
09/13/2014  02:34:00     -118.371      -16.279        0.309       44.600       28.829       25.218     1989.171      831.102      635.929        0.887        0.173      119.485       27.967        0.055      342.029       17.152      861.242
09/13/2014  02:35:00     -123.149       -7.160       -5.948       60.503       32.080       21.202     3660.604     1029.099      449.543        1.019        0.257      123.357       26.430        0.046      342.026       17.146      861.245
09/13/2014  02:36:00     -102.054      -44.435       -2.871       31.071       28.098       17.272      965.388      789.503      298.334        0.723        0.103      111.308       12.722        0.013      342.079       17.239      861.242
09/13/2014  02:37:00      -91.331      -21.655       -7.001       26.224       16.192       15.901      687.712      262.173      252.836        0.503        0.060       93.863        2.047        0.000      342.183       17.413      861.239
09/13/2014  02:38:00     -124.568      -33.304      -10.663       20.324       23.423       13.638      413.055      548.632      186.008        0.894        0.057      128.944        7.841        0.004      342.134       17.331      861.249
09/13/2014  02:39:00      -81.618      -19.285       -1.160       42.247       32.289       20.804     1784.839     1042.551      432.819        0.515        0.163       83.865       20.568        0.060      342.049       17.186      861.253
09/13/2014  02:40:00      -77.267      -38.946        0.086       26.376       19.421       17.846      695.718      377.162      318.470        0.444        0.070       86.527       13.955        0.026      342.125       17.317      861.253
09/13/2014  02:41:00      -59.169      -22.971        2.354       34.784       28.528       16.688     1209.926      813.824      278.481        0.317        0.115       63.471       19.290        0.092      342.270       17.562      861.251
09/13/2014  02:42:00      -60.115      -33.849        7.064       37.544       27.587       18.552     1409.529      761.041      344.162        0.366        0.126       68.989       17.319        0.063      342.216       17.471      861.251
09/13/2014  02:43:00       -9.708      -39.307        0.052       16.975       18.514       15.114      288.164      342.751      228.432        0.125        0.043       40.488        7.055        0.030      342.293       17.601      861.251
09/13/2014  02:44:00      -67.256      -26.910       -3.994       25.135       20.937       11.071      631.754      438.366      122.574        0.323        0.060       72.440        8.070        0.012      342.334       17.670      861.244
09/13/2014  02:45:00      -59.458      -28.550        0.736       31.147       16.227       12.132      970.157      263.320      147.181        0.287        0.069       65.957       13.286        0.041      342.211       17.462      861.238
09/13/2014  02:46:00      -94.382      -40.316       -2.586       35.666       14.109       12.116     1272.079      199.057      146.808        0.608        0.081      102.632       13.910        0.018      342.145       17.349      861.235
09/13/2014  02:47:00      -65.959      -18.216       -1.204       19.400       29.584       12.496      376.357      875.240      156.157        0.305        0.070       68.429        7.921        0.013      342.036       17.164      861.249
09/13/2014  02:48:00      -87.551        8.773       -3.303       23.346       21.360       12.324      545.037      456.251      151.891        0.445        0.058       87.989        9.012        0.010      341.882       16.902      861.252
09/13/2014  02:49:00      -70.270       17.088       -3.583       37.515       23.753       11.803     1407.370      564.193      139.302        0.368        0.106       72.318       14.791        0.042      341.906       16.946      861.249
09/13/2014  02:50:00      -86.544       13.556      -12.610       26.047       20.353        9.561      678.422      414.258       91.412        0.451        0.059       87.599        6.961        0.006      342.154       17.365      861.239
09/13/2014  02:51:00      -34.600       -6.847        0.177        9.900       10.393        8.427       98.018      108.020       71.018        0.076        0.014       35.271        4.191        0.014      342.159       17.375      861.241
09/13/2014  02:52:00      -82.844      -15.986       -6.713       23.844       21.664        9.611      568.542      469.323       92.378        0.415        0.057       84.372        7.046        0.007      342.290       17.595      861.238
09/13/2014  02:53:00     -118.504      -62.426       -7.623       21.446       18.336       14.691      459.950      336.214      215.824        0.950        0.051      133.941        8.210        0.004      342.195       17.435      861.241
09/13/2014  02:54:00      -71.687      -43.746        4.697       44.767       38.031       25.967     2004.096     1446.383      674.301        0.560        0.206       83.981       25.109        0.089      342.012       17.123      861.246
09/13/2014  02:55:00     -100.193      -31.414       -6.587       33.950       19.014       16.405     1152.619      361.543      269.123        0.643        0.089      105.002       19.325        0.034      342.107       17.285      861.245
09/13/2014  02:56:00     -128.942      -44.866       -7.548       23.972       23.649       14.662      574.654      559.252      214.965        1.002        0.067      136.525       11.042        0.007      342.038       17.170      861.263
09/13/2014  02:57:00     -143.124      -32.247      -10.621       29.085       20.468       15.380      845.941      418.919      236.536        1.157        0.075      146.712       17.919        0.015      341.969       17.051      861.279
09/13/2014  02:58:00     -146.500      -42.278       -4.723       20.203       21.510       13.000      408.144      462.690      168.999        1.216        0.052      152.479        7.631        0.003      342.006       17.113      861.288
09/13/2014  02:59:00     -102.597      -24.037        3.428       41.905       30.694       18.630     1756.035      942.149      347.071        0.708        0.152      105.376       18.209        0.030      341.945       17.011      861.292
09/13/2014  03:00:00      -51.983      -24.392        6.660       39.416       32.699       19.931     1553.600     1069.213      397.237        0.318        0.151       57.422       16.149        0.079      341.918       16.965      861.291
09/13/2014  03:01:00     -106.178      -22.360       -3.268       39.058       29.247       19.947     1525.522      855.389      397.880        0.728        0.139      108.507       21.799        0.040      341.919       16.967      861.296
09/13/2014  03:02:00     -131.255      -13.449       -1.490       63.445       35.176       26.492     4025.211     1237.344      701.821        1.169        0.298      131.942       29.301        0.049      341.961       17.038      861.294
09/13/2014  03:03:00     -152.070      -46.901       -0.569       48.979       39.609       22.483     2398.985     1568.879      505.488        1.490        0.224      159.138       23.015        0.021      341.886       16.910      861.288
09/13/2014  03:04:00     -145.855      -42.265      -14.527       29.604       30.210       17.036      876.419      912.642      290.215        1.267        0.104      151.855       14.977        0.010      341.758       16.692      861.286
09/13/2014  03:05:00     -148.528      -78.776       -2.408       31.922       27.934       22.965     1018.989      780.314      527.373        1.530        0.116      168.126       17.645        0.011      341.732       16.648      861.288
09/13/2014  03:06:00     -135.726      -58.064       -0.864       43.710       34.419       23.978     1910.526     1184.638      574.963        1.273        0.184      147.624       21.948        0.022      341.685       16.570      861.295
09/13/2014  03:07:00     -141.532       -0.428      -12.332       40.790       26.763       19.365     1663.804      716.274      375.000        1.147        0.138      141.533       15.947        0.013      341.784       16.738      861.289
09/13/2014  03:08:00     -136.197      -30.893      -13.700       33.519       34.243       18.781     1123.525     1172.550      352.710        1.117        0.132      139.656       14.638        0.011      341.794       16.754      861.283
09/13/2014  03:09:00     -150.520      -57.380       -6.686       29.874       33.644       15.979      892.447     1131.945      255.319        1.414        0.114      161.086       10.286        0.004      341.777       16.725      861.269
09/13/2014  03:10:00     -137.397      -66.216       -6.121       34.610       29.048       16.134     1197.843      843.807      260.297        1.280        0.115      152.521       14.758        0.009      341.879       16.899      861.274
09/13/2014  03:11:00     -163.133      -64.704       -8.931       29.527       25.246       15.401      871.828      637.372      237.193        1.631        0.087      175.496       16.342        0.009      341.988       17.083      861.274
09/13/2014  03:12:00     -129.610      -82.718        0.047       52.453       35.018       22.564     2751.278     1226.270      509.139        1.406        0.224      153.756       24.630        0.026      341.994       17.092      861.272
09/13/2014  03:13:00     -134.183      -82.671       -1.953       59.197       36.751       21.907     3504.230     1350.609      479.927        1.509        0.267      157.606       24.810        0.025      342.031       17.157      861.267
09/13/2014  03:14:00     -143.419      -57.501       -0.914       41.682       41.906       23.009     1737.360     1756.136      529.413        1.395        0.201      154.517       23.843        0.024      342.053       17.193      861.271
09/13/2014  03:15:00     -130.530      -55.645       -3.873       27.305       25.702       17.792      745.557      660.572      316.539        1.094        0.086      141.895       15.670        0.012      341.943       17.006      861.281
09/13/2014  03:16:00     -127.528      -62.922       -4.934       37.569       23.510       19.383     1411.440      552.714      375.700        1.129        0.117      142.207       16.029        0.013      341.944       17.010      861.298
09/13/2014  03:17:00     -118.970      -66.259       -4.578       48.715       29.455       19.780     2373.131      867.579      391.261        1.110        0.182      136.177       16.314        0.014      341.914       16.958      861.317
09/13/2014  03:18:00     -135.157      -76.738       -4.763       33.397       24.892       17.129     1115.342      619.606      293.389        1.310        0.101      155.423        4.450        0.001      341.927       16.980      861.317
09/13/2014  03:19:00     -128.756      -43.690       -3.240       30.890       40.221       23.100      954.165     1617.706      533.625        1.080        0.155      135.966       16.873        0.015      341.962       17.041      861.318
09/13/2014  03:20:00     -104.362      -13.168       -7.080       37.713       32.767       21.527     1422.274     1073.677      463.428        0.704        0.148      105.190       17.853        0.029      341.868       16.880      861.328
09/13/2014  03:21:00     -147.121      -13.640      -16.887       34.722       34.056       21.189     1205.643     1159.808      448.978        1.246        0.141      147.752       19.414        0.017      341.876       16.894      861.327
09/13/2014  03:22:00     -150.004      -46.412      -10.227       35.622       28.703       21.025     1268.943      823.853      442.071        1.365        0.127      157.020       19.471        0.015      341.849       16.847      861.331
09/13/2014  03:23:00     -135.418      -21.522       -0.684       42.273       27.202       21.190     1786.989      739.951      449.019        1.089        0.149      137.117       19.311        0.020      341.882       16.903      861.336
09/13/2014  03:24:00     -160.288      -11.180      -14.260       37.414       24.626       22.923     1399.825      606.450      525.465        1.428        0.127      160.678       22.283        0.019      341.897       16.928      861.326
09/13/2014  03:25:00     -152.312      -36.630       -4.278       36.232       24.878       20.088     1312.738      618.903      403.538        1.345        0.117      156.655       21.361        0.019      341.944       17.008      861.339
09/13/2014  03:26:00     -120.090      -22.942       -1.214       39.578       24.393       17.593     1566.393      595.001      309.506        0.871        0.124      122.261       19.720        0.026      341.950       17.019      861.350
09/13/2014  03:27:00      -87.549      -16.672        2.169       35.161       30.093       16.913     1236.305      905.578      286.049        0.519        0.121       89.123       17.808        0.040      341.947       17.013      861.355
09/13/2014  03:28:00     -113.034      -54.419       -1.608       23.197       24.915       15.090      538.084      620.777      227.705        0.856        0.069      125.452       12.668        0.010      342.053       17.194      861.362
09/13/2014  03:29:00      -78.259      -46.782       -1.216       34.286       19.393       18.766     1175.498      376.088      352.178        0.511        0.095       91.176       18.231        0.040      342.028       17.150      861.368
09/13/2014  03:30:00     -108.156      -45.822       -7.838       21.139       17.674       12.406      446.864      312.374      153.918        0.739        0.046      117.463        7.337        0.004      342.063       17.210      861.360
09/13/2014  03:31:00      -98.991      -53.624       -1.733       26.606       20.984       12.659      707.871      440.328      160.242        0.699        0.065      112.582       10.409        0.009      342.146       17.350      861.362
09/13/2014  03:32:00     -114.246      -66.028       -2.761       24.647       22.617       17.378      607.468      511.527      301.995        0.942        0.071      131.954       14.122        0.011      342.149       17.356      861.369
09/13/2014  03:33:00     -105.936      -39.223       -6.720       12.734       15.536        9.305      162.150      241.354       86.579        0.665        0.025      112.964        6.931        0.004      342.183       17.414      861.361
09/13/2014  03:34:00      -98.417      -63.559       -8.272       13.541       13.764        8.905      183.371      189.459       79.306        0.712        0.023      117.156        4.813        0.002      342.115       17.297      861.355
09/13/2014  03:35:00     -112.549      -58.931       -3.358       16.273       16.448       11.424      264.804      270.552      130.498        0.841        0.033      127.044        7.047        0.003      342.044       17.178      861.356
09/13/2014  03:36:00     -124.555      -57.441       -7.884       16.290       17.000       10.840      265.354      289.013      117.507        0.977        0.034      137.162        5.206        0.001      341.932       16.989      861.361
09/13/2014  03:37:00     -114.051      -40.708       -6.225       13.453       17.111       13.205      180.983      292.794      174.366        0.768        0.032      121.098        9.631        0.006      341.874       16.890      861.352
09/13/2014  03:38:00      -97.626      -24.992       -6.722       28.786       19.594       15.230      828.605      383.933      231.962        0.582        0.072      100.775       14.722        0.021      341.830       16.815      861.342
09/13/2014  03:39:00      -82.413      -34.219       -0.530       23.548       20.674       14.380      554.525      427.411      206.780        0.458        0.059       89.234       12.093        0.018      341.837       16.827      861.334
09/13/2014  03:40:00     -113.477      -16.567       -6.656       37.346       30.329       18.986     1394.708      919.822      360.464        0.793        0.134      114.680       20.022        0.030      341.797       16.761      861.326
09/13/2014  03:41:00     -143.952       -3.570      -11.349       36.078       25.627       23.440     1301.620      656.750      549.440        1.169        0.125      143.996       21.181        0.022      341.853       16.856      861.318
09/13/2014  03:42:00     -130.733        9.197       -9.909       36.240       24.473       17.701     1313.324      598.935      313.341        0.975        0.111      131.056       13.927        0.011      341.806       16.774      861.315
09/13/2014  03:43:00     -107.845      -19.421      -10.948       48.099       33.734       22.445     2313.509     1137.978      503.762        0.804        0.198      109.580       21.450        0.038      341.810       16.780      861.315
09/13/2014  03:44:00      -73.076      -38.813       -4.297       43.661       33.027       22.196     1906.293     1090.770      492.652        0.518        0.174       82.744       24.607        0.088      341.686       16.571      861.319
09/13/2014  03:45:00     -115.292      -35.857      -12.502       21.404       23.045       14.564      458.152      531.081      212.109        0.797        0.060      120.739       11.616        0.009      341.666       16.538      861.320
09/13/2014  03:46:00     -115.486      -26.955      -10.246       14.826       23.785       14.160      219.801      565.713      200.505        0.758        0.049      118.590        6.079        0.003      341.738       16.659      861.323
09/13/2014  03:47:00      -94.651      -34.268       -0.338       43.030       28.231       18.310     1851.617      796.962      335.252        0.656        0.149      100.663       22.561        0.050      341.691       16.580      861.320
09/13/2014  03:48:00      -86.798      -12.668       -1.882       25.151       26.288       15.217      632.578      691.063      231.563        0.463        0.078       87.718       12.350        0.020      341.726       16.639      861.322
09/13/2014  03:49:00      -22.307      -16.187        3.311       21.700       16.567       10.688      470.902      274.452      114.228        0.081        0.043       27.561        5.123        0.035      341.764       16.704      861.316
09/13/2014  03:50:00      -24.550      -28.097        2.139       24.768       22.606       15.122      613.454      511.019      228.668        0.137        0.068       37.312       14.537        0.152      341.839       16.831      861.317
09/13/2014  03:51:00      -54.798      -43.449       -1.720       29.988       26.331       13.945      899.298      693.296      194.471        0.334        0.089       69.933       16.997        0.059      341.835       16.825      861.315
09/13/2014  03:52:00      -21.661      -45.876       -0.343       21.565       25.044       11.527      465.063      627.191      132.878        0.190        0.061       50.733        8.377        0.027      341.856       16.859      861.310
09/13/2014  03:53:00      -22.142      -51.535       -3.036       21.917       19.728       11.773      480.354      389.213      138.611        0.208        0.050       56.090       10.217        0.033      341.878       16.896      861.316
09/13/2014  03:54:00      -21.445      -65.155       -5.562       17.901       20.767       19.531      320.428      431.275      381.444        0.293        0.057       68.593        9.003        0.017      341.934       16.989      861.314
09/13/2014  03:55:00      -69.015       -5.943       -0.339       40.043       25.180       13.486     1603.480      634.016      181.871        0.361        0.121       69.271       11.246        0.026      341.883       16.904      861.325
09/13/2014  03:56:00      -69.718      -55.006        2.765       42.128       25.067       16.694     1774.740      628.360      278.677        0.529        0.134       88.805       10.531        0.014      341.805       16.772      861.359
09/13/2014  03:57:00      -11.964      -56.385       -0.597       21.097       27.888       20.620      445.068      777.713      425.194        0.249        0.082       57.641       15.454        0.072      341.801       16.766      861.367
09/13/2014  03:58:00      -30.213      -47.762        0.694       36.928       28.658       22.738     1363.647      821.297      517.013        0.295        0.135       56.515       21.243        0.141      341.785       16.738      861.373
09/13/2014  03:59:00        5.144      -19.681        7.201       12.478       21.274       10.282      155.711      452.603      105.724        0.059        0.036       20.342        8.157        0.161      341.738       16.660      861.390
09/13/2014  04:00:00       -0.468      -24.062        4.371       30.028       21.097       17.240      901.697      445.092      297.229        0.112        0.082       24.067        8.306        0.119      341.769       16.712      861.392
09/13/2014  04:01:00        1.183      -29.110       10.693       21.236       27.604       15.876      450.963      761.959      252.038        0.121        0.073       29.134       16.385        0.316      341.780       16.731      861.376
09/13/2014  04:02:00      -92.197      -31.266        3.658       31.517       23.641       17.211      993.323      558.915      296.204        0.567        0.092       97.354        6.728        0.005      341.755       16.687      861.370
09/13/2014  04:03:00      -57.113      -53.243       -0.497       41.618       24.163       17.793     1732.058      583.847      316.582        0.436        0.132       78.081       14.984        0.037      341.687       16.572      861.364
09/13/2014  04:04:00      -74.933      -53.082       -3.869       25.231       17.480       12.519      636.611      305.540      156.715        0.477        0.055       91.830       12.028        0.017      341.641       16.495      861.356
09/13/2014  04:05:00      -71.940      -58.821       -2.158       44.036       22.257       17.168     1939.194      495.396      294.726        0.568        0.136       92.927       19.053        0.042      341.646       16.503      861.345
09/13/2014  04:06:00      -23.414      -37.704        8.173       29.233       29.622       22.504      854.550      877.441      506.421        0.214        0.112       44.382       18.629        0.176      341.547       16.335      861.339
09/13/2014  04:07:00      -76.350      -63.319       -2.567       42.663       30.124       18.316     1820.109      907.475      335.485        0.645        0.153       99.190       19.868        0.040      341.656       16.518      861.315
09/13/2014  04:08:00     -150.987      -32.186       -7.193       30.865       27.041       23.253      952.641      731.217      540.702        1.305        0.111      154.380        7.364        0.002      341.657       16.522      861.304
09/13/2014  04:09:00     -109.463      -62.992        0.466       58.652       41.568       27.203     3440.043     1727.939      740.011        1.093        0.295      126.294       27.790        0.048      341.546       16.333      861.315
09/13/2014  04:10:00      -76.794      -72.806       -3.189       27.092       24.787       15.297      733.983      614.413      234.006        0.639        0.079      105.820       10.498        0.010      341.625       16.467      861.308
09/13/2014  04:11:00      -63.051      -68.111        1.443       41.129       34.524       22.698     1691.603     1191.885      515.219        0.601        0.170       92.815       22.290        0.058      341.716       16.621      861.304
09/13/2014  04:12:00      -60.337      -53.781        4.513       41.086       34.133       23.983     1688.025     1165.065      575.184        0.499        0.171       80.827       20.345        0.063      341.574       16.381      861.302
09/13/2014  04:13:00      -58.292      -83.625        1.741       45.882       48.918       27.507     2105.128     2392.982      756.657        0.782        0.263      101.937       28.157        0.076      341.559       16.357      861.305
09/13/2014  04:14:00     -119.830      -98.280       -2.288       43.745       55.389       30.956     1913.646     3067.963      958.288        1.498        0.297      154.978       29.968        0.037      341.464       16.193      861.303
09/13/2014  04:15:00     -107.198      -93.371       -4.420       45.035       49.659       25.376     2028.139     2465.982      643.916        1.268        0.257      142.161       23.887        0.028      341.455       16.179      861.300
09/13/2014  04:16:00      -43.218      -50.162        4.464       38.465       28.004       21.777     1479.521      784.198      474.233        0.357        0.137       66.211       23.749        0.129      341.465       16.195      861.299
09/13/2014  04:17:00      -61.651      -48.120       -2.812       24.614       23.765       12.534      605.846      564.773      157.108        0.373        0.066       78.208        9.519        0.015      341.508       16.268      861.299
09/13/2014  04:18:00      -72.096      -17.671        2.329       25.751       20.895       13.549      663.090      436.591      183.583        0.340        0.064       74.230       11.226        0.023      341.365       16.025      861.307
09/13/2014  04:19:00      -92.144      -42.900       -6.807       21.266       21.554       13.258      452.258      464.557      175.770        0.573        0.055      101.641       12.435        0.015      341.361       16.021      861.310
09/13/2014  04:20:00      -61.743      -25.954       -3.936       40.501       19.280       13.544     1640.349      371.727      183.432        0.335        0.110       66.976       17.277        0.067      341.370       16.036      861.311
09/13/2014  04:21:00      -28.508      -17.571        1.068       20.712       11.920       10.011      428.986      142.087      100.221        0.090        0.034       33.489        5.241        0.024      341.394       16.074      861.304
09/13/2014  04:22:00      -63.004      -16.364        1.561       16.037       12.979       10.361      257.191      168.442      107.360        0.239        0.027       65.094        8.113        0.016      341.368       16.031      861.313
09/13/2014  04:23:00      -75.242       -0.646       -4.986       17.515       17.314        8.053      306.785      299.769       64.858        0.318        0.034       75.244        4.924        0.004      341.333       15.973      861.309
09/13/2014  04:24:00      -86.481       21.349       -9.775       14.433        9.999        5.997      208.314       99.981       35.966        0.419        0.017       89.077        4.449        0.002      341.266       15.859      861.304
09/13/2014  04:25:00      -50.863        2.262       -7.125       22.928       12.812       11.787      525.707      164.135      138.935        0.174        0.041       50.913        4.861        0.009      341.280       15.884      861.306
09/13/2014  04:26:00      -68.924      -27.137       -7.259       16.751       10.917       10.862      280.580      119.171      117.990        0.303        0.026       74.074       10.158        0.019      341.324       15.957      861.314
09/13/2014  04:27:00      -67.183      -34.506        2.817       31.038       16.630       12.598      963.351      276.542      158.706        0.356        0.070       75.527       14.345        0.036      341.342       15.988      861.308
09/13/2014  04:28:00     -105.392      -54.850       -3.976       38.000       19.971       17.172     1443.965      398.848      294.878        0.813        0.107      118.811       12.707        0.011      341.295       15.908      861.322
09/13/2014  04:29:00      -34.064      -30.810        0.839       25.582       18.014       10.527      654.459      324.522      110.817        0.160        0.054       45.930        5.478        0.014      341.273       15.873      861.322
09/13/2014  04:30:00      -31.082      -11.471       -2.692        9.619        9.877        4.919       92.533       97.546       24.196        0.066        0.011       33.131        4.348        0.017      341.296       15.910      861.326
09/13/2014  04:31:00      -44.409      -34.802        1.113       27.527       12.965       12.191      757.727      168.096      148.612        0.213        0.054       56.421       12.679        0.051      341.425       16.127      861.323
09/13/2014  04:32:00      -45.917      -43.353        2.026       32.100       27.656       16.113     1030.392      764.861      259.639        0.302        0.103       63.150       13.708        0.047      341.279       15.882      861.318
09/13/2014  04:33:00       -6.520      -21.156        7.882       23.661       17.473       17.699      559.849      305.301      313.262        0.087        0.059       22.138       13.746        0.386      341.200       15.748      861.318
09/13/2014  04:34:00      -36.931      -29.731       -1.559       32.716       14.419       12.361     1070.360      207.918      152.792        0.184        0.072       47.412       10.877        0.053      341.272       15.872      861.325
09/13/2014  04:35:00      -95.111      -41.747       -2.685       17.593       23.782       13.419      309.498      565.593      180.067        0.593        0.053      103.869        3.912        0.001      341.268       15.863      861.339
09/13/2014  04:36:00      -78.878      -62.692       -0.732       36.187       27.010       19.546     1309.532      729.549      382.037        0.629        0.121      100.758       15.938        0.025      341.264       15.856      861.350
09/13/2014  04:37:00      -49.341      -55.468        3.248       46.839       31.063       23.048     2193.907      964.938      531.218        0.461        0.185       74.238       26.166        0.124      341.294       15.908      861.360
09/13/2014  04:38:00      -59.902      -32.040        3.903       28.058       31.502       14.309      787.264      992.393      204.741        0.331        0.099       67.932       10.261        0.023      341.242       15.819      861.364
09/13/2014  04:39:00      -85.379      -55.697       -1.136       29.294       26.455       19.222      858.124      699.879      369.488        0.616        0.096      101.940       12.589        0.015      341.243       15.820      861.359
09/13/2014  04:40:00     -116.739      -65.164       -4.522       40.397       26.500       22.074     1631.884      702.274      487.279        1.036        0.141      133.696       15.839        0.014      341.180       15.715      861.360
09/13/2014  04:41:00     -118.001      -60.324       -3.354       18.822       16.275       11.150      354.274      264.866      124.318        0.916        0.037      132.527        5.024        0.001      341.181       15.715      861.348
09/13/2014  04:42:00      -82.063      -27.539       -2.990       23.341       25.297       15.141      544.806      639.948      229.264        0.446        0.071       86.561       12.074        0.019      341.122       15.615      861.349
09/13/2014  04:43:00      -67.756      -26.802       -0.443       23.015       24.526       14.672      529.709      601.527      215.254        0.333        0.067       72.864       10.108        0.019      341.054       15.501      861.355
09/13/2014  04:44:00      -72.685      -42.127       -5.488       35.124       15.650       11.863     1233.679      244.922      140.740        0.435        0.081       84.010        9.945        0.014      341.124       15.618      861.357
09/13/2014  04:45:00      -98.748      -43.924       -8.116       13.527       10.312        9.229      182.972      106.335       85.171        0.606        0.019      108.076        4.751        0.002      341.146       15.657      861.357
09/13/2014  04:46:00      -88.831      -41.072        0.816       29.057       19.302       14.549      844.299      372.555      211.667        0.550        0.071       97.867       15.418        0.025      341.246       15.827      861.359
09/13/2014  04:47:00      -72.714      -54.848        2.799       27.601       19.772       12.959      761.817      390.933      167.946        0.481        0.066       91.081       14.149        0.024      341.177       15.710      861.371
09/13/2014  04:48:00      -91.236      -29.889       -7.073       12.934       11.415       10.721      167.283      130.301      114.939        0.484        0.021       96.007        8.052        0.007      341.246       15.827      861.371
09/13/2014  04:49:00      -54.012      -32.693        0.861       26.592       20.773       15.418      707.161      431.525      237.713        0.268        0.069       63.135       13.211        0.044      341.258       15.845      861.369
09/13/2014  04:50:00      -11.759      -24.563       14.376       33.206       17.348       18.351     1102.614      300.970      336.757        0.134        0.087       27.233       19.848        0.531      341.190       15.731      861.372
09/13/2014  04:51:00      -45.410      -41.299        1.868       38.318       25.941       14.001     1468.283      672.946      196.033        0.305        0.117       61.381       13.707        0.050      341.122       15.616      861.391
09/13/2014  04:52:00      -99.719      -77.963       -8.293       32.623       35.437       18.977     1064.285     1255.752      360.141        0.939        0.134      126.578       13.408        0.011      341.194       15.738      861.412
09/13/2014  04:53:00      -85.622      -53.873       -4.072       30.444       38.347       24.612      926.835     1470.469      605.753        0.663        0.150      101.161       22.646        0.050      341.144       15.655      861.420
09/13/2014  04:54:00     -112.786      -75.040       -3.649       44.479       28.326       20.534     1978.339      802.338      421.631        1.078        0.160      135.468       14.984        0.012      341.110       15.595      861.431
09/13/2014  04:55:00     -108.395      -27.738       -7.836       38.350       37.970       21.987     1470.748     1441.727      483.434        0.799        0.170      111.887       19.319        0.030      340.917       15.270      861.440
09/13/2014  04:56:00     -106.181      -40.475        3.793       29.519       22.886       15.408      871.344      523.771      237.410        0.728        0.082      113.634       16.495        0.021      340.900       15.241      861.441
09/13/2014  04:57:00      -26.633      -24.494        9.765       34.291       21.202       13.465     1175.881      449.513      181.301        0.161        0.090       36.184       16.864        0.217      340.979       15.373      861.435
09/13/2014  04:58:00      -95.931      -49.815        1.088       27.851       24.283       15.256      775.683      589.669      232.759        0.664        0.080      108.094       13.624        0.016      340.988       15.386      861.426
09/13/2014  04:59:00      -86.957      -41.010       -2.084       32.337       24.472       17.486     1045.675      598.857      305.777        0.560        0.098       96.142       12.291        0.016      341.006       15.419      861.408
09/13/2014  05:00:00      -86.854      -43.599       -1.953       45.954       31.901       27.754     2111.725     1017.668      770.294        0.667        0.195       97.182       21.975        0.051      340.926       15.284      861.404
09/13/2014  05:01:00      -60.381      -34.765        0.466       42.031       19.355       17.856     1766.591      374.629      318.826        0.366        0.123       69.674       18.018        0.067      340.932       15.291      861.408
09/13/2014  05:02:00      -78.540      -41.468        5.378       37.883       33.309       21.977     1435.106     1109.461      482.971        0.547        0.151       88.816       22.418        0.064      340.933       15.297      861.420
09/13/2014  05:03:00     -110.748      -28.697       -2.748       29.731       30.491       19.223      883.951      929.689      369.538        0.764        0.109      114.405       10.035        0.008      340.923       15.280      861.447
09/13/2014  05:04:00     -117.320      -30.651        0.131       44.443       34.143       25.561     1975.198     1165.721      653.366        0.925        0.190      121.257       26.723        0.049      340.767       15.015      861.486
09/13/2014  05:05:00      -59.513      -42.411        4.830       48.929       35.272       21.981     2394.033     1244.136      483.160        0.474        0.206       73.078       24.690        0.114      340.807       15.082      861.497
09/13/2014  05:06:00     -104.605      -43.639       -5.236       25.974       23.863       14.229      674.647      569.440      202.475        0.716        0.072      113.343       11.811        0.011      340.931       15.292      861.493
09/13/2014  05:07:00     -125.230      -36.263      -10.697       17.900       19.918       14.152      320.419      396.720      200.272        0.901        0.046      130.375        4.479        0.001      340.887       15.217      861.504
09/13/2014  05:08:00     -107.168      -25.727       -6.823       19.685       17.825       14.156      387.502      317.727      200.390        0.655        0.045      110.213        9.076        0.007      340.849       15.153      861.509
09/13/2014  05:09:00      -89.012      -12.986       -5.815       23.907       19.219       12.545      571.524      369.369      157.369        0.461        0.055       89.955        9.604        0.011      340.863       15.177      861.497
09/13/2014  05:10:00      -92.462      -21.777       -3.285       30.647       19.042       12.085      939.262      362.592      146.056        0.524        0.072       94.992       13.390        0.020      340.952       15.326      861.484
09/13/2014  05:11:00      -60.770      -17.722       -8.464       16.603       16.415        9.517      275.674      269.443       90.577        0.236        0.032       63.302        9.336        0.022      340.965       15.351      861.472
09/13/2014  05:12:00      -36.007       13.886       -7.114       13.749       12.206        7.300      189.032      148.978       53.295        0.097        0.020       38.592        4.569        0.014      341.275       15.877      861.463
09/13/2014  05:13:00      -51.976       -8.531      -11.734       12.374       19.404        6.407      153.125      376.498       41.050        0.174        0.029       52.671        4.970        0.009      341.275       15.875      861.447
09/13/2014  05:14:00      -57.836      -45.186       -8.866       20.614       11.697       12.716      424.939      136.814      161.690        0.309        0.036       73.394       11.256        0.024      341.086       15.553      861.453
09/13/2014  05:15:00     -110.197      -67.098       -4.961       22.637       19.278       12.588      512.453      371.639      158.467        0.886        0.052      129.018        3.934        0.001      340.934       15.299      861.475
09/13/2014  05:16:00     -145.547      -24.174      -13.333       28.530       22.546       15.113      813.935      508.340      228.417        1.175        0.078      147.541       11.876        0.006      340.736       14.963      861.482
09/13/2014  05:17:00     -149.741      -12.145      -11.852       37.953       24.605       18.826     1440.394      605.424      354.435        1.255        0.120      150.233       20.028        0.018      340.517       14.591      861.482
09/13/2014  05:18:00      -97.318      -51.355        3.354       33.718       23.703       19.265     1136.896      561.819      371.133        0.709        0.103      110.037       19.846        0.033      341.002       15.411      861.473
09/13/2014  05:19:00      -76.097       -8.900       -3.801       34.989       19.632       15.878     1224.251      385.415      252.120        0.387        0.093       76.616       17.285        0.051      340.845       15.146      861.473
09/13/2014  05:20:00     -113.695      -12.213       -9.482       20.075       13.850       15.084      402.997      191.810      227.514        0.699        0.041      114.349       12.628        0.012      340.754       14.993      861.467
09/13/2014  05:21:00      -86.682      -12.747       -5.912       22.986       14.895       14.102      528.374      221.858      198.875        0.433        0.047       87.614       13.327        0.023      340.823       15.110      861.480
09/13/2014  05:22:00      -38.153      -35.945       -3.915       33.742       20.301       13.882     1138.493      412.150      192.722        0.225        0.087       52.418        7.665        0.021      340.833       15.124      861.494
09/13/2014  05:23:00      -42.815      -32.143       -4.955       16.023       17.934        9.144      256.744      321.621       83.610        0.178        0.033       53.538        7.214        0.018      340.715       14.927      861.486
09/13/2014  05:24:00      -60.027       -8.175      -12.131       10.865       12.953       11.082      118.055      167.784      122.807        0.211        0.020       60.582        7.777        0.016      340.867       15.183      861.463
09/13/2014  05:25:00      -62.188      -37.282       -7.297       10.000       14.713        9.575      100.007      216.462       91.690        0.286        0.020       72.507        5.819        0.006      341.013       15.434      861.441
09/13/2014  05:26:00     -100.420      -40.837       -8.345       15.213       17.792        9.851      231.443      316.545       97.047        0.623        0.032      108.406        6.991        0.004      340.897       15.235      861.459
09/13/2014  05:27:00      -95.073      -54.139       -6.158       24.916       17.410       14.512      620.807      303.095      210.602        0.657        0.057      109.407        9.203        0.007      340.762       15.005      861.471
09/13/2014  05:28:00      -85.827      -50.078       -4.857       20.344       11.682        9.498      413.862      136.479       90.220        0.527        0.032       99.368        4.508        0.002      340.798       15.066      861.472
09/13/2014  05:29:00      -90.575      -23.440       -8.586       15.445       15.380       10.933      238.555      236.533      119.536        0.471        0.030       93.559        6.679        0.005      340.782       15.040      861.474
09/13/2014  05:30:00     -100.755      -11.701       -5.835       38.006       21.237       20.767     1444.445      451.007      431.263        0.632        0.116      101.432       24.084        0.056      340.682       14.871      861.483
09/13/2014  05:31:00      -71.728      -16.980        6.113       24.321       20.280       12.941      591.507      411.284      167.461        0.332        0.059       73.711        9.592        0.017      340.578       14.695      861.483
09/13/2014  05:32:00      -83.825      -34.126        1.823       25.608       13.459       12.518      655.765      181.156      156.700        0.459        0.050       90.505       11.361        0.016      340.745       14.977      861.479
09/13/2014  05:33:00      -59.944      -11.917       -3.710       24.477       18.893       11.052      599.123      356.944      122.137        0.241        0.054       61.117       10.774        0.031      340.688       14.882      861.461
09/13/2014  05:34:00      -48.029      -25.216        2.276       20.644       12.634       11.364      426.172      159.624      129.131        0.183        0.036       54.246        2.555        0.002      340.715       14.927      861.462
09/13/2014  05:35:00      -63.236      -34.512        3.632       25.999       18.241       14.764      675.961      332.745      217.976        0.321        0.061       72.041       13.906        0.037      340.671       14.852      861.476
09/13/2014  05:36:00      -79.473      -42.135        0.971       42.675       31.847       18.689     1821.116     1014.207      349.270        0.564        0.159       89.952       16.347        0.033      340.714       14.927      861.480
09/13/2014  05:37:00      -80.555      -43.472        3.390       35.011       23.054       17.769     1225.760      531.495      315.731        0.523        0.104       91.537       16.974        0.034      340.688       14.882      861.478
09/13/2014  05:38:00      -61.952      -47.227        3.616       26.720       20.983       16.200      713.961      440.295      262.425        0.375        0.071       77.900       15.402        0.039      340.814       15.093      861.474
09/13/2014  05:39:00      -55.653      -36.952        7.895       41.290       23.062       21.923     1704.840      531.854      480.617        0.362        0.136       66.804       18.028        0.073      340.769       15.017      861.484
09/13/2014  05:40:00     -117.800      -50.624       -7.276       30.616       19.792       13.280      937.333      391.727      176.356        0.900        0.075      128.217       15.494        0.015      340.782       15.041      861.498
09/13/2014  05:41:00     -120.673      -67.302       -2.650       24.920       26.544       19.445      620.993      704.570      378.105        1.040        0.085      138.172       12.796        0.009      340.734       14.959      861.506
09/13/2014  05:42:00      -89.629      -40.989       -1.581       40.437       21.643       13.943     1635.144      468.432      194.405        0.601        0.115       98.557       16.870        0.029      340.784       15.043      861.509
09/13/2014  05:43:00      -74.965      -50.483        2.486       37.111       27.184       19.361     1377.251      738.947      374.847        0.533        0.125       90.379       20.785        0.053      340.861       15.173      861.505
09/13/2014  05:44:00      -74.551      -56.576        8.481       37.549       27.054       25.411     1409.935      731.919      645.726        0.581        0.139       93.588       21.362        0.052      340.827       15.116      861.515
09/13/2014  05:45:00     -122.382      -66.103        0.826       44.596       30.251       21.660     1988.780      915.094      469.167        1.136        0.169      139.093       22.170        0.025      340.809       15.086      861.524
09/13/2014  05:46:00     -136.272      -44.517       -8.598       44.522       40.070       24.014     1982.238     1605.639      576.688        1.239        0.208      143.359       24.096        0.028      340.529       14.612      861.546
09/13/2014  05:47:00      -97.643      -11.748       -2.604       40.515       31.520       22.062     1641.444      993.532      486.738        0.640        0.156       98.347       22.416        0.052      340.517       14.593      861.547
09/13/2014  05:48:00      -78.198      -47.989        1.032       24.429       20.618       16.600      596.795      425.120      275.563        0.486        0.065       91.749       15.192        0.027      340.710       14.919      861.541
09/13/2014  05:49:00      -82.033      -41.263        0.765       33.878       21.861       14.125     1147.693      477.885      199.520        0.513        0.091       91.826       16.606        0.033      340.676       14.860      861.547
09/13/2014  05:50:00     -115.855      -38.809       -5.313       17.796       15.147       11.520      316.709      229.443      132.708        0.782        0.034      122.183        2.406        0.000      340.844       15.144      861.550
09/13/2014  05:51:00     -121.760      -69.625       -6.931       20.543       15.711       14.896      422.026      246.849      221.889        1.031        0.045      140.261       11.650        0.007      340.823       15.110      861.561
09/13/2014  05:52:00      -43.351      -45.233        6.526       60.152       23.212       24.268     3618.305      538.811      588.927        0.436        0.237       62.652       20.365        0.106      340.742       14.973      861.566
09/13/2014  05:53:00      -36.164      -41.080       15.999       56.284       38.700       25.080     3167.912     1497.696      629.017        0.427        0.265       54.730       34.603        0.400      340.774       15.027      861.565
09/13/2014  05:54:00      -73.998      -16.677       -2.767       35.084       34.206       16.129     1230.880     1170.045      260.161        0.421        0.133       75.854       15.330        0.041      340.718       14.932      861.566
09/13/2014  05:55:00     -117.462       -7.406      -10.404       41.112       20.760       14.735     1690.208      430.970      217.120        0.815        0.117      117.695       17.414        0.022      340.520       14.596      861.572
09/13/2014  05:56:00      -71.900        4.583        0.424       28.188       20.010       17.152      794.589      400.393      294.207        0.334        0.074       72.046       18.204        0.064      340.469       14.512      861.579
09/13/2014  05:57:00      -72.118       -5.612       -0.908       27.143       26.881       15.821      736.751      722.576      250.297        0.347        0.085       72.336        8.943        0.015      340.472       14.516      861.596
09/13/2014  05:58:00     -117.032      -18.111       -6.039       25.973       24.837       19.293      674.594      616.864      372.233        0.786        0.083      118.425       13.289        0.013      340.702       14.905      861.628
09/13/2014  05:59:00      -69.567      -57.306        6.260       35.376       22.341       22.553     1251.447      499.129      508.639        0.521        0.113       90.131       13.837        0.024      340.554       14.655      861.654
09/13/2014  06:00:00      -56.539      -35.136        2.623       18.633       19.073       12.848      347.197      363.771      165.070        0.266        0.044       66.567        9.259        0.019      340.541       14.633      861.671
09/13/2014  06:01:00      -51.679      -20.274        2.356       24.973       14.693       14.792      623.675      215.892      218.807        0.207        0.053       55.514       14.850        0.072      340.564       14.671      861.675
09/13/2014  06:02:00      -38.803      -32.084        4.791       29.914       38.974       14.744      894.871     1518.995      217.383        0.259        0.132       50.349       16.767        0.111      340.630       14.783      861.677
09/13/2014  06:03:00      -57.151      -65.246       -0.287       55.947       39.395       24.369     3130.100     1551.963      593.838        0.640        0.264       86.736       27.145        0.098      340.750       14.986      861.656
09/13/2014  06:04:00      -84.637      -37.498      -12.212       42.094       23.013       20.272     1771.904      529.593      410.954        0.572        0.136       92.571       18.171        0.039      340.739       14.967      861.642
09/13/2014  06:05:00      -78.521      -44.129      -13.729       28.030       19.327       13.239      785.666      373.546      175.274        0.482        0.067       90.071       10.803        0.014      340.743       14.974      861.623
09/13/2014  06:06:00     -101.170      -32.903      -18.009        9.473        9.908       10.483       89.743       98.173      109.885        0.597        0.015      106.386        3.232        0.001      340.754       14.992      861.636
09/13/2014  06:07:00     -132.506      -53.846       -5.533       13.026       16.476       11.525      169.666      271.467      132.832        1.053        0.029      143.029        5.843        0.002      340.695       14.894      861.638
09/13/2014  06:08:00     -141.056      -42.154      -19.098       30.265       25.959       17.924      915.963      673.870      321.257        1.197        0.096      147.220       18.694        0.016      340.520       14.596      861.646
09/13/2014  06:09:00     -152.772      -51.888      -14.568       32.353       30.402       24.824     1046.728      924.286      616.235        1.442        0.129      161.343       22.114        0.019      340.466       14.507      861.651
09/13/2014  06:10:00      -67.637      -54.753       -0.297       48.487       28.934       26.145     2350.957      837.166      683.554        0.572        0.194       87.021       26.735        0.094      340.441       14.464      861.681
09/13/2014  06:11:00      -86.340      -33.021       -0.708       23.203       20.523       12.506      538.378      421.181      156.401        0.483        0.056       92.439       12.197        0.017      340.471       14.515      861.683
09/13/2014  06:12:00      -98.881      -53.134      -16.930       13.086       21.654        8.719      171.245      468.889       76.027        0.680        0.036      112.253        5.123        0.002      340.564       14.673      861.678
09/13/2014  06:13:00      -76.185      -54.538       -8.132       18.859       13.747       15.278      355.649      188.990      233.431        0.481        0.039       93.694       12.130        0.017      340.738       14.967      861.679
09/13/2014  06:14:00      -38.049      -38.536        6.160       19.070       14.920       18.364      363.683      222.594      337.237        0.195        0.046       54.155       13.706        0.064      340.856       15.165      861.667
09/13/2014  06:15:00      -78.030      -50.574       -1.103       52.770       23.048       20.101     2784.692      531.189      404.067        0.618        0.186       92.986       20.115        0.047      340.706       14.911      861.662
09/13/2014  06:16:00     -100.658      -61.537       -3.380       46.355       26.387       21.409     2148.793      696.258      458.347        0.862        0.165      117.978       23.073        0.038      340.513       14.584      861.670
09/13/2014  06:17:00     -131.788      -42.872       -9.799       20.926       30.447       16.261      437.892      927.013      264.430        1.047        0.081      138.586       14.049        0.010      340.473       14.519      861.667
09/13/2014  06:18:00      -99.560      -41.292       -4.683       23.919       13.594       15.564      572.109      184.793      242.249        0.632        0.050      107.783       10.509        0.010      340.567       14.678      861.673
09/13/2014  06:19:00      -45.092      -48.386        2.674       35.666       24.954       19.003     1272.067      622.686      361.106        0.332        0.113       66.140       17.311        0.069      340.533       14.620      861.675
09/13/2014  06:20:00      -29.545      -61.157        8.093       27.084       25.424       21.430      733.532      646.381      459.231        0.326        0.092       67.919       17.855        0.069      340.629       14.782      861.686
09/13/2014  06:21:00      -64.290      -67.792        2.594       32.439       23.357       26.380     1052.317      545.568      695.893        0.551        0.115       93.429       13.969        0.022      340.570       14.683      861.701
09/13/2014  06:22:00      -71.723      -50.269        2.620       30.615       24.424       16.289      937.249      596.519      265.347        0.474        0.090       87.585       17.550        0.040      340.566       14.675      861.708
09/13/2014  06:23:00      -78.736      -25.176       -7.790       13.228       18.128       12.368      174.987      328.640      152.955        0.378        0.033       82.663       11.750        0.020      340.610       14.751      861.728
09/13/2014  06:24:00      -71.232      -52.496       -4.290       16.149       19.261       17.004      260.799      370.967      289.144        0.438        0.046       88.486       12.841        0.021      340.594       14.725      861.761
09/13/2014  06:25:00      -71.399      -50.903       -2.308       33.331       22.664       14.299     1110.980      513.648      204.470        0.476        0.091       87.687       17.660        0.041      340.559       14.665      861.777
09/13/2014  06:26:00      -96.612      -36.583       -6.862       13.398       17.549       10.146      179.497      307.984      102.946        0.565        0.030      103.307        5.996        0.003      340.585       14.709      861.769
09/13/2014  06:27:00      -97.318      -42.195      -12.593       11.873       11.664       10.979      140.971      136.042      120.543        0.590        0.020      106.072        4.232        0.002      340.617       14.760      861.775
09/13/2014  06:28:00      -78.844      -48.038       -8.738       19.087       12.758       10.807      364.323      162.770      116.796        0.462        0.032       92.326        6.764        0.005      340.542       14.634      861.794
09/13/2014  06:29:00      -62.760      -37.742       -3.438       11.923       11.302        8.863      142.168      127.740       78.557        0.286        0.017       73.234        5.958        0.007      340.569       14.681      861.806
09/13/2014  06:30:00      -68.121      -34.927      -10.060        9.324        9.572        7.097       86.937       91.626       50.374        0.310        0.011       76.553        2.550        0.001      340.542       14.635      861.820
09/13/2014  06:31:00      -87.263      -44.196      -16.776        9.980       12.516        8.181       99.599      156.661       66.922        0.509        0.016       97.816        5.288        0.003      340.478       14.526      861.834
09/13/2014  06:32:00     -112.762      -38.922      -15.616        8.423        8.683        9.487       70.939       75.394       90.004        0.736        0.012      119.290        3.348        0.001      340.384       14.367      861.824
09/13/2014  06:33:00     -102.715      -51.327      -12.138       21.994       19.659       13.017      483.718      386.490      169.443        0.719        0.052      114.825       13.349        0.014      340.352       14.312      861.834
09/13/2014  06:34:00      -22.409      -42.768        3.084       34.344       18.365       15.550     1179.516      337.268      241.802        0.205        0.088       48.283       17.147        0.126      340.460       14.497      861.830
09/13/2014  06:35:00      -24.806      -43.884        7.881       28.201       23.255       14.911      795.318      540.806      222.340        0.208        0.078       50.410       14.305        0.081      340.522       14.600      861.835
09/13/2014  06:36:00      -91.171      -54.888       -5.979       21.565       28.047       16.331      465.066      786.614      266.696        0.644        0.076      106.419       11.826        0.012      340.602       14.735      861.833
09/13/2014  06:37:00      -66.578      -44.256       -1.693       22.421       15.271        9.706      502.680      233.197       94.197        0.361        0.042       79.945        7.412        0.009      340.790       15.055      861.819
09/13/2014  06:38:00      -42.356      -37.974       -2.730       14.931       11.546       11.104      222.925      133.321      123.293        0.186        0.024       56.887       10.309        0.033      340.774       15.026      861.800
09/13/2014  06:39:00      -55.669      -43.016       -7.288       25.150       15.728       13.237      632.510      247.381      175.225        0.303        0.053       70.352        6.739        0.009      340.726       14.945      861.785
09/13/2014  06:40:00      -37.058      -31.200       -0.883       22.502       16.177       14.615      506.346      261.688      213.595        0.166        0.049       48.443       15.155        0.098      340.640       14.801      861.778
09/13/2014  06:41:00      -43.757      -50.737        0.184       31.088       23.359       19.073      966.455      545.664      363.792        0.318        0.094       66.999       15.306        0.052      340.658       14.830      861.770
09/13/2014  06:42:00      -93.411      -40.248       -9.697       20.946       13.996       11.200      438.753      195.900      125.434        0.560        0.038      101.713        7.936        0.006      340.602       14.736      861.779
09/13/2014  06:43:00      -78.280      -41.931        2.208       30.476       20.441       15.715      928.783      417.827      246.969        0.474        0.080       88.803       16.760        0.036      340.484       14.535      861.785
09/13/2014  06:44:00      -90.861      -48.858        0.869       36.569       22.296       19.241     1337.260      497.108      370.220        0.642        0.110      103.164       15.999        0.024      340.507       14.575      861.795
09/13/2014  06:45:00      -80.491      -52.178       -9.047       30.964       27.083       17.108      958.771      733.514      292.668        0.563        0.099       95.924       17.289        0.032      340.474       14.520      861.799
09/13/2014  06:46:00     -100.825      -54.730       -7.439       13.672       18.434       11.519      186.928      339.825      132.690        0.694        0.033      114.722        6.563        0.003      340.414       14.419      861.786
09/13/2014  06:47:00      -88.661      -39.894       -4.989       17.589       17.098        9.707      309.359      292.345       94.217        0.509        0.035       97.223        3.795        0.002      340.451       14.481      861.783
09/13/2014  06:48:00      -97.578      -40.184      -13.141       14.920        9.047        8.005      222.601       81.843       64.086        0.584        0.018      105.528        4.765        0.002      340.580       14.699      861.787
09/13/2014  06:49:00     -104.545      -46.027      -19.835       13.482       13.995       10.013      181.768      195.874      100.255        0.696        0.024      114.229        7.015        0.004      340.583       14.704      861.802
09/13/2014  06:50:00     -108.188      -40.055      -17.486       12.566       11.426       10.893      157.911      130.544      118.656        0.701        0.020      115.365        5.422        0.002      340.496       14.555      861.828
09/13/2014  06:51:00      -94.005      -47.878      -14.813       26.512       16.993       12.703      702.893      288.778      161.369        0.625        0.058      105.495       12.101        0.013      340.396       14.388      861.841
09/13/2014  06:52:00     -101.810      -56.322       -3.440       22.861       23.957       11.945      522.606      573.961      142.690        0.739        0.062      116.350        6.731        0.003      340.378       14.357      861.852
09/13/2014  06:53:00      -86.782      -46.221       -2.371       24.975       17.505       12.870      623.732      306.415      165.641        0.538        0.055       98.323       11.873        0.015      340.433       14.451      861.849
09/13/2014  06:54:00      -92.687      -37.673      -10.398       14.839       11.851       13.711      220.183      140.449      187.978        0.533        0.027      100.051        8.629        0.007      340.431       14.447      861.851
09/13/2014  06:55:00     -116.643      -60.822      -14.803       15.897       14.896       12.854      252.725      221.889      165.213        0.908        0.032      131.548        9.041        0.005      340.378       14.359      861.864
09/13/2014  06:56:00     -121.436      -55.938       -5.348       20.047       22.474       11.361      401.893      505.100      129.062        0.947        0.052      133.700        4.320        0.001      340.404       14.401      861.883
09/13/2014  06:57:00      -91.693      -38.409       -5.725       24.800       15.051        9.281      615.057      226.527       86.130        0.542        0.046       99.413       10.526        0.011      340.526       14.608      861.898
09/13/2014  06:58:00      -31.336      -42.408       -4.669       17.109        7.988        6.900      292.703       63.806       47.608        0.160        0.020       52.729        4.507        0.007      340.696       14.895      861.892
09/13/2014  06:59:00      -42.432      -46.284       -2.723       16.999       11.461       13.285      288.971      131.344      176.499        0.227        0.030       62.791       11.162        0.032      340.698       14.898      861.894
09/13/2014  07:00:00      -97.691      -41.855      -11.407       14.507        9.836        5.870      210.459       96.744       34.458        0.588        0.017      106.280        3.834        0.001      340.564       14.673      861.897
09/13/2014  07:01:00     -105.582      -47.879      -11.549       21.127       19.824       10.712      446.348      392.983      114.737        0.726        0.048      115.931       10.637        0.008      340.466       14.506      861.902
09/13/2014  07:02:00      -98.256      -40.988       -7.206        9.037       11.245        7.605       81.670      126.439       57.842        0.583        0.013      106.462        5.236        0.002      340.386       14.371      861.910
09/13/2014  07:03:00      -96.588      -42.709       -3.911       14.752       14.310       11.061      217.629      204.768      122.343        0.586        0.027      105.610        7.405        0.005      340.434       14.453      861.924
09/13/2014  07:04:00     -130.477      -65.955        1.651       28.464       19.623       13.848      810.206      385.055      191.772        1.138        0.069      146.200       13.272        0.008      340.415       14.420      861.952
09/13/2014  07:05:00     -102.871      -70.710       -0.884       35.434       25.991       17.555     1255.593      675.545      308.178        0.891        0.112      124.829       12.361        0.010      340.358       14.323      861.978
09/13/2014  07:06:00      -59.442      -37.742        6.411       40.737       20.867       17.959     1659.468      435.428      322.540        0.371        0.121       70.411       20.031        0.081      340.504       14.570      861.985
09/13/2014  07:07:00      -35.438      -22.541        3.578       34.125       23.876       16.914     1164.537      570.071      286.098        0.190        0.101       41.999       15.019        0.128      340.481       14.532      861.972
09/13/2014  07:08:00      -56.540      -18.450        1.539       44.042       18.898       12.497     1939.673      357.123      156.182        0.300        0.123       59.474       20.496        0.119      340.545       14.641      861.954
09/13/2014  07:09:00     -103.440      -31.227       -6.395       18.557       18.782       13.070      344.359      352.761      170.818        0.629        0.043      108.050       11.143        0.011      340.466       14.504      861.957
09/13/2014  07:10:00      -67.850      -36.400       -1.232       12.297       10.968        7.308      151.226      120.287       53.404        0.313        0.016       76.997        6.846        0.008      340.485       14.538      861.966
09/13/2014  07:11:00      -91.811      -38.508       -6.237       20.897       15.199       10.956      436.703      231.024      120.031        0.537        0.039       99.560       12.228        0.015      340.507       14.576      861.979
09/13/2014  07:12:00     -109.605      -63.822      -11.777       17.453       16.939       15.200      304.615      286.914      231.049        0.852        0.041      126.833        9.784        0.006      340.422       14.432      861.998
09/13/2014  07:13:00      -85.351      -36.658       -3.697       22.249       15.060       11.734      495.016      226.790      137.685        0.475        0.043       92.890       11.168        0.014      340.449       14.476      862.012
09/13/2014  07:14:00      -80.140      -21.505       -4.999       17.046       17.327        9.011      290.582      300.218       81.191        0.379        0.034       82.975        7.236        0.008      340.517       14.592      862.015
09/13/2014  07:15:00      -76.117      -22.863       -5.212       19.102       20.576       14.234      364.893      423.392      202.613        0.367        0.050       79.477       10.809        0.018      340.490       14.546      862.026
09/13/2014  07:16:00      -37.943      -21.845        0.868       18.684       18.802       11.623      349.091      353.499      135.104        0.138        0.042       43.782        9.456        0.047      340.529       14.613      862.023
09/13/2014  07:17:00      -51.963      -18.388       -2.807       23.968       14.820       10.128      574.463      219.626      102.578        0.197        0.045       55.121        8.140        0.022      340.569       14.681      862.023
09/13/2014  07:18:00      -43.797      -32.217        1.050       32.346       27.839       14.659     1046.278      774.992      214.894        0.250        0.102       54.371        5.541        0.010      340.623       14.772      862.020
09/13/2014  07:19:00      -54.823      -52.672        3.277       23.687       19.738       19.288      561.069      389.585      372.033        0.356        0.066       76.026       12.177        0.026      340.648       14.814      862.038
09/13/2014  07:20:00      -12.196      -35.051       15.694       28.758       26.081       20.077      827.017      680.200      403.105        0.177        0.096       37.112       18.239        0.242      340.722       14.939      862.061
09/13/2014  07:21:00      -53.669      -28.458        1.943       39.413       22.815       14.255     1553.362      520.510      203.206        0.299        0.114       60.747       21.921        0.130      340.650       14.818      862.074
09/13/2014  07:22:00      -68.310      -46.126       -7.361       20.323       30.963       14.170      413.011      958.720      200.789        0.421        0.079       82.425        8.522        0.011      340.574       14.688      862.083
09/13/2014  07:23:00      -66.182      -11.041       -0.311       34.722       24.874       14.235     1205.628      618.704      202.639        0.326        0.101       67.096       15.771        0.055      340.627       14.779      862.102
09/13/2014  07:24:00      -50.777        0.058       -0.828       25.197       19.806       11.997      634.874      392.293      143.929        0.187        0.059       50.777       11.953        0.055      340.629       14.781      862.097
09/13/2014  07:25:00      -32.335      -17.563       -2.946       16.243       14.677        8.640      263.844      215.402       74.655        0.096        0.028       36.797        4.592        0.016      340.722       14.939      862.101
09/13/2014  07:26:00      -63.533      -29.277       -6.938       19.662       15.689       11.657      386.591      246.140      135.881        0.286        0.038       69.954        6.179        0.008      340.780       15.038      862.113
09/13/2014  07:27:00      -78.615      -14.449       -6.333       26.344       17.182       12.058      694.023      295.208      145.407        0.378        0.057       79.932       12.167        0.023      340.811       15.088      862.113
09/13/2014  07:28:00      -45.516      -20.925       -7.830       12.308       11.145        7.001      151.492      124.213       49.009        0.145        0.016       50.096        4.103        0.007      340.787       15.050      862.130
09/13/2014  07:29:00      -33.894      -23.314       -1.972       14.361       12.084       10.350      206.228      146.032      107.132        0.108        0.023       41.138        7.077        0.030      340.812       15.092      862.149
09/13/2014  07:30:00      -18.504       -6.936       -4.427       14.355        6.941        5.175      206.080       48.173       26.779        0.035        0.014       19.761        5.607        0.080      340.901       15.241      862.155
09/13/2014  07:31:00       -1.138       -8.299       -3.845        4.836        7.530        4.302       23.390       56.694       18.511        0.009        0.005        8.377        3.957        0.223      341.145       15.655      862.161
09/13/2014  07:32:00        5.816       12.274       12.544       10.488       13.314       13.556      109.992      177.263      183.769        0.041        0.024       13.582        9.967        0.539      341.117       15.608      862.162
09/13/2014  07:33:00       10.136       12.848       24.855       19.971       13.570       15.662      398.846      184.150      245.284        0.086        0.041       16.366       11.169        0.466      341.168       15.695      862.148
09/13/2014  07:34:00       10.782        9.643       20.433       19.723       11.802       13.253      389.000      139.283      175.630        0.067        0.035       14.466        9.784        0.457      341.196       15.741      862.155
09/13/2014  07:35:00        1.349        7.156       19.009        6.656        9.526        4.609       44.308       90.754       21.240        0.029        0.008        7.282        3.916        0.289      341.318       15.947      862.150
09/13/2014  07:36:00       -2.009        5.579        2.933       11.469        7.886        8.594      131.538       62.188       73.862        0.016        0.013        5.930        5.990        1.021      341.195       15.741      862.149
09/13/2014  07:37:00      -51.379      -25.355       -7.092       19.006       12.070        7.353      361.240      145.684       54.072        0.195        0.028       57.295        2.929        0.003      341.029       15.457      862.152
09/13/2014  07:38:00      -65.866      -33.450       -5.269       21.541       18.668       13.637      464.021      348.512      185.966        0.324        0.050       73.873       10.957        0.022      340.949       15.321      862.144
09/13/2014  07:39:00       -6.699      -21.282       10.621       19.225       13.571       12.847      369.604      184.180      165.033        0.066        0.036       22.311       10.541        0.223      341.019       15.443      862.139
09/13/2014  07:40:00      -22.653      -25.594        4.049       14.787       11.023       10.172      218.668      121.508      103.464        0.081        0.022       34.179       10.198        0.089      341.014       15.431      862.122
09/13/2014  07:41:00      -26.367      -33.031        6.788       28.218       17.145       16.337      796.251      293.963      266.894        0.159        0.068       42.264       16.659        0.155      340.966       15.352      862.131
09/13/2014  07:42:00      -41.470      -51.679       -4.799       10.973       15.211        8.489      120.396      231.360       72.057        0.242        0.021       66.261        6.863        0.011      341.036       15.471      862.134
09/13/2014  07:43:00      -17.019      -28.119       -2.446       11.590       15.211       10.195      134.334      231.364      103.938        0.078        0.023       32.869        4.870        0.022      341.158       15.675      862.145
09/13/2014  07:44:00      -34.962      -24.079      -10.835       27.228       14.863       10.920      741.376      220.910      119.236        0.150        0.054       42.452       13.413        0.100      341.239       15.815      862.167
09/13/2014  07:45:00      -59.926      -41.343       -0.112       33.364       17.198       15.770     1113.132      295.785      248.680        0.348        0.083       72.804       15.927        0.048      341.211       15.767      862.185
09/13/2014  07:46:00      -73.271      -61.458        2.360       28.864       23.041       15.058      833.118      530.891      226.732        0.537        0.080       95.634       13.863        0.021      341.159       15.678      862.199
09/13/2014  07:47:00      -65.933      -64.411       -1.581       29.517       24.946       12.786      871.244      622.300      163.485        0.508        0.083       92.174       12.201        0.018      341.140       15.647      862.197
09/13/2014  07:48:00      -32.199      -60.902        0.556       34.577       28.932       18.886     1195.586      837.071      356.682        0.357        0.119       68.890       14.553        0.045      341.201       15.750      862.207
09/13/2014  07:49:00      -56.514      -98.433       -2.066       20.053       36.870       13.920      402.123     1359.382      193.762        0.742        0.098      113.503       15.006        0.017      341.217       15.779      862.207
09/13/2014  07:50:00      -48.281     -118.603       -5.189       18.138       32.340       13.072      328.980     1045.888      170.866        0.898        0.077      128.054       10.581        0.007      341.284       15.890      862.218
09/13/2014  07:51:00      -29.117      -53.485       -0.815       17.762       30.790       15.051      315.482      948.030      226.537        0.260        0.075       60.897       16.747        0.076      341.353       16.008      862.209
09/13/2014  07:52:00      -30.986      -39.365       -2.960       27.669       32.928       19.889      765.583     1084.267      395.561        0.238        0.112       50.097       10.692        0.046      341.418       16.118      862.211
09/13/2014  07:53:00      -66.546      -73.248      -11.139       39.048       28.795       21.944     1524.746      829.180      481.537        0.638        0.142       98.963       12.559        0.016      341.391       16.072      862.209
09/13/2014  07:54:00      -43.400      -47.875       -4.317       40.386       30.115       20.131     1631.021      906.940      405.255        0.357        0.147       64.619       19.799        0.094      341.411       16.106      862.227
09/13/2014  07:55:00      -38.571      -58.866        1.579       41.258       36.927       23.694     1702.261     1363.617      561.421        0.429        0.181       70.377       14.536        0.043      341.463       16.193      862.238
09/13/2014  07:56:00      -37.038      -56.579        0.642       34.953       43.871       25.713     1221.734     1924.671      661.150        0.419        0.190       67.624       22.326        0.109      341.440       16.153      862.238
09/13/2014  07:57:00      -90.356      -68.918      -10.413       42.655       20.773       14.886     1819.475      431.525      221.592        0.775        0.124      113.639       16.443        0.021      341.352       16.004      862.237
09/13/2014  07:58:00      -78.648     -103.739       -6.468       19.557       24.665       12.841      382.486      608.383      164.880        0.907        0.058      130.182       10.065        0.006      341.318       15.947      862.231
09/13/2014  07:59:00      -60.980      -90.109       -9.736       20.147       22.583       13.949      405.891      509.974      194.585        0.652        0.056      108.803       10.052        0.009      341.401       16.087      862.237
09/13/2014  08:00:00      -64.919      -70.626      -10.354       24.698       16.126       13.462      610.008      260.052      181.237        0.518        0.053       95.930       15.540        0.026      341.432       16.142      862.233
09/13/2014  08:01:00      -59.284      -59.330       -7.869       35.978       24.603       16.175     1294.442      605.299      261.634        0.463        0.108       83.873       18.854        0.051      341.502       16.257      862.229
09/13/2014  08:02:00      -60.723      -59.061       -4.490       38.384       35.620       18.981     1473.307     1268.763      360.291        0.515        0.155       84.708       20.278        0.057      341.545       16.331      862.233
09/13/2014  08:03:00      -75.978      -86.873       -7.136       23.316       24.752       12.636      543.626      612.658      159.657        0.734        0.066      115.411       12.878        0.012      341.566       16.366      862.227
09/13/2014  08:04:00      -75.358      -92.695       -6.869       33.621       32.074       19.812     1130.362     1028.753      392.515        0.843        0.128      119.462       18.495        0.024      341.589       16.406      862.230
09/13/2014  08:05:00      -41.790      -79.939       -6.425       32.985       25.925       19.505     1087.978      672.097      380.428        0.516        0.107       90.203       13.162        0.021      341.622       16.464      862.226
09/13/2014  08:06:00      -16.626      -44.496       -6.139       21.036       26.051       13.728      442.508      678.645      188.453        0.180        0.065       47.501        9.884        0.043      341.720       16.630      862.216
09/13/2014  08:07:00      -62.107      -71.049       -4.206       12.595       18.054       11.285      158.628      325.931      127.355        0.477        0.031       94.368        8.292        0.008      341.724       16.636      862.209
09/13/2014  08:08:00      -30.354      -13.774       -8.690       18.891       21.475       13.961      356.861      461.157      194.918        0.110        0.051       33.333       12.974        0.151      341.834       16.822      862.211
09/13/2014  08:09:00      -25.662      -52.527        1.613       13.098       30.496        9.997      171.568      930.027       99.942        0.231        0.060       58.460        9.932        0.029      341.816       16.791      862.209
09/13/2014  08:10:00      -32.626      -80.987       -3.445       11.089       12.762        7.332      122.973      162.876       53.765        0.399        0.017       87.312        5.044        0.003      341.762       16.702      862.218
09/13/2014  08:11:00      -43.296      -93.524       -9.704       26.092       13.287       15.614      680.774      176.534      243.808        0.591        0.055      103.060        5.928        0.003      341.878       16.897      862.224
09/13/2014  08:12:00      -41.678      -87.409       -6.805       17.193       20.040       15.145      295.601      401.590      229.358        0.517        0.046       96.837       10.432        0.012      341.946       17.011      862.218
09/13/2014  08:13:00      -51.337      -90.905       -2.160       32.484       27.667       18.582     1055.224      765.448      345.293        0.653        0.108      104.399       11.948        0.013      341.938       16.997      862.213
09/13/2014  08:14:00      -29.978      -23.621        1.492       19.424       12.563       10.078      377.305      157.836      101.557        0.105        0.032       38.166        6.034        0.025      342.098       17.269      862.208
09/13/2014  08:15:00      -38.800      -18.466       -0.741       22.335       20.231       14.079      498.857      409.299      198.218        0.148        0.055       42.970        9.467        0.049      342.216       17.468      862.207
09/13/2014  08:16:00      -51.957      -36.880       -3.671       13.796        9.997       10.175      190.325       99.942      103.523        0.223        0.020       63.716        4.822        0.006      342.128       17.320      862.204
09/13/2014  08:17:00      -35.968       -9.673       -7.505       19.979       17.070       11.671      399.168      291.373      136.205        0.114        0.041       37.246        8.848        0.056      342.197       17.440      862.194
09/13/2014  08:18:00      -33.127      -13.819      -14.089       10.432       18.342       11.485      108.829      336.447      131.909        0.103        0.029       35.894       11.262        0.098      342.187       17.420      862.183
09/13/2014  08:19:00      -25.375      -16.401       -0.215       23.677       29.839       13.837      560.590      890.352      191.456        0.128        0.082       30.214       13.418        0.197      342.435       17.843      862.179
09/13/2014  08:20:00       49.566      -89.539       -7.185       22.397       38.924       19.542      501.633     1515.045      381.892        0.646        0.120      102.343       10.561        0.011      342.514       17.977      862.181
09/13/2014  08:21:00       10.195      -11.361       40.351       20.560       41.983       27.768      422.725     1762.574      771.057        0.241        0.148       15.264       28.184        3.409      342.869       18.581      862.190
09/13/2014  08:22:00      -38.150       -9.278        9.379       22.464       19.114       17.708      504.609      365.346      313.562        0.141        0.059       39.262       17.193        0.192      342.639       18.188      862.210
09/13/2014  08:23:00      -27.170       11.754       17.773       18.587       26.081       22.168      345.472      680.216      491.400        0.135        0.076       29.603       19.886        0.451      342.850       18.549      862.206
09/13/2014  08:24:00      -28.647        3.413       11.428       14.346       14.273       23.266      205.812      203.714      541.325        0.096        0.048       28.850       17.994        0.389      342.624       18.163      862.193
09/13/2014  08:25:00      -35.984       -2.580       -6.591       11.512       10.969        8.896      132.520      120.314       79.136        0.084        0.017       36.076        7.100        0.039      342.392       17.770      862.185
09/13/2014  08:26:00      -22.913       -1.363        0.803       15.390        8.885        8.291      236.847       78.951       68.744        0.046        0.019       22.954        7.758        0.114      342.550       18.037      862.181
09/13/2014  08:27:00      -17.539       12.238       17.333       22.753       19.248       16.141      517.703      370.492      260.522        0.095        0.057       21.387       13.493        0.398      343.110       18.992      862.177
09/13/2014  08:28:00      -12.032      -22.787        7.881       19.866       22.329       11.677      394.643      498.565      136.362        0.088        0.051       25.769       11.612        0.203      342.954       18.727      862.176
09/13/2014  08:29:00      -38.197      -41.309       -3.526        9.747        8.773        6.746       95.013       76.957       45.513        0.170        0.011       56.262        3.452        0.004      342.396       17.777      862.176
09/13/2014  08:30:00      -34.079      -23.805       -7.654       11.783       26.609       10.199      138.841      708.054      104.020        0.137        0.048       41.570       13.463        0.105      342.461       17.887      862.165
09/13/2014  08:31:00      -21.749        2.798       -5.592       28.371       23.328       20.793      804.926      544.179      432.357        0.115        0.089       21.928       14.112        0.414      342.880       18.600      862.158
09/13/2014  08:32:00      -60.462      -35.575       -3.314       30.164       20.537       17.019      909.862      421.782      289.634        0.328        0.081       70.151       16.237        0.054      342.548       18.035      862.155
09/13/2014  08:33:00      -21.823      -14.839       30.712       26.731       50.830       27.779      714.569     2583.651      771.668        0.285        0.203       26.390       27.872        1.115      343.116       19.002      862.157
09/13/2014  08:34:00      -57.913      -21.380        3.563       28.111       21.554       20.493      790.221      464.562      419.955        0.275        0.084       61.734       18.643        0.091      342.732       18.348      862.165
09/13/2014  08:35:00      -35.621      -25.962        5.483       37.107       21.767       21.929     1376.928      473.819      480.894        0.215        0.117       44.078       24.860        0.318      342.904       18.641      862.169
09/13/2014  08:36:00      -26.495      -12.640       12.225       20.384       21.580       20.966      415.519      465.708      439.572        0.117        0.066       29.356       19.496        0.441      343.114       18.999      862.158
09/13/2014  08:37:00      -13.482       20.755       38.885       17.840       14.345       17.475      318.279      205.773      305.389        0.148        0.041       24.749       13.166        0.283      343.439       19.553      862.149
09/13/2014  08:38:00      -58.839       -0.631       -2.098       22.649       23.714       16.976      512.997      562.374      288.189        0.241        0.068       58.843       14.979        0.065      342.870       18.582      862.141
09/13/2014  08:39:00      -59.265      -29.177       -2.908       31.124       24.712       19.679      968.725      610.673      387.264        0.317        0.098       66.058       17.707        0.072      342.993       18.789      862.133
09/13/2014  08:40:00      -63.622      -41.648        1.932       28.382       26.588       16.835      805.562      706.914      283.413        0.379        0.090       76.042       17.406        0.052      342.836       18.525      862.135
09/13/2014  08:41:00      -57.574      -29.239        4.907       40.459       18.866       14.536     1636.957      355.915      211.286        0.320        0.110       64.573       19.805        0.094      342.945       18.709      862.135
09/13/2014  08:42:00      -22.904      -54.176       -6.630       17.197       22.176       14.510      295.724      491.792      210.546        0.225        0.050       58.819        7.983        0.018      342.812       18.482      862.143
09/13/2014  08:43:00      -26.178      -25.381       -3.697       23.496       11.947       13.304      552.052      142.724      177.003        0.111        0.044       36.462        7.555        0.043      342.878       18.598      862.145
09/13/2014  08:44:00      -56.554      -10.028       10.954       29.372       27.661       20.048      862.688      765.126      401.915        0.272        0.101       57.437       19.425        0.114      343.040       18.873      862.140
09/13/2014  08:45:00      -53.724      -36.777       -0.088       26.641       29.504       15.784      709.735      870.468      249.136        0.303        0.091       65.106       19.170        0.087      343.126       19.020      862.133
09/13/2014  08:46:00      -46.483      -36.305        4.770       26.194       22.439       12.939      686.102      503.497      167.430        0.243        0.068       58.980       13.994        0.056      343.079       18.938      862.126
09/13/2014  08:47:00      -36.915      -52.916       -4.133       24.404       21.936       15.592      595.553      481.207      243.117        0.275        0.066       64.520       17.843        0.076      343.085       18.949      862.115
09/13/2014  08:48:00      -56.487      -48.765       -8.060       14.371       19.319       12.267      206.531      373.235      150.479        0.318        0.037       74.624        8.302        0.012      343.022       18.842      862.104
09/13/2014  08:49:00      -42.530      -43.844        0.239       21.881       18.486       16.351      478.796      341.747      267.356        0.241        0.054       61.083       16.695        0.075      343.257       19.242      862.099
09/13/2014  08:50:00      -69.919      -17.292       -9.807       25.470       32.762       14.463      648.713     1073.335      209.181        0.361        0.097       72.025        8.704        0.015      343.133       19.030      862.099
09/13/2014  08:51:00      -60.442      -10.296       -4.694       15.975       20.050       11.741      255.185      402.005      137.858        0.229        0.040       61.313       11.184        0.033      343.167       19.089      862.094
09/13/2014  08:52:00      -68.468      -35.345       -1.919       31.050       20.715       11.260      964.082      429.103      126.781        0.373        0.076       77.053        9.389        0.015      343.225       19.186      862.087
09/13/2014  08:53:00      -65.570      -33.612       -1.633       30.723       21.780       17.430      943.896      474.369      303.818        0.358        0.086       73.683       15.341        0.043      343.348       19.396      862.077
09/13/2014  08:54:00      -68.329      -43.866       -6.765       43.909       21.072       13.548     1928.029      444.045      183.544        0.460        0.128       81.198        6.482        0.006      343.329       19.365      862.082
09/13/2014  08:55:00      -59.151      -51.924       -2.975       22.638       18.440       14.963      512.468      340.031      223.901        0.364        0.054       78.709       15.335        0.038      343.239       19.211      862.087
09/13/2014  08:56:00      -49.662      -60.324       -5.759       18.369       17.828       13.544      337.414      317.834      183.441        0.349        0.042       78.137        8.822        0.013      343.263       19.250      862.099
09/13/2014  08:57:00      -34.510      -75.221       -3.170       17.363       26.262       10.472      301.469      689.690      109.666        0.398        0.055       82.759       12.143        0.022      343.221       19.179      862.100
09/13/2014  08:58:00      -32.266      -18.155       -1.974       12.678       11.465        8.778      160.724      131.444       77.046        0.087        0.018       37.023        9.524        0.066      343.480       19.622      862.100
09/13/2014  08:59:00      -18.366        0.916       -2.915        8.970       13.652       12.410       80.466      186.377      154.002        0.038        0.021       18.388        5.601        0.093      343.854       20.259      862.102
09/13/2014  09:00:00      -44.713        0.776       -1.739       23.345       23.010       23.414      544.972      529.457      548.228        0.181        0.081       44.719       20.893        0.218      343.885       20.312      862.098
09/13/2014  09:01:00      -36.649        8.585       -2.542       24.658       21.595       19.834      608.019      466.352      393.373        0.145        0.073       37.641       14.461        0.148      343.879       20.303      862.088
09/13/2014  09:02:00       24.712      -54.893       -0.849       35.041       51.340       32.256     1227.842     2635.770     1040.455        0.426        0.245       60.199       32.399        0.290      343.957       20.436      862.084
09/13/2014  09:03:00       27.841       34.243       43.206       45.276       32.981       37.783     2049.872     1087.764     1427.529        0.419        0.228       44.133       32.511        0.543      344.113       20.703      862.077
09/13/2014  09:04:00       -7.481        3.048       39.287       23.394       32.083       28.866      547.270     1029.294      833.228        0.201        0.120        8.078       25.251        9.771      344.630       21.585      862.077
09/13/2014  09:05:00       -3.008       29.507       54.300       20.910       38.814       23.283      437.229     1506.525      542.096        0.316        0.124       29.660       22.091        0.555      344.260       20.954      862.078
09/13/2014  09:06:00      -13.394       -3.251       43.256       17.141       22.831       17.110      293.799      521.255      292.750        0.158        0.055       13.783       10.741        0.607      344.609       21.550      862.085
09/13/2014  09:07:00        6.473       35.909       45.850       25.419       21.750       16.044      646.129      473.061      257.422        0.240        0.069       36.488       13.159        0.130      344.101       20.682      862.099
09/13/2014  09:08:00       -2.429       25.381       47.322       29.273       36.859       21.154      856.895     1358.595      447.505        0.278        0.133       25.497       20.724        0.661      344.687       21.682      862.106
09/13/2014  09:09:00       -5.596       38.172       73.645       27.350       30.667       16.615      748.003      940.436      276.044        0.444        0.098       38.580       17.392        0.203      344.747       21.785      862.108
09/13/2014  09:10:00       12.601       37.482       62.466       26.434       47.044       30.999      698.761     2213.105      960.967        0.467        0.194       39.543       30.952        0.613      344.425       21.234      862.105
09/13/2014  09:11:00       34.061      -17.995       47.703       39.566       57.644       33.139     1565.455     3322.781     1098.183        0.487        0.299       38.522       27.698        0.517      344.557       21.459      862.108
09/13/2014  09:12:00        5.364       43.274       52.131       23.218       30.010       25.424      539.077      900.613      646.392        0.335        0.104       43.605       22.140        0.258      344.538       21.429      862.108
09/13/2014  09:13:00        7.958       35.755       54.223       30.738       29.517       27.929      944.819      871.252      780.008        0.344        0.130       36.630       15.363        0.176      344.784       21.849      862.104
09/13/2014  09:14:00       -2.247        0.140       48.164       23.681       41.521       24.772      560.793     1724.011      613.663        0.261        0.145        2.252       24.882      122.108      344.760       21.808      862.112
09/13/2014  09:15:00      -43.964      -21.200       11.661       36.443       28.195       23.811     1328.076      794.973      566.975        0.260        0.135       48.808       19.178        0.154      344.233       20.906      862.119
09/13/2014  09:16:00      -49.392      -24.690       11.657       31.841       36.604       24.010     1013.845     1339.842      576.493        0.306        0.147       55.220       21.515        0.152      344.289       21.004      862.125
09/13/2014  09:17:00      -17.954      -11.575       15.267       36.515       30.300       23.830     1333.330      918.110      567.868        0.175        0.141       21.361       24.075        1.270      344.790       21.861      862.127
09/13/2014  09:18:00      -44.994      -36.203        4.214       29.995       20.867       20.868      899.712      435.436      435.483        0.256        0.089       57.750       17.700        0.094      344.228       20.898      862.138
09/13/2014  09:19:00      -45.750      -55.885       -8.161       35.388       29.208       21.587     1252.309      853.106      465.986        0.393        0.129       72.223       24.650        0.116      344.072       20.630      862.139
09/13/2014  09:20:00      -81.579      -62.028       -3.977       16.269       20.445       14.122      264.680      417.981      199.440        0.570        0.044      102.482       10.986        0.011      343.849       20.251      862.136
09/13/2014  09:21:00      -56.203      -50.850       -3.402       40.246       25.078       21.122     1619.703      628.890      446.135        0.422        0.135       75.793       18.594        0.060      344.119       20.711      862.123
09/13/2014  09:22:00       -2.985      -18.436       18.952       33.509       26.843       21.367     1122.856      720.558      456.534        0.150        0.115       18.677       18.306        0.961      344.793       21.864      862.117
09/13/2014  09:23:00      -17.264       -5.736        9.992       28.713       35.777       26.328      824.420     1279.959      693.164        0.161        0.140       18.192       16.504        0.823      344.812       21.895      862.108
09/13/2014  09:24:00      -63.728      -31.011        0.071       45.004       25.228       23.937     2025.330      636.463      572.957        0.413        0.162       70.873       27.171        0.147      344.283       20.991      862.105
09/13/2014  09:25:00      -44.135       -9.137       -8.595       13.093        9.636        9.463      171.424       92.849       89.555        0.123        0.018       45.071        5.943        0.017      343.997       20.505      862.115
09/13/2014  09:26:00      -36.801       24.224       -3.433       24.320       17.265       17.997      591.472      298.095      323.900        0.158        0.061       44.058       13.738        0.097      344.278       20.983      862.125
09/13/2014  09:27:00       15.143        4.583      -16.964       12.329       15.273        7.298      151.998      233.259       53.268        0.049        0.022       15.821        5.875        0.138      344.328       21.070      862.126
09/13/2014  09:28:00       -5.254       -5.659        8.502       31.575       11.331       15.057      996.975      128.396      226.721        0.074        0.068        7.722        4.901        0.403      344.464       21.302      862.128
09/13/2014  09:29:00      -61.308      -47.806       -0.708       24.594       24.872       15.961      604.876      618.611      254.750        0.376        0.074       77.744        5.789        0.006      344.217       20.880      862.132
09/13/2014  09:30:00      -22.983      -48.019        2.869       24.832       27.831       20.805      616.648      774.573      432.856        0.233        0.091       53.235       19.891        0.140      344.364       21.131      862.136
09/13/2014  09:31:00      -35.532      -55.330       -4.510       24.752       13.118       13.928      612.681      172.078      193.982        0.266        0.049       65.756        9.107        0.019      344.124       20.720      862.143
09/13/2014  09:32:00      -36.971      -10.041      -11.711       14.906       15.832       14.512      222.193      250.664      210.610        0.114        0.034       38.310        9.175        0.057      344.170       20.798      862.147
09/13/2014  09:33:00      -29.926      -17.472        3.754       25.541       23.898       21.615      652.358      571.112      467.212        0.145        0.085       34.653       13.154        0.144      344.331       21.075      862.153
09/13/2014  09:34:00      -37.343      -18.941        0.542       14.231       17.340       11.902      202.531      300.677      141.661        0.120        0.032       41.871        8.240        0.039      344.306       21.031      862.166
09/13/2014  09:35:00      -16.756      -29.599      -10.271       22.309       23.064       20.926      497.693      531.946      437.889        0.136        0.073       34.013       19.252        0.320      344.528       21.411      862.163
09/13/2014  09:36:00      -14.606       -2.465       15.122       21.679       13.296       21.953      469.964      176.780      481.926        0.079        0.056       14.813       18.448        1.551      345.135       22.451      862.182
09/13/2014  09:37:00      -18.348       14.819       33.899       17.493       22.073       18.909      306.009      487.197      357.536        0.143        0.058       23.585       14.500        0.378      345.132       22.445      862.184
09/13/2014  09:38:00      -74.443       11.990        3.767       35.268       20.187       19.813     1243.809      407.506      392.549        0.387        0.102       75.403       19.182        0.065      344.493       21.350      862.192
09/13/2014  09:39:00      -30.555        5.279        6.769       35.411       18.969       19.956     1253.964      359.810      398.232        0.151        0.101       31.008       16.874        0.296      344.708       21.720      862.191
09/13/2014  09:40:00      -39.536       -5.446       -8.616       25.004       25.367       14.311      625.181      643.462      204.796        0.157        0.074       39.909       11.608        0.085      344.537       21.425      862.185
09/13/2014  09:41:00      -36.102        5.292       12.109       38.228       29.000       28.810     1461.362      841.001      830.011        0.230        0.157       36.488       25.286        0.480      345.100       22.391      862.171
09/13/2014  09:42:00      -23.026      -54.133       -5.814       19.567       26.395       17.443      382.884      696.694      304.269        0.244        0.069       58.827       12.728        0.047      344.516       21.390      862.165
09/13/2014  09:43:00      -36.918      -29.000        2.554       35.942       21.124       21.887     1291.809      446.244      479.060        0.221        0.111       46.946       22.525        0.230      344.611       21.553      862.162
09/13/2014  09:44:00      -64.115      -15.952       -4.960       24.876       24.379       14.897      618.794      594.357      221.925        0.291        0.072       66.069       15.622        0.056      344.424       21.232      862.174
09/13/2014  09:45:00      -45.080      -21.382       -2.277       22.989       20.047       12.644      528.472      401.875      159.870        0.179        0.055       49.894       11.885        0.057      344.521       21.399      862.172
09/13/2014  09:46:00      -37.235      -63.352       -1.498       15.832       23.923       22.338      250.659      572.319      498.995        0.336        0.066       73.484       16.663        0.051      344.511       21.382      862.183
09/13/2014  09:47:00      -39.725      -38.160       -9.539       13.830       21.306        8.042      191.276      453.953       64.672        0.192        0.035       55.084        6.350        0.013      344.541       21.434      862.193
09/13/2014  09:48:00      -25.791      -25.944       -7.310       11.765       17.643       10.252      138.409      311.278      105.105        0.097        0.028       36.583        9.156        0.063      344.670       21.653      862.191
09/13/2014  09:49:00      -40.708       -7.188       -3.747       10.138       16.864        6.646      102.773      284.409       44.165        0.108        0.022       41.337        6.406        0.024      344.633       21.590      862.185
09/13/2014  09:50:00      -44.938        4.443        1.669       27.314       13.226       17.791      746.033      174.918      316.504        0.164        0.062       45.157       15.363        0.116      344.936       22.108      862.169
09/13/2014  09:51:00      -45.471       -9.017       -7.721       18.713       19.362       12.325      350.193      374.868      151.913        0.154        0.044       46.357        7.418        0.026      344.691       21.690      862.163
09/13/2014  09:52:00      -28.292       -8.556       10.273       17.140       14.257       12.375      293.774      203.271      153.141        0.081        0.033       29.557       12.141        0.169      345.078       22.352      862.147
09/13/2014  09:53:00      -39.868        8.440        6.469       17.265       20.266       17.378      298.096      410.725      301.995        0.136        0.051       40.751        8.397        0.042      344.973       22.172      862.140
09/13/2014  09:54:00        0.709       -8.862       30.182       29.147       43.657       25.755      849.547     1905.949      663.331        0.220        0.171        8.890       28.872       10.548      346.019       23.967      862.121
09/13/2014  09:55:00      -23.129      -33.414       -2.744       29.431       29.949       19.283      866.176      896.930      371.823        0.190        0.107       40.639       15.981        0.155      345.108       22.404      862.111
09/13/2014  09:56:00      -26.181      -12.531        7.156       24.855       36.981       22.330      617.764     1367.620      498.644        0.169        0.124       29.025        8.406        0.084      345.387       22.881      862.090
09/13/2014  09:57:00      -37.363      -11.130        9.816       28.713       18.914       19.643      824.415      357.751      385.847        0.159        0.078       38.985       13.169        0.114      345.414       22.929      862.086
09/13/2014  09:58:00      -23.200      -43.499        0.769       36.510       45.180       32.106     1332.969     2041.252     1030.785        0.342        0.220       49.299       25.082        0.259      345.426       22.948      862.072
09/13/2014  09:59:00      -37.629       -4.916       -7.114       31.918       24.268       16.608     1018.791      588.954      275.838        0.169        0.094       37.949       14.716        0.150      345.186       22.537      862.071
09/13/2014  10:00:00      -69.802       16.913        3.302       28.945       41.929       24.637      837.833     1758.039      606.964        0.419        0.160       71.822       13.868        0.037      344.885       22.021      862.066
09/13/2014  10:01:00      -24.153       29.876       21.581       29.492       21.663       26.925      869.797      469.280      724.956        0.200        0.103       38.418       15.064        0.154      345.347       22.813      862.062
09/13/2014  10:02:00       19.370       -8.358       35.213       26.032       36.510       28.233      677.657     1332.967      797.120        0.225        0.140       21.096       26.423        1.569      345.966       23.875      862.048
09/13/2014  10:03:00       -4.367       -1.208       39.512       19.711       29.674       23.995      388.518      880.553      575.770        0.171        0.092        4.531       16.981       14.048      345.989       23.914      862.032
09/13/2014  10:04:00      -15.715       23.564       54.895       12.836       24.706       18.299      164.775      610.368      334.871        0.246        0.056       28.323       15.082        0.284      346.006       23.944      862.025
09/13/2014  10:05:00      -20.568       23.010       28.309       24.579       25.316       25.367      604.137      640.914      643.474        0.182        0.094       30.863       17.699        0.329      345.678       23.380      862.002
09/13/2014  10:06:00       -1.951       12.298        4.089       17.773       13.990       21.554      315.883      195.715      464.565        0.057        0.049       12.452       13.727        1.215      345.863       23.697      861.991
09/13/2014  10:07:00      -28.570      -49.113        2.036       24.246       44.383       14.288      587.878     1969.827      204.149        0.300        0.138       56.818       15.473        0.074      345.427       22.950      861.968
09/13/2014  10:08:00      -34.655      -17.794       -6.537       27.193       27.622       21.115      739.466      762.991      445.842        0.175        0.097       38.956       10.342        0.070      345.346       22.810      861.958
09/13/2014  10:09:00      -61.024      -33.940       -0.329       49.913       25.840       25.168     2491.314      667.681      633.421        0.433        0.190       69.828       27.819        0.159      345.329       22.782      861.950
09/13/2014  10:10:00      -68.453      -36.259        3.077       38.472       29.762       19.959     1480.115      885.768      398.357        0.439        0.138       77.463       13.559        0.031      345.398       22.900      861.948
09/13/2014  10:11:00      -79.292      -26.182        0.785       25.195       24.213       19.037      634.775      586.280      362.412        0.428        0.079       83.502       13.726        0.027      345.173       22.514      861.947
09/13/2014  10:12:00      -67.629       -9.447       -3.220       24.031       24.031       12.896      577.470      577.507      166.294        0.300        0.066       68.285       14.133        0.043      345.216       22.587      861.938
09/13/2014  10:13:00      -60.301        3.633        1.203       28.865       17.442       16.678      833.213      304.208      278.155        0.253        0.071       60.410       14.741        0.060      345.282       22.702      861.933
09/13/2014  10:14:00      -36.301       11.387       11.035       26.206       17.712       16.691      686.777      313.714      278.601        0.142        0.064       38.045       11.161        0.086      345.539       23.143      861.918
09/13/2014  10:15:00      -35.704       13.249        7.192       34.552       14.732       21.192     1193.862      217.039      449.091        0.168        0.093       38.083       17.596        0.213      345.782       23.558      861.909
09/13/2014  10:16:00      -69.953       -7.027       -6.562       24.751       18.842       14.995      612.620      355.008      224.844        0.309        0.060       70.305       14.409        0.042      345.312       22.752      861.901
09/13/2014  10:17:00      -28.311      -13.235        5.802       23.709       14.885       14.474      562.123      221.575      209.498        0.100        0.050       31.252       13.738        0.193      345.625       23.290      861.887
09/13/2014  10:18:00      -13.962      -31.969       -1.372       14.695       11.488       11.913      215.949      131.970      141.917        0.085        0.024       34.885        6.900        0.039      345.249       22.642      861.887
09/13/2014  10:19:00      -23.582       -8.216       -1.170       14.636       20.935       10.533      214.204      438.281      110.948        0.069        0.038       24.972        8.409        0.113      345.518       23.104      861.869
09/13/2014  10:20:00       -3.674        8.800       14.173       19.643       16.859       22.393      385.839      284.242      501.439        0.073        0.059        9.536       11.074        1.349      346.372       24.571      861.865
09/13/2014  10:21:00      -18.427      -43.038       15.533       21.475       27.471       31.089      461.183      754.650      966.529        0.231        0.109       46.817       23.504        0.252      345.932       23.817      861.854
09/13/2014  10:22:00        4.001       34.810       67.056       32.213       38.008       19.655     1037.686     1444.573      386.306        0.430        0.143       35.040       16.709        0.227      346.461       24.725      861.863
09/13/2014  10:23:00       15.147       63.651       62.858       27.079       22.223       21.178      733.298      493.881      448.515        0.495        0.084       65.429       13.863        0.045      345.847       23.670      861.865
09/13/2014  10:24:00        3.620       46.263       46.552       15.669       34.316       23.481      245.515     1177.568      551.360        0.315        0.099       46.404       22.829        0.242      345.995       23.924      861.860
09/13/2014  10:25:00        3.758       22.873       -2.149       24.766       28.102       19.792      613.336      789.695      391.715        0.117        0.090       23.179        9.152        0.156      345.800       23.589      861.855
09/13/2014  10:26:00      -35.863       21.115       -6.456       35.022       20.073       16.326     1226.519      402.906      266.535        0.183        0.095       41.617       11.113        0.071      345.957       23.860      861.840
09/13/2014  10:27:00      -65.250        4.740       -5.074       37.227       26.930       21.819     1385.879      725.219      476.049        0.345        0.129       65.422       20.327        0.097      345.874       23.716      861.838
09/13/2014  10:28:00      -47.352      -11.381       -6.169       17.528       22.639       11.566      307.242      512.519      133.771        0.168        0.048       48.701        7.591        0.024      345.658       23.345      861.819
09/13/2014  10:29:00      -24.673       -4.307       -0.248       16.591       16.060       14.496      275.256      257.909      210.140        0.069        0.037       25.046        9.464        0.143      346.128       24.153      861.815
09/13/2014  10:30:00      -31.389      -24.485       -8.616       17.658       21.991       11.853      311.814      483.626      140.491        0.130        0.047       39.810        3.918        0.010      345.861       23.692      861.799
09/13/2014  10:31:00      -46.199      -22.053        2.773       24.492       25.742       19.907      599.871      662.676      396.278        0.214        0.083       51.193       13.685        0.071      345.972       23.886      861.795
09/13/2014  10:32:00      -25.055       14.482        2.369       18.919       15.158       15.222      357.939      229.759      231.724        0.083        0.041       28.939        6.457        0.050      346.093       24.093      861.785
09/13/2014  10:33:00       17.644       50.280       32.343       44.137       28.577       20.149     1948.031      816.637      405.968        0.353        0.159       53.286        9.404        0.031      346.257       24.375      861.783
09/13/2014  10:34:00       23.703       33.442       47.616       50.009       32.402       29.810     2500.912     1049.864      888.652        0.419        0.222       40.991       26.364        0.414      346.766       25.251      861.770
09/13/2014  10:35:00       41.811       42.532       20.033       43.294       32.943       32.166     1874.394     1085.272     1034.672        0.398        0.200       59.642       24.349        0.167      346.496       24.785      861.767
09/13/2014  10:36:00       30.756       16.705       55.859       42.774       57.665       34.552     1829.588     3325.211     1193.866        0.535        0.317       35.000       35.649        1.037      346.896       25.474      861.752
09/13/2014  10:37:00       10.198       32.007       53.310       32.639       54.304       43.411     1065.295     2948.927     1884.532        0.493        0.295       33.592       41.799        1.548      346.543       24.867      861.754
09/13/2014  10:38:00       13.384      -26.729       26.665       25.426       50.412       38.752      646.499     2541.365     1501.750        0.315        0.234       29.893       36.650        1.503      346.319       24.482      861.732
09/13/2014  10:39:00       -0.907      -70.241       -3.088       55.009       39.277       24.760     3025.963     1542.656      613.044        0.506        0.259       70.247       28.582        0.166      346.209       24.292      861.710
09/13/2014  10:40:00       30.923       32.200       38.362       51.461       46.005       27.640     2648.285     2116.504      763.955        0.450        0.276       44.644       26.034        0.340      346.445       24.698      861.694
09/13/2014  10:41:00       69.806       64.951       54.210       61.955       32.774       35.576     3838.418     1074.157     1265.657        0.910        0.309       95.349       33.896        0.126      346.501       24.793      861.680
09/13/2014  10:42:00       63.788       42.364       15.308       61.113       57.587       39.933     3734.850     3316.240     1594.621        0.737        0.432       76.574       22.238        0.084      346.204       24.284      861.678
09/13/2014  10:43:00       88.376      -58.290       -4.043       42.201       53.846       35.645     1780.939     2899.339     1270.553        0.859        0.298      105.868       28.203        0.071      345.957       23.860      861.685
09/13/2014  10:44:00       25.104      -31.909        3.175       34.104       24.060       24.253     1163.060      578.884      588.209        0.199        0.117       40.601       24.528        0.365      346.009       23.949      861.695
09/13/2014  10:45:00       -4.547        2.573       18.353       20.531       18.205       17.837      421.525      331.424      318.175        0.072        0.054        5.225       15.174        8.435      346.907       25.493      861.683
09/13/2014  10:46:00       -6.284       17.485       42.510       17.103       34.459       26.643      292.504     1187.417      709.875        0.217        0.109       18.580       21.695        1.363      347.120       25.860      861.677
09/13/2014  10:47:00       41.249       57.069       31.586       34.868       33.552       34.456     1215.769     1125.752     1187.243        0.474        0.176       70.415       25.937        0.136      346.755       25.231      861.676
09/13/2014  10:48:00       47.937       35.489       13.618       44.714       28.152       34.508     1999.337      792.562     1190.816        0.386        0.199       59.644       31.996        0.288      346.525       24.837      861.660
09/13/2014  10:49:00       29.737       60.463       16.404       34.999       42.984       30.842     1224.923     1847.616      951.224        0.442        0.201       67.380       26.476        0.154      346.711       25.154      861.655
09/13/2014  10:50:00       56.311       52.132       -1.990       23.781       28.805       36.857      565.513      829.728     1358.406        0.432        0.138       76.738       19.368        0.064      346.229       24.327      861.644
09/13/2014  10:51:00       17.267       31.487       19.263       27.851       29.542       22.485      775.677      872.749      505.579        0.191        0.108       35.910       17.396        0.235      346.642       25.036      861.638
09/13/2014  10:52:00       84.087       64.907       15.680       31.865       25.955       23.782     1015.397      673.657      565.606        0.689        0.113      106.224        6.742        0.004      346.142       24.179      861.634
09/13/2014  10:53:00       89.506       61.466        7.156       20.918       23.722       28.331      437.577      562.728      802.652        0.682        0.090      108.579        7.882        0.005      346.029       23.983      861.622
09/13/2014  10:54:00        8.717       54.819        6.356       31.221       27.486       20.511      974.750      755.501      420.687        0.264        0.108       55.508       16.260        0.086      346.322       24.486      861.622
09/13/2014  10:55:00       -8.560       69.183       -3.688       25.312       36.170       19.570      640.708     1308.276      382.979        0.360        0.117       69.711       13.054        0.035      346.264       24.387      861.614
09/13/2014  10:56:00        3.935       11.461       19.807       16.924       12.228       15.461      286.405      149.521      239.039        0.061        0.034       12.118       10.327        0.726      346.850       25.396      861.612
09/13/2014  10:57:00       -0.563       20.539       37.839       16.320       28.364       19.637      266.357      804.533      385.610        0.165        0.073       20.546       17.210        0.702      346.747       25.217      861.599
09/13/2014  10:58:00       17.640       44.544       56.928       32.829       33.036       24.284     1077.714     1091.407      589.725        0.415        0.138       47.909       20.825        0.189      346.538       24.858      861.609
09/13/2014  10:59:00       53.177       48.862       18.538       28.237       23.033       34.344      797.317      530.499     1179.537        0.403        0.125       72.217       19.231        0.071      346.265       24.388      861.600
09/13/2014  11:00:00       32.430       60.636       15.604       18.437       17.011       31.234      339.931      289.370      975.565        0.329        0.080       68.763       17.950        0.068      346.085       24.079      861.584
09/13/2014  11:01:00       23.813       46.033        6.605       30.069       18.217       22.090      904.136      331.846      487.954        0.223        0.086       51.827        8.598        0.028      346.154       24.199      861.571
09/13/2014  11:02:00       25.364       22.136       15.535       16.828       18.682       23.008      283.180      349.016      529.357        0.127        0.058       33.665       18.759        0.311      346.345       24.524      861.567
09/13/2014  11:03:00      -14.789       -6.570       10.389       11.992       37.737       15.883      143.816     1424.096      252.281        0.109        0.091       16.182       17.314        1.145      346.371       24.571      861.551
09/13/2014  11:04:00      -29.150      -60.471       -0.267       19.458       16.913       18.633      378.598      286.056      347.185        0.276        0.051       67.130       10.149        0.023      346.205       24.285      861.545
09/13/2014  11:05:00      -20.820      -40.786        8.113       17.936       24.803       22.029      321.689      615.200      485.280        0.179        0.071       45.793       17.289        0.143      346.290       24.430      861.545
09/13/2014  11:06:00      -25.332      -39.360        6.744       18.128       20.614       14.053      328.609      424.942      197.488        0.159        0.048       46.808        9.274        0.039      346.284       24.421      861.551
09/13/2014  11:07:00      -41.990       -0.512        8.698       20.365       22.763       14.422      414.722      518.137      207.981        0.149        0.057       41.993       10.811        0.066      346.310       24.464      861.551
09/13/2014  11:08:00      -22.969       -2.326       18.264       21.493       21.316       19.017      461.949      454.385      361.651        0.107        0.064       23.087       17.651        0.585      346.687       25.114      861.535
09/13/2014  11:09:00       -7.417       25.421       59.826       19.977       29.156       22.901      399.068      850.075      524.461        0.303        0.089       26.481       21.877        0.683      347.130       25.876      861.525
09/13/2014  11:10:00       31.032       13.042       29.741       31.247       16.139       20.045      976.379      260.457      401.796        0.183        0.082       33.661       16.213        0.232      346.751       25.223      861.504
09/13/2014  11:11:00        5.159       -3.559        3.870       12.794       14.272       14.179      163.696      203.692      201.051        0.031        0.028        6.268       11.678        3.471      346.695       25.129      861.483
09/13/2014  11:12:00        3.142       -0.671       28.378       21.194       28.603       18.644      449.177      818.142      347.591        0.122        0.081        3.213        5.420        2.846      347.210       26.015      861.468
09/13/2014  11:13:00       31.740       33.126        2.843       23.109       26.631       26.308      534.012      709.219      692.096        0.202        0.097       45.878       17.465        0.145      346.671       25.085      861.460
09/13/2014  11:14:00       42.322       68.383       -5.754       33.411       21.404       21.536     1116.297      458.137      463.806        0.427        0.102       80.420       14.750        0.034      346.624       25.005      861.457
09/13/2014  11:15:00       36.382       46.731       50.471       31.343       26.087       20.441      982.357      680.555      417.833        0.407        0.104       59.224       12.143        0.042      346.779       25.271      861.459
09/13/2014  11:16:00       32.867       21.190       15.840       24.623       19.834       22.798      606.289      393.406      519.742        0.165        0.076       39.106       17.856        0.208      346.720       25.169      861.459
09/13/2014  11:17:00       26.913       32.595       36.188       24.852       39.832       15.904      617.610     1586.557      252.952        0.278        0.123       42.269       10.093        0.057      346.965       25.592      861.456
09/13/2014  11:18:00      105.237       72.138       18.390       35.614       30.256       28.991     1268.335      915.446      840.456        0.982        0.151      127.588       18.455        0.021      346.565       24.904      861.453
09/13/2014  11:19:00      124.832       86.356       11.459       36.020       34.701       36.761     1297.471     1204.136     1351.361        1.351        0.193      151.791       25.282        0.028      346.517       24.821      861.446
09/13/2014  11:20:00      118.160       68.579        0.632       36.524       29.972       28.082     1333.997      898.297      788.627        1.084        0.151      136.620       22.361        0.027      346.634       25.020      861.439
09/13/2014  11:21:00       55.844       70.411        7.567       46.952       36.923       34.941     2204.533     1363.318     1220.873        0.646        0.239       89.868       29.967        0.111      346.794       25.299      861.432
09/13/2014  11:22:00       12.445       57.559        7.277       24.329       23.329       28.901      591.901      544.265      835.250        0.275        0.099       58.889       18.766        0.102      347.025       25.696      861.422
09/13/2014  11:23:00       15.943       55.566       -3.782       34.748       44.946       29.332     1207.393     2020.169      860.388        0.372        0.204       57.808       24.937        0.186      347.199       25.994      861.412
09/13/2014  11:24:00       26.802       14.816       33.501       25.818       17.667       23.204      666.583      312.122      538.441        0.179        0.076       30.624       12.928        0.178      347.588       26.665      861.412
09/13/2014  11:25:00       12.085        9.371        4.549       14.646       19.045       17.200      214.506      362.720      295.830        0.056        0.044       15.292        9.420        0.379      347.338       26.235      861.409
09/13/2014  11:26:00       -9.777       27.791        2.716       26.597       25.513       23.067      707.392      650.909      532.093        0.138        0.095       29.460       15.476        0.276      347.393       26.330      861.405
09/13/2014  11:27:00       -8.301       11.857       23.370       15.171       28.146       20.056      230.147      792.172      402.257        0.109        0.071       14.474       13.640        0.888      347.890       27.188      861.390
09/13/2014  11:28:00        0.692       -7.794       15.366       18.684       20.084       13.925      349.107      403.387      193.912        0.062        0.047        7.824        8.451        1.167      347.973       27.331      861.365
09/13/2014  11:29:00       37.867       -5.570       36.620       66.740       46.213       37.056     4454.232     2135.596     1373.124        0.538        0.398       38.274       38.407        1.007      347.501       26.516      861.355
09/13/2014  11:30:00        0.301        7.274       21.488       28.889       30.812       22.086      834.598      949.360      487.794        0.139        0.114        7.281       18.421        6.402      347.618       26.718      861.335
09/13/2014  11:31:00      -41.679        5.197       10.770       37.824       35.282       23.373     1430.630     1244.801      546.317        0.255        0.161       42.002       12.076        0.083      347.729       26.910      861.311
09/13/2014  11:32:00        9.511       19.307       23.495       25.907       31.484       20.659      671.176      991.264      426.809        0.155        0.104       21.522       15.855        0.543      348.153       27.642      861.292
09/13/2014  11:33:00        4.033       13.167       19.464       31.437       21.656       25.763      988.274      468.994      663.723        0.134        0.106       13.771       15.945        1.341      348.056       27.474      861.282
09/13/2014  11:34:00       90.830       63.198        9.050       54.761       43.089       34.268     2998.764     1856.663     1174.319        0.918        0.301      110.653       18.977        0.029      347.520       26.548      861.267
09/13/2014  11:35:00       58.130      112.909        2.730       61.706       66.773       41.673     3807.656     4458.683     1736.601        1.307        0.500      126.995       35.994        0.080      347.279       26.133      861.250
09/13/2014  11:36:00       52.812       55.206       14.574       43.907       40.964       43.523     1927.813     1678.032     1894.258        0.577        0.275       76.399       28.115        0.135      347.705       26.868      861.225
09/13/2014  11:37:00       29.944       32.467       33.678       41.953       42.760       32.700     1760.068     1828.394     1069.309        0.387        0.233       44.167       22.013        0.248      347.994       27.368      861.210
09/13/2014  11:38:00       35.361       62.241        7.019       35.182       41.616       35.540     1237.757     1731.870     1263.069        0.470        0.212       71.584       27.672        0.149      347.742       26.931      861.191
09/13/2014  11:39:00        8.979      -56.140       15.050       39.231       79.493       40.302     1539.087     6319.114     1624.274        0.647        0.474       56.854       39.443        0.481      347.757       26.957      861.174
09/13/2014  11:40:00      -14.742       19.114       63.543       23.115       39.223       31.586      534.299     1538.436      997.680        0.384        0.154       24.138       22.971        0.906      347.882       27.174      861.162
09/13/2014  11:41:00       88.422       81.266       26.025       50.382       37.007       40.943     2538.303     1369.552     1676.367        1.034        0.279      120.094       32.290        0.072      347.243       26.072      861.164
09/13/2014  11:42:00       37.906       44.072       21.225       35.227       31.621       31.203     1240.918      999.883      973.616        0.352        0.161       58.131       20.307        0.122      347.451       26.428      861.154
09/13/2014  11:43:00       73.442       64.574       40.245       33.208       26.818       37.579     1102.751      719.179     1412.155        0.721        0.162       97.793       16.202        0.027      347.312       26.191      861.148
09/13/2014  11:44:00       17.426       37.100       44.037       19.535       26.858       18.649      381.612      721.341      347.799        0.253        0.073       40.989       13.225        0.104      347.777       26.992      861.148
09/13/2014  11:45:00       27.578       34.901        5.783       43.517       28.547       26.668     1893.686      814.939      711.206        0.272        0.171       44.482       22.143        0.248      347.736       26.921      861.131
09/13/2014  11:46:00      -13.195       70.003        8.397       21.831       26.975       25.394      476.590      727.667      644.851        0.350        0.092       71.236       17.636        0.061      347.822       27.070      861.128
09/13/2014  11:47:00        0.581       22.574       29.843       20.827       23.172       19.624      433.753      536.919      385.116        0.138        0.068       22.582        9.609        0.181      348.336       27.958      861.105
09/13/2014  11:48:00       93.427       44.053        5.353       60.362       30.840       33.428     3643.615      951.126     1117.427        0.820        0.286      103.292       13.722        0.018      347.397       26.336      861.096
09/13/2014  11:49:00       79.675       60.887        3.257       60.366       36.494       32.070     3643.995     1331.848     1028.497        0.803        0.300      100.276       25.926        0.067      347.444       26.419      861.075
09/13/2014  11:50:00       42.148       28.498       40.462       51.325       52.413       45.289     2634.282     2747.108     2051.136        0.583        0.372       50.878       41.681        0.671      347.895       27.197      861.055
09/13/2014  11:51:00       67.191       85.105       67.604       48.466       46.189       50.564     2348.920     2133.403     2556.722        1.168        0.352      108.432       32.283        0.089      347.681       26.827      861.035
09/13/2014  11:52:00       55.949       66.430       67.735       35.804       36.708       29.795     1281.923     1347.492      887.723        0.782        0.176       86.852       18.300        0.044      347.514       26.538      861.023
09/13/2014  11:53:00       19.570       21.385       59.063       53.545       62.336       46.388     2867.069     3885.726     2151.888        0.662        0.445       28.988       33.031        1.298      348.084       27.522      860.991
09/13/2014  11:54:00       49.964       19.197       21.648       57.427       52.235       30.261     3297.894     2728.503      915.698        0.514        0.347       53.525       26.882        0.252      347.782       27.001      860.973
09/13/2014  11:55:00       12.147      -15.663       16.647       40.545       52.565       27.729     1643.912     2763.062      768.912        0.292        0.259       19.821       12.249        0.382      348.348       27.980      860.953
09/13/2014  11:56:00       26.716       19.730       65.795       50.874       81.485       45.087     2588.150     6639.771     2032.847        0.834        0.563       33.212       34.585        1.084      348.090       27.533      860.917
09/13/2014  11:57:00       30.826       -2.662       36.727       60.078       62.266       44.642     3609.404     3877.020     1992.923        0.589        0.474       30.941       30.896        0.997      348.359       27.998      860.912
09/13/2014  11:58:00       31.591      -63.729        9.142       43.579       55.936       40.100     1899.110     3128.870     1608.036        0.589        0.332       71.129       21.542        0.092      347.815       27.059      860.903
09/13/2014  11:59:00       36.612       -8.413       26.624       32.021       40.148       31.520     1025.344     1611.859      993.533        0.287        0.182       37.566       15.428        0.169      348.116       27.578      860.901
09/13/2014  12:00:00       64.922      -35.731       10.463       46.491       41.388       32.963     2161.452     1712.948     1086.547        0.528        0.248       74.105       18.935        0.065      347.669       26.805      860.883
09/13/2014  12:01:00       37.451      -26.934       23.350       42.114       47.887       41.108     1773.614     2293.140     1689.889        0.421        0.288       46.131       22.837        0.245      348.116       27.578      860.858
09/13/2014  12:02:00       79.359      -66.427       -1.659       38.875       49.390       33.887     1511.262     2439.417     1148.354        0.791        0.255      103.491       30.858        0.089      347.766       26.974      860.846
09/13/2014  12:03:00       72.628       69.132       21.075       57.795       68.731       54.340     3340.230     4723.926     2952.811        1.076        0.551      100.270       32.199        0.103      347.746       26.938      860.831
09/13/2014  12:04:00      129.119       66.844       38.035       91.064       60.217       52.764     8292.566     3626.145     2784.056        1.864        0.735      145.395       29.165        0.040      348.034       27.434      860.810
09/13/2014  12:05:00      211.281      137.175        8.984       44.005       47.944       37.793     1936.450     2298.598     1428.302        3.460        0.283      251.906       21.541        0.007      347.465       26.448      860.799
09/13/2014  12:06:00      186.896      132.253       28.358       55.961       37.506       42.337     3131.609     1406.704     1792.416        2.978        0.317      228.956       24.635        0.012      347.501       26.512      860.779
09/13/2014  12:07:00      157.380      105.139       20.305       48.970       46.604       43.657     2398.095     2171.902     1905.957        2.135        0.324      189.269       29.569        0.024      347.640       26.754      860.774
09/13/2014  12:08:00       62.588       24.615       53.145       68.676       40.477       49.385     4716.355     1638.381     2438.924        0.807        0.440       67.254       42.705        0.403      347.953       27.296      860.754
09/13/2014  12:09:00        5.466       -4.739       45.353       23.911       38.650       26.334      571.720     1493.826      693.485        0.243        0.138        7.234       22.737        9.878      348.382       28.039      860.740
09/13/2014  12:10:00       13.315       26.213        5.738       24.518       29.032       21.298      601.130      842.838      453.623        0.140        0.095       29.401       12.622        0.184      348.179       27.685      860.716
09/13/2014  12:11:00      142.785      104.013        1.320       65.142       60.501       52.292     4243.427     3660.343     2734.490        2.092        0.532      176.653       31.378        0.032      347.912       27.224      860.697
09/13/2014  12:12:00      150.076       70.445       -1.218       63.848       46.385       47.016     4076.585     2151.556     2210.544        1.796        0.422      165.787       27.430        0.027      347.682       26.828      860.688
09/13/2014  12:13:00       97.407       60.730        2.942       40.419       44.325       34.624     1633.666     1964.674     1198.820        0.899        0.240      114.788       20.044        0.030      347.960       27.308      860.673
09/13/2014  12:14:00       19.459       72.160       -2.660       61.906       37.889       26.157     3832.336     1435.568      684.197        0.577        0.298       74.738       18.072        0.058      348.119       27.584      860.664
09/13/2014  12:15:00      -62.324       73.085       -0.462       64.817       51.740       36.516     4201.226     2677.020     1333.423        0.872        0.411       96.051       41.441        0.186      348.301       27.896      860.637
09/13/2014  12:16:00      -79.935       81.899      -27.803       57.145       31.863       19.214     3265.512     1015.231      369.163        0.926        0.232      114.442       15.577        0.019      347.618       26.718      860.632
09/13/2014  12:17:00        6.403       24.859       22.706       29.163       40.289       28.354      850.493     1623.234      803.967        0.223        0.164       25.670       19.550        0.580      348.688       28.568      860.601
09/13/2014  12:18:00       32.015       40.558       -4.708       31.252       23.117       27.331      976.709      534.373      746.986        0.247        0.113       51.671       24.111        0.218      348.134       27.608      860.574
09/13/2014  12:19:00       -2.625       60.114        6.309       30.716       43.024       27.327      943.481     1851.080      746.771        0.360        0.177       60.172       26.543        0.195      348.530       28.295      860.546
09/13/2014  12:20:00       -8.150       24.880       30.772       18.886       21.726       26.471      356.693      472.012      700.703        0.158        0.076       26.181       11.232        0.184      349.092       29.268      860.519
09/13/2014  12:21:00       62.635       41.334        4.865       48.921       41.997       26.596     2393.216     1763.724      707.343        0.526        0.243       75.044       14.400        0.037      348.511       28.260      860.511
09/13/2014  12:22:00      121.854       85.317       11.763       48.898       40.681       36.314     2391.000     1654.904     1318.697        1.381        0.268      148.752       29.277        0.039      348.027       27.425      860.499
09/13/2014  12:23:00       50.592       52.970       10.140       38.248       37.407       29.976     1462.940     1399.294      898.542        0.461        0.188       73.249       16.424        0.050      348.225       27.765      860.493
09/13/2014  12:24:00       40.591       23.393        5.075       51.100       65.160       23.935     2611.216     4245.814      572.881        0.482        0.371       46.849       12.650        0.073      348.514       28.265      860.479
09/13/2014  12:25:00       53.737       53.955       45.264       56.604       40.911       32.744     3204.013     1673.734     1072.176        0.690        0.297       76.150       18.446        0.059      348.717       28.618      860.465
09/13/2014  12:26:00      -13.625       64.542       90.034       33.350       46.880       38.389     1112.208     2197.777     1473.693        0.862        0.239       65.964       28.463        0.186      348.827       28.808      860.449
09/13/2014  12:27:00       55.901       82.041       89.926       74.994       57.962       55.619     5624.140     3359.540     3093.438        1.501        0.604       99.276       52.354        0.278      348.279       27.859      860.450
09/13/2014  12:28:00       58.474       -9.525       24.529       69.070       55.241       32.842     4770.675     3051.553     1078.626        0.650        0.445       59.245       34.530        0.340      348.397       28.064      860.435
09/13/2014  12:29:00       59.741       48.850       55.561       66.100       81.639       64.541     4369.184     6664.874     4165.533        1.212        0.760       77.171       58.199        0.569      348.469       28.187      860.422
09/13/2014  12:30:00       82.909      116.186       86.852       85.388       68.994       62.294     7291.160     4760.140     3880.488        2.192        0.797      142.734       52.123        0.133      348.372       28.020      860.401
09/13/2014  12:31:00       61.490       29.844       19.602       67.220       62.974       44.401     4518.483     3965.709     1971.452        0.775        0.523       68.350       23.039        0.114      348.443       28.143      860.371
09/13/2014  12:32:00       36.202      -31.563       27.218       72.598       57.766       40.127     5270.516     3336.934     1610.157        0.663        0.511       48.029       35.788        0.555      348.549       28.327      860.353
09/13/2014  12:33:00       27.819      -23.684       39.322       50.855       66.351       55.573     2586.268     4402.502     3088.307        0.648        0.504       36.536       46.254        1.603      348.950       29.021      860.341
09/13/2014  12:34:00       41.974      -56.643       40.729       78.050       96.791       45.716     6091.873     9368.563     2089.984        1.209        0.878       70.500       40.981        0.338      348.742       28.661      860.328
09/13/2014  12:35:00      158.916       91.842       46.192      143.648       80.766       59.656    20634.629     6523.149     3558.864        3.326        1.536      183.547       44.976        0.060      348.501       28.241      860.321
09/13/2014  12:36:00      152.960       77.152       13.414       87.430       65.230       60.893     7644.011     4255.005     3707.971        2.257        0.780      171.316       37.449        0.048      348.224       27.762      860.309
09/13/2014  12:37:00      198.034      109.493       31.231       53.305       51.109       48.962     2841.378     2612.086     2397.302        3.001        0.393      226.288       23.246        0.011      348.305       27.900      860.293
09/13/2014  12:38:00      148.997       95.178       30.148       77.208       65.176       52.945     5961.089     4247.943     2803.137        2.259        0.651      176.802       28.717        0.026      348.725       28.629      860.269
09/13/2014  12:39:00      143.198       95.705       69.941      107.440       81.910       86.819    11543.325     6709.203     7537.493        3.017        1.290      172.236       68.641        0.159      348.702       28.588      860.251
09/13/2014  12:40:00       87.590       21.678       57.013       78.888       73.865       50.939     6223.291     5455.972     2594.748        1.283        0.714       90.233       46.154        0.262      348.778       28.722      860.240
09/13/2014  12:41:00       14.100      -10.801       50.053       41.730       92.842       43.291     1741.355     8619.633     1874.095        0.753        0.612       17.761       51.286        8.338      349.082       29.249      860.222
09/13/2014  12:42:00      105.920     -147.150       -2.886      115.308      110.736       50.969    13295.838    12262.514     2597.856        3.051        1.408      181.307       61.525        0.115      348.639       28.480      860.202
09/13/2014  12:43:00       66.763      -14.527       66.431       77.782      130.941       67.537     6049.993    17145.631     4561.203        1.841        1.388       68.325       65.210        0.911      348.678       28.548      860.192
09/13/2014  12:44:00       22.231       83.969      103.781       53.817       52.740       46.644     2896.304     2781.525     2175.642        1.308        0.393       86.862       40.480        0.217      348.924       28.974      860.204
09/13/2014  12:45:00       31.773       56.200       33.349       60.069       78.720       49.817     3608.227     6196.859     2481.743        0.878        0.614       64.560       43.480        0.454      348.838       28.826      860.190
09/13/2014  12:46:00       39.212       94.802       -5.365       69.662       53.839       40.142     4852.851     2898.672     1611.411        0.996        0.468      102.591       37.195        0.131      348.305       27.904      860.184
09/13/2014  12:47:00      -53.871       37.187      -22.884       31.121       38.275       22.992      968.542     1465.003      528.646        0.388        0.148       65.459       14.321        0.048      348.347       27.976      860.184
09/13/2014  12:48:00       37.370       39.347       13.460       62.218       34.412       26.283     3871.048     1184.188      690.788        0.443        0.287       54.265       20.572        0.144      348.744       28.663      860.179
09/13/2014  12:49:00       53.813       53.760        0.961       87.130       42.408       37.939     7591.710     1798.432     1439.366        0.831        0.541       76.066       30.358        0.159      348.531       28.296      860.173
09/13/2014  12:50:00       -4.677       34.581       11.976       27.209       33.393       25.983      740.349     1115.075      675.103        0.195        0.127       34.895       26.239        0.565      348.981       29.074      860.167
09/13/2014  12:51:00      -13.469       84.357        0.184       48.749       45.591       32.403     2376.465     2078.561     1049.963        0.640        0.275       85.426       30.004        0.123      348.733       28.646      860.176
09/13/2014  12:52:00      -42.201       80.532       -8.722       41.357       39.634       34.266     1710.438     1570.874     1174.156        0.640        0.223       90.920       33.188        0.133      348.694       28.577      860.177
09/13/2014  12:53:00       23.398       47.049       12.219       91.318       42.050       39.621     8339.037     1768.193     1569.786        0.729        0.584       52.547       41.432        0.622      348.540       28.312      860.169
09/13/2014  12:54:00       52.825       58.500       11.555       81.009       54.527       45.453     6562.444     2973.242     2065.969        0.897        0.580       78.821       36.405        0.213      348.668       28.531      860.166
09/13/2014  12:55:00       -4.291       13.470        6.226       40.197       43.243       31.413     1615.764     1869.935      986.803        0.235        0.224       14.137       15.895        1.264      349.228       29.503      860.163
09/13/2014  12:56:00       27.073      215.646      -25.581       44.190       69.152       28.611     1952.743     4782.063      818.585        2.772        0.378      217.339       30.426        0.020      348.351       27.980      860.151
09/13/2014  12:57:00       28.455      129.503       -6.049       47.472       63.886       41.950     2253.637     4081.443     1759.779        1.285        0.405      132.592       45.757        0.119      348.595       28.406      860.129
09/13/2014  12:58:00      -13.654       21.774        8.548       33.223       32.707       28.141     1103.746     1069.772      791.914        0.185        0.148       25.701       20.605        0.643      349.010       29.125      860.102
09/13/2014  12:59:00        4.998      -61.547        6.289       23.731       45.831       32.682      563.161     2100.491     1068.095        0.379        0.187       61.750       28.969        0.220      348.821       28.798      860.090
09/13/2014  13:00:00      -82.520     -122.797      -18.701       64.100       42.631       24.380     4108.844     1817.421      594.396        1.438        0.326      147.948       23.586        0.025      348.277       27.854      860.078
09/13/2014  13:01:00     -101.052      -57.975       -7.331       52.877       42.150       38.858     2795.931     1776.639     1509.915        0.985        0.304      116.501       26.935        0.053      348.440       28.139      860.037
09/13/2014  13:02:00       -0.015      -19.952       16.670       35.555       39.208       32.472     1264.146     1537.280     1054.455        0.227        0.193       19.952       32.881        2.716      348.738       28.653      860.015
09/13/2014  13:03:00       11.258       23.302       38.947       22.238       29.038       15.100      494.507      843.196      228.015        0.188        0.078       25.879       12.749        0.243      349.217       29.483      860.006
09/13/2014  13:04:00      115.471     -197.201      -16.672       70.395       78.758       47.707     4955.421     6202.770     2275.937        3.296        0.672      228.521       43.757        0.037      348.642       28.483      859.974
09/13/2014  13:05:00      129.124     -167.864       -7.008       92.159       89.384       75.003     8493.334     7989.550     5625.423        3.350        1.105      211.781       70.025        0.109      348.734       28.644      859.959
09/13/2014  13:06:00       78.026      -55.837       37.989       87.764      120.038       59.368     7702.534    14409.002     3524.572        1.814        1.282       95.947       78.946        0.677      348.846       28.839      859.960
09/13/2014  13:07:00       50.714      -29.912       37.605       60.214       76.725       50.212     3625.744     5886.688     2521.259        0.846        0.602       58.878       53.694        0.832      348.926       28.979      859.955
09/13/2014  13:08:00      113.663      -76.377       11.844       71.677       57.538       36.435     5137.533     3310.656     1327.475        1.433        0.489      136.941       38.404        0.079      348.565       28.353      859.954
09/13/2014  13:09:00       27.217       -5.648       47.921       39.679       36.392       31.427     1574.411     1324.409      987.631        0.348        0.194       27.797       18.653        0.450      349.186       29.429      859.956
09/13/2014  13:10:00       22.195      -45.219       28.487       30.063       44.087       36.651      903.758     1943.621     1343.307        0.377        0.210       50.373       16.964        0.113      349.189       29.434      859.955
09/13/2014  13:11:00       13.584      -47.880       -8.763       37.621       43.990       27.264     1415.332     1935.096      743.334        0.332        0.205       49.770       19.788        0.158      349.241       29.525      859.970
09/13/2014  13:12:00       28.949       23.477       23.804       42.846       34.257       20.981     1835.806     1173.565      440.214        0.270        0.172       37.272       15.092        0.164      349.168       29.399      859.979
09/13/2014  13:13:00      -26.563      -60.568       -0.224       37.174       51.235       23.803     1381.906     2625.039      566.582        0.447        0.229       66.137       10.245        0.024      349.121       29.317      859.989
09/13/2014  13:14:00       17.199       -3.231       30.092       26.667       23.752       25.954      711.122      564.168      673.588        0.158        0.097       17.500       17.108        0.956      349.727       30.368      859.983
09/13/2014  13:15:00       39.334       41.018       26.055       66.576       40.144       32.257     4432.359     1611.509     1040.506        0.550        0.354       56.830       30.129        0.281      349.283       29.597      859.945
09/13/2014  13:16:00       47.178      -57.215        0.423       64.327       78.105       49.085     4137.981     6100.375     2409.351        0.907        0.632       74.157       38.257        0.266      349.057       29.205      859.932
09/13/2014  13:17:00       86.929     -148.918      -25.422       83.107      118.309       70.370     6906.779    13997.119     4951.880        2.811        1.293      172.433       76.470        0.197      348.887       28.909      859.948
09/13/2014  13:18:00       44.984        5.426       74.494       67.262       94.480       81.637     4524.203     8926.400     6664.597        1.386        1.006       45.310       72.069        2.530      349.100       29.280      859.904
09/13/2014  13:19:00       34.173       14.030      107.330       75.118      113.900       76.307     5642.659    12973.320     5822.824        1.866        1.222       36.941       68.914        3.480      349.109       29.295      859.826
09/13/2014  13:20:00       94.868     -123.935       43.201      118.553      184.810      100.456    14054.871    34154.724    10091.503        4.225        2.915      156.076      110.096        0.498      349.051       29.194      859.786
09/13/2014  13:21:00      115.656     -105.137       56.213      145.855      196.110      100.243    21273.822    38459.061    10048.609        4.867        3.489      156.301      137.644        0.776      348.917       28.961      859.820
09/13/2014  13:22:00      -72.116      -24.529        3.032       77.297       45.378       43.553     5974.876     2059.198     1896.852        0.787        0.497       76.174       43.566        0.327      349.088       29.257      859.848
09/13/2014  13:23:00      -75.205       -0.063       17.550       58.629       38.926       28.553     3437.367     1515.202      815.271        0.586        0.288       75.205       30.360        0.163      349.389       29.780      859.845
09/13/2014  13:24:00        1.429        0.469       25.648       47.171       33.040       26.618     2225.094     1091.611      708.530        0.234        0.201        1.504       24.276      260.647      349.529       30.025      859.845
09/13/2014  13:25:00     -138.989      -60.511       -6.013       97.678      103.883       54.999     9540.963    10791.591     3024.942        2.318        1.168      151.590       66.501        0.192      349.300       29.626      859.858
09/13/2014  13:26:00     -144.803     -118.720        5.394       92.144       84.647       38.606     8490.487     7165.116     1490.402        2.612        0.857      187.249       45.965        0.060      349.146       29.356      859.853
09/13/2014  13:27:00     -107.814      -16.089        2.829       64.436       56.785       36.525     4151.998     3224.496     1334.053        1.030        0.436      109.008       27.220        0.062      349.431       29.856      859.860
09/13/2014  13:28:00     -374.465      -82.907      -25.498      167.329      118.693       59.865    27999.029    14087.966     3583.799        9.670        2.284      383.533       61.483        0.026      349.107       29.289      859.887
09/13/2014  13:29:00     -271.964      -98.485       -2.789      181.770      115.998       73.010    33040.403    13455.558     5330.439        6.774        2.591      289.247       77.353        0.072      349.053       29.196      859.871
09/13/2014  13:30:00     -249.680      -53.659        1.646      149.339       94.680       57.358    22302.004     8964.312     3289.970        4.988        1.728      255.381       61.802        0.059      348.909       28.947      859.846
09/13/2014  13:31:00     -180.129      -64.581       -9.603      121.811      102.271       54.416    14837.896    10459.346     2961.092        3.248        1.413      191.356       57.316        0.090      349.005       29.111      859.841
09/13/2014  13:32:00     -107.636     -136.613      -15.746      123.030       96.903       41.955    15136.380     9390.188     1760.189        2.839        1.314      173.922       33.160        0.036      348.775       28.714      859.852
09/13/2014  13:33:00     -395.033     -186.194       -7.229      259.500      188.938       77.281    67340.465    35697.642     5972.418       14.987        5.451      436.714       88.397        0.041      349.017       29.134      859.802
09/13/2014  13:34:00     -374.553     -169.469        3.598      260.802      187.568      102.189    68017.645    35181.716    10442.637       14.131        5.682      411.108      122.818        0.089      349.010       29.120      859.801
09/13/2014  13:35:00     -438.034     -223.206      -11.186      187.191      160.943       89.932    35040.657    25902.563     8087.707       15.541        3.452      491.624       85.419        0.030      348.888       28.908      859.784
09/13/2014  13:36:00     -263.021     -128.216       -2.739      215.223      138.870       79.950    46320.798    19284.753     6392.044        7.880        3.600      292.608       84.854        0.084      348.948       29.014      859.792
09/13/2014  13:37:00     -335.083     -284.120      -14.298      158.624      242.510       65.662    25161.416    58811.019     4311.533       14.073        4.414      439.323       68.481        0.024      348.929       28.981      859.790
09/13/2014  13:38:00     -202.841     -219.086       -4.196      104.302       97.197       62.009    10878.922     9447.323     3845.069        5.666        1.209      298.569       33.777        0.013      348.894       28.921      859.756
09/13/2014  13:39:00     -173.422     -222.429       10.811      146.693      140.084       79.260    21518.890    19623.607     6282.223        6.354        2.371      282.046       79.676        0.080      349.084       29.249      859.763
09/13/2014  13:40:00     -246.716     -229.909        6.433      179.088      166.082       89.265    32072.492    27583.255     7968.179        9.068        3.381      337.234       89.206        0.070      349.080       29.242      859.760
09/13/2014  13:41:00     -424.536     -195.796      -21.233      215.594      170.603       87.490    46480.560    29105.486     7654.415       15.112        4.162      467.511       96.174        0.042      349.067       29.220      859.739
09/13/2014  13:42:00     -328.409     -265.447      -10.710      196.729      160.637       89.262    38702.355    25804.227     7967.702       12.544        3.624      422.273       95.794        0.051      349.170       29.398      859.722
09/13/2014  13:43:00     -451.601     -156.605        5.213      246.126      204.886       87.075    60578.150    41978.409     7582.098       16.930        5.507      477.984      110.549        0.053      349.208       29.463      859.747
09/13/2014  13:44:00     -271.058     -149.816      -15.826      209.009      100.175       61.799    43684.556    10035.031     3819.084        7.684        2.877      309.705       82.237        0.071      349.290       29.607      859.757
09/13/2014  13:45:00     -208.183     -106.589       19.936      192.388      124.592       81.332    37013.018    15523.165     6614.855        5.712        2.958      233.883       99.221        0.180      349.400       29.797      859.728
09/13/2014  13:46:00     -236.050     -113.762       13.016      129.872      145.266       62.435    16866.802    21102.163     3898.074        5.534        2.093      262.033       62.033        0.056      349.419       29.829      859.728
09/13/2014  13:47:00     -328.340      -85.226       -5.963      158.677      103.623       61.352    25178.355    10737.668     3764.122        7.739        1.984      339.220       66.725        0.039      349.384       29.771      859.744
09/13/2014  13:48:00     -350.563      -61.162      -34.138      171.043      101.887       60.397    29255.687    10380.887     3647.852        8.554        2.164      355.859       68.038        0.037      349.010       29.121      859.737
09/13/2014  13:49:00     -265.235      -11.855       -8.902      168.642      105.736       62.072    28440.099    11180.019     3852.974        5.701        2.174      265.500       72.749        0.075      349.173       29.404      859.720
09/13/2014  13:50:00     -353.061      -81.427       -2.402      150.091      109.695       67.117    22527.457    12033.102     4504.744        8.517        1.953      362.329       75.982        0.044      349.030       29.156      859.715
09/13/2014  13:51:00     -457.568     -172.864      -31.185      121.595      118.615       75.885    14785.262    14069.429     5758.535       13.741        1.731      489.132       74.362        0.023      348.783       28.727      859.709
09/13/2014  13:52:00     -298.760     -201.375       -2.542      148.297      118.660       75.389    21991.904    14080.100     5683.541        8.578        2.088      360.290       66.714        0.034      348.897       28.925      859.696
09/13/2014  13:53:00     -275.072     -226.863      -12.933      193.555      159.164       89.839    37463.646    25333.200     8071.123        9.907        3.543      356.555       88.247        0.061      349.087       29.255      859.672
09/13/2014  13:54:00     -269.395      -89.221      -24.650      123.892      108.136       62.625    15349.251    11693.414     3921.906        5.605        1.548      283.785       61.473        0.047      349.343       29.698      859.681
09/13/2014  13:55:00     -312.351      -76.456      -21.527      198.577      141.487       87.426    39432.643    20018.544     7643.266        8.547        3.355      321.572       81.415        0.064      349.303       29.629      859.672
09/13/2014  13:56:00     -322.468      -86.714       -6.553      223.523      137.023       86.751    49962.420    18775.423     7525.768        9.389        3.813      333.924      102.429        0.094      349.250       29.537      859.670
09/13/2014  13:57:00     -386.428     -147.691      -13.390      219.790      161.376       97.213    48307.811    26042.311     9450.344       12.755        4.190      413.690      110.051        0.071      349.176       29.408      859.641
09/13/2014  13:58:00     -361.609     -119.949        2.418      200.021      156.290       94.980    40008.476    24426.531     9021.198       10.929        3.673      380.984      108.099        0.081      349.188       29.428      859.646
09/13/2014  13:59:00     -263.803      -64.326       -4.540      172.189      117.764       80.039    29649.082    13868.344     6406.226        6.183        2.496      271.532       83.216        0.094      349.366       29.737      859.654
09/13/2014  14:00:00     -521.999     -126.410      -19.710      155.880      138.954       66.895    24298.454    19308.221     4474.933       16.846        2.404      537.087       70.340        0.017      349.125       29.319      859.658
09/13/2014  14:01:00     -308.079        9.278      -19.519      135.333      146.753       60.565    18315.072    21536.491     3668.124        6.944        2.176      308.218       43.296        0.020      349.194       29.441      859.667
09/13/2014  14:02:00     -108.538       57.560       -5.092      133.335      113.398       49.635    17778.152    12859.122     2463.672        2.410        1.655      122.857       59.888        0.238      349.226       29.496      859.652
09/13/2014  14:03:00      -86.165      -83.910       16.857       84.442       92.677       53.126     7130.390     8589.118     2822.410        1.664        0.927      120.272       51.561        0.184      349.398       29.794      859.651
09/13/2014  14:04:00      -68.119      -26.723       -3.748       57.399       63.545       41.308     3294.616     4038.028     1706.343        0.720        0.452       73.173       22.463        0.094      349.370       29.748      859.653
09/13/2014  14:05:00     -152.179     -154.961        5.899      113.979      107.904       52.614    12991.207    11643.199     2768.218        3.730        1.370      217.190       59.653        0.075      349.110       29.295      859.621
09/13/2014  14:06:00     -159.621      -62.486        6.666      148.049       87.814       50.966    21918.532     7711.336     2597.518        3.082        1.611      171.416       72.393        0.178      349.633       30.202      859.630
09/13/2014  14:07:00     -351.991     -123.567       -2.376      191.283      129.961       80.600    36589.337    16889.754     6496.423        9.956        2.999      373.050       89.167        0.057      349.264       29.562      859.661
09/13/2014  14:08:00     -253.648     -105.691      -14.832      157.260      115.156       52.647    24730.840    13260.838     2771.729        5.824        2.038      274.787       60.096        0.048      348.954       29.026      859.667
09/13/2014  14:09:00     -207.588      -73.389       -5.963      121.602       88.116       52.611    14786.986     7764.429     2767.922        3.691        1.266      220.179       59.718        0.074      349.079       29.241      859.643
09/13/2014  14:10:00      -67.336       -0.198        0.940       43.919       42.315       31.106     1928.909     1790.517      967.588        0.461        0.234       67.336       23.754        0.124      349.217       29.484      859.607
09/13/2014  14:11:00     -276.679     -121.640       -7.081      114.260       86.104       51.622    13055.273     7413.981     2664.829        5.726        1.157      302.237       53.071        0.031      349.225       29.495      859.570
09/13/2014  14:12:00     -290.193     -157.985      -23.339      111.962      114.674       59.034    12535.402    13150.134     3485.019        6.944        1.459      330.410       40.595        0.015      349.120       29.311      859.593
09/13/2014  14:13:00     -312.689     -212.728      -21.784      170.147       99.989       69.667    28950.064     9997.790     4853.497        9.364        2.190      378.190       70.201        0.034      349.066       29.217      859.578
09/13/2014  14:14:00     -326.452      -95.922      -16.796      135.957       80.168       59.179    18484.267     6426.883     3502.202        7.223        1.421      340.252       57.959        0.029      349.149       29.362      859.559
09/13/2014  14:15:00     -367.492     -131.467      -19.751      177.829      196.127       83.120    31623.022    38465.677     6908.992       11.485        3.850      390.300       82.809        0.045      349.102       29.280      859.563
09/13/2014  14:16:00     -276.200      -12.636       29.890      197.023      186.142       99.105    38818.013    34649.012     9821.792        8.030        4.164      276.489      102.274        0.137      349.116       29.304      859.537
09/13/2014  14:17:00     -382.399      -71.982      -14.607      191.822      148.691       80.656    36795.730    22108.916     6505.348       10.851        3.270      389.115       95.480        0.060      349.062       29.211      859.560
09/13/2014  14:18:00     -307.219     -155.305        0.883      203.895      128.519       99.347    41573.031    16517.210     9869.857        9.322        3.398      344.243      112.588        0.107      348.935       28.991      859.549
09/13/2014  14:19:00     -254.390     -105.001       -2.480      150.140      137.667       77.197    22542.035    18952.137     5959.427        6.159        2.373      275.207       84.546        0.094      348.981       29.071      859.531
09/13/2014  14:20:00     -406.041      -39.858      -11.163      146.793      120.411       76.975    21548.282    14498.769     5925.165       10.427        2.099      407.992       83.823        0.042      348.979       29.067      859.525
09/13/2014  14:21:00     -361.813     -153.561        9.088      240.415      157.012       92.990    57799.171    24652.613     8647.108       12.282        4.555      393.052      128.375        0.107      348.851       28.846      859.533
09/13/2014  14:22:00     -276.710     -138.743       10.790      171.767      114.972       68.604    29503.824    13218.482     4706.575        7.167        2.371      309.545       70.028        0.051      348.790       28.740      859.535
09/13/2014  14:23:00     -227.964     -148.766       -0.720      111.589      123.843       72.193    12452.072    15337.131     5211.834        5.354        1.650      272.211       50.358        0.034      348.915       28.955      859.525
09/13/2014  14:24:00     -249.275      -86.618      -10.052      197.016      131.393       69.619    38815.219    17264.130     4846.842        6.532        3.046      263.895       69.012        0.068      348.959       29.035      859.521
09/13/2014  14:25:00     -391.290     -186.598       -6.156      132.875      125.507       61.531    17655.773    15752.127     3786.027       11.257        1.860      433.505       60.401        0.019      348.875       28.886      859.506
09/13/2014  14:26:00     -179.598      -74.079       12.522      175.356      113.727       57.911    30749.848    12933.828     3353.717        4.246        2.352      194.276       62.835        0.105      349.071       29.228      859.493
09/13/2014  14:27:00     -182.752     -125.731       -7.806      101.067       94.403       63.095    10214.531     8911.945     3980.953        3.618        1.155      221.826       45.510        0.042      348.985       29.077      859.474
09/13/2014  14:28:00     -292.130      -83.323        8.484      214.659      104.468       78.828    46078.426    10913.579     6213.834        7.777        3.160      303.780      102.279        0.113      349.065       29.216      859.486
09/13/2014  14:29:00     -476.239      -96.432      -32.117      161.044      149.393       74.432    25935.265    22318.346     5540.140       14.545        2.690      485.904       78.307        0.026      348.750       28.670      859.485
09/13/2014  14:30:00     -407.087      -36.699      -18.057      141.596      130.431       79.233    20049.346    17012.117     6277.908       10.536        2.167      408.737       77.575        0.036      348.985       29.076      859.490
09/13/2014  14:31:00     -183.711      -27.971        6.884      172.282       92.412       55.450    29681.104     8540.052     3074.732        3.793        2.065      185.828       77.815        0.175      349.381       29.764      859.486
09/13/2014  14:32:00     -101.670      -66.299       27.468      147.860       73.552       62.009    21862.574     5409.893     3845.168        2.330        1.556      121.376       73.241        0.364      349.475       29.929      859.479
09/13/2014  14:33:00     -279.450      -91.137        2.759      173.343      105.152       50.785    30047.750    11056.839     2579.091        6.504        2.184      293.936       49.937        0.029      349.293       29.611      859.481
09/13/2014  14:34:00     -245.583     -151.018        8.219      152.826      127.334       82.442    23355.665    16213.926     6796.665        6.477        2.318      288.301       81.823        0.081      349.336       29.686      859.486
09/13/2014  14:35:00     -183.480     -104.375        2.274      126.337      109.796       64.168    15960.979    12055.080     4117.581        3.834        1.607      211.090       62.422        0.087      349.349       29.709      859.454
09/13/2014  14:36:00     -390.753     -340.774      -13.972      238.669      179.484       99.662    56962.979    32214.675     9932.511       18.404        4.956      518.473      117.195        0.051      349.033       29.160      859.452
09/13/2014  14:37:00     -280.587     -264.827        4.774      214.450      137.072       65.443    45989.013    18788.756     4282.730       10.896        3.453      385.827       73.486        0.036      349.032       29.157      859.447
09/13/2014  14:38:00     -419.933     -325.664      -14.741      232.199      153.610      110.804    53916.263    23595.958    12277.627       18.619        4.489      531.413      116.111        0.048      348.974       29.057      859.474
09/13/2014  14:39:00     -392.591     -243.537       -5.915      188.152      162.913       81.092    35401.048    26540.599     6575.952       14.098        3.426      461.994       87.958        0.036      349.000       29.102      859.491
09/13/2014  14:40:00     -424.897     -171.934       -2.786      184.165      123.524       69.601    33916.746    15258.214     4844.268       13.205        2.701      458.366       69.231        0.023      348.912       28.951      859.503
09/13/2014  14:41:00     -338.370     -233.775       -5.918      162.758      153.829       77.628    26490.327    23663.442     6026.064       11.267        2.809      411.272       90.848        0.049      348.948       29.012      859.479
09/13/2014  14:42:00     -329.485     -211.230        1.994      182.132      143.207       78.735    33171.910    20508.369     6199.183       10.652        2.994      391.380       89.386        0.052      348.850       28.844      859.481
09/13/2014  14:43:00     -431.967     -261.012       -4.318      176.831      152.262       86.731    31269.086    23183.610     7522.193       15.835        3.099      504.700       92.572        0.034      348.935       28.990      859.458
09/13/2014  14:44:00     -271.909      -75.757       -6.263      200.320      130.830       66.516    40128.080    17116.425     4424.428        7.068        3.083      282.265       87.652        0.096      349.136       29.339      859.455
09/13/2014  14:45:00     -261.052      -59.555       -3.710       97.089       95.473       61.299     9426.213     9115.028     3757.511        4.700        1.115      267.760       49.890        0.035      349.262       29.556      859.448
09/13/2014  14:46:00     -231.453     -153.988       -8.795      141.710      117.206       69.172    20081.792    13737.162     4784.755        5.798        1.930      277.998       75.855        0.074      349.386       29.771      859.449
09/13/2014  14:47:00     -275.684     -206.098        4.664      189.383      114.683       86.989    35865.755    13152.256     7567.068        8.753        2.829      344.207       82.826        0.058      349.284       29.596      859.438
09/13/2014  14:48:00     -508.610     -222.914      -23.868      185.598      127.837       75.445    34446.757    16342.301     5691.966       18.270        2.824      555.315       74.284        0.018      349.152       29.366      859.402
09/13/2014  14:49:00     -444.890     -111.447       -4.901      198.690      145.834       80.415    39477.657    21267.488     6466.635       13.878        3.361      458.637       90.521        0.039      349.075       29.233      859.401
09/13/2014  14:50:00     -405.903     -174.803      -10.051      183.267      149.953       78.197    33586.857    22485.853     6114.791       12.879        3.109      441.942       78.555        0.032      348.859       28.860      859.405
09/13/2014  14:51:00     -209.369      -41.242        3.513      246.641      121.480       98.760    60831.585    14757.419     9753.539        6.543        4.267      213.393      114.841        0.290      349.110       29.294      859.387
09/13/2014  14:52:00     -340.971      -39.534      -23.422      164.059      149.534       66.342    26915.477    22360.385     4401.313        8.602        2.684      343.255       64.426        0.035      349.311       29.641      859.387
09/13/2014  14:53:00     -360.972        3.561      -34.067      112.338       86.173       55.428    12619.910     7425.757     3072.230        7.729        1.156      360.989       49.638        0.019      349.206       29.461      859.391
09/13/2014  14:54:00     -273.392        4.829      -14.103       60.172       79.686       43.146     3620.625     6349.897     1861.537        4.340        0.592      273.434       32.775        0.014      349.234       29.507      859.399
09/13/2014  14:55:00     -185.178      -19.896      -10.288      151.862      100.733       43.634    23062.143    10147.178     1903.909        3.495        1.756      186.244       63.810        0.117      349.307       29.638      859.380
09/13/2014  14:56:00     -266.661     -165.495       -7.361      160.320       90.628       62.933    25702.608     8213.413     3960.569        6.821        1.894      313.842       57.139        0.033      349.346       29.703      859.377
09/13/2014  14:57:00     -422.486     -150.040      -27.992      194.943      128.551       86.232    38002.688    16525.259     7435.920       13.187        3.098      448.338       87.636        0.038      349.080       29.241      859.373
09/13/2014  14:58:00     -404.250     -289.500      -13.756      226.847      198.515      103.571    51459.785    39408.087    10726.913       17.449        5.080      497.220      119.129        0.057      349.199       29.449      859.335
09/13/2014  14:59:00     -307.912     -192.522       -3.582      192.103      192.912       81.310    36903.447    37215.100     6611.317       10.630        4.036      363.146       92.422        0.065      349.273       29.578      859.349
09/13/2014  15:00:00     -447.371     -272.771       -7.696      196.199      158.856      102.916    38494.238    25235.290    10591.630       17.445        3.716      523.970      102.420        0.038      348.936       28.992      859.368
09/13/2014  15:01:00     -356.370     -147.168        4.453      177.522      143.769       93.754    31514.221    20669.652     8789.779       10.482        3.049      385.562      100.255        0.068      348.965       29.043      859.349
09/13/2014  15:02:00     -476.616     -104.410      -19.339      159.377      174.750       95.178    25400.972    30537.483     9058.807       15.171        3.250      487.918       91.280        0.035      349.097       29.272      859.329
09/13/2014  15:03:00     -433.487     -245.146        4.623      169.884      198.828      103.580    28860.632    39532.476    10728.759       16.356        3.956      498.003      113.008        0.051      349.005       29.112      859.343
09/13/2014  15:04:00     -380.045     -219.322      -21.207      185.185      122.911       74.690    34293.480    15107.021     5578.653       12.397        2.749      438.790       81.177        0.034      348.936       28.993      859.299
09/13/2014  15:05:00     -307.052     -190.427       -8.703      157.590      112.443       68.199    24834.657    12643.442     4651.154        8.637        2.106      361.308       71.434        0.039      349.227       29.496      859.271
09/13/2014  15:06:00     -391.281     -116.791       -6.970      206.203      188.662       95.009    42519.730    35593.381     9026.674       12.695        4.357      408.339       94.743        0.054      349.229       29.499      859.265
09/13/2014  15:07:00     -268.835      -94.036        5.223      161.896      156.271       95.136    26210.198    24420.493     9050.871        7.040        2.984      284.807       95.096        0.111      349.374       29.752      859.266
09/13/2014  15:08:00     -359.113     -160.695      -11.388      173.566      152.803       77.731    30125.134    23348.901     6042.084       10.721        2.976      393.427       86.295        0.048      349.223       29.489      859.271
09/13/2014  15:09:00     -331.705     -174.455      -16.765      173.526      137.185       72.589    30111.218    18819.592     5269.094        9.746        2.710      374.784       83.655        0.050      349.112       29.297      859.261
09/13/2014  15:10:00     -332.716     -103.982      -35.123      182.497      109.374       65.416    33305.018    11962.678     4279.301        8.614        2.477      348.586       77.345        0.049      349.086       29.253      859.224
09/13/2014  15:11:00     -295.235     -241.487        3.858      180.078      175.555       84.181    32428.156    30819.385     7086.404       10.790        3.517      381.418       85.113        0.050      349.124       29.319      859.201
09/13/2014  15:12:00     -470.970     -267.410      -12.668      192.768      154.105       79.398    37159.498    23748.455     6303.963       18.034        3.361      541.591       94.393        0.030      348.810       28.773      859.181
09/13/2014  15:13:00     -321.583     -215.106       -4.966      157.321      132.915       81.203    24749.855    17666.267     6593.879        9.935        2.451      386.893       89.372        0.053      349.114       29.299      859.177
09/13/2014  15:14:00     -244.866     -123.554       -4.950      147.131      134.799       69.291    21647.570    18170.639     4801.193        5.993        2.231      274.272       62.523        0.052      349.503       29.975      859.178
09/13/2014  15:15:00     -318.468     -145.844      -13.478      132.216      116.078       69.432    17481.143    13474.214     4820.871        7.932        1.789      350.275       62.707        0.032      349.030       29.156      859.181
09/13/2014  15:16:00     -395.739     -214.367       -3.874      166.913      136.182       71.532    27859.831    18545.529     5116.892       12.704        2.576      450.070       79.910        0.032      349.069       29.224      859.172
09/13/2014  15:17:00     -221.834     -126.571       -9.745      125.726      121.243       73.506    15807.072    14699.781     5403.094        5.061        1.795      255.403       77.115        0.091      349.247       29.532      859.159
09/13/2014  15:18:00     -307.882     -168.771       -6.362      163.636      148.523       73.456    26776.833    22058.982     5395.772        8.876        2.712      351.105       79.228        0.051      349.352       29.714      859.136
09/13/2014  15:19:00     -334.910     -162.440      -16.510      193.114      165.908       80.059    37292.855    27525.299     6409.395       10.501        3.561      372.226       83.632        0.050      349.145       29.354      859.143
09/13/2014  15:20:00     -270.761      -56.862       -1.787      179.489      100.019       72.018    32216.379    10003.789     5186.569        6.197        2.370      276.668       79.343        0.082      349.249       29.535      859.120
09/13/2014  15:21:00     -309.979     -140.434       -8.447      292.113      175.896       86.220    85330.100    30939.322     7433.862       11.977        6.185      340.307      123.583        0.132      349.329       29.676      859.130
09/13/2014  15:22:00     -350.134     -200.152      -14.604      209.807      134.149       72.704    44019.090    17996.059     5285.831       11.507        3.365      403.304       86.295        0.046      349.212       29.470      859.134
09/13/2014  15:23:00     -354.027     -128.004      -23.083      143.350      126.327       66.632    20549.215    15958.431     4439.800        9.159        2.047      376.457       75.813        0.041      349.093       29.263      859.150
09/13/2014  15:24:00     -130.609      -87.476        4.533      164.763      117.539       71.071    27146.992    13815.493     5051.112        3.536        2.301      157.196       81.297        0.267      349.361       29.728      859.142
09/13/2014  15:25:00     -165.202      -20.927       -4.250      127.453      101.798       44.187    16244.290    10362.767     1952.506        2.815        1.428      166.522       50.879        0.093      349.357       29.723      859.127
09/13/2014  15:26:00     -160.767      -90.887       -2.128       88.053       98.379       42.515     7753.290     9678.387     1807.509        2.667        0.962      184.679       47.943        0.067      349.093       29.267      859.129
09/13/2014  15:27:00     -229.076     -142.541       -7.924      110.834       79.038       43.924    12284.108     6246.989     1929.344        4.666        1.023      269.803       35.519        0.017      348.820       28.791      859.094
09/13/2014  15:28:00     -106.699      -83.712        0.716       86.857       73.009       41.956     7544.129     5330.328     1760.333        1.651        0.732      135.619       34.205        0.064      349.039       29.174      859.091
09/13/2014  15:29:00     -130.022      -72.746       -1.917      154.699       89.070       41.974    23931.771     7933.499     1761.855        2.791        1.681      148.989       34.858        0.055      349.267       29.568      859.075
09/13/2014  15:30:00     -205.184     -181.185      -12.922      137.890      220.691       57.882    19013.675    48704.474     3350.330        7.307        3.553      273.731       52.404        0.037      349.071       29.228      859.032
09/13/2014  15:31:00     -285.314     -214.254      -28.683      146.957      170.784       73.221    21596.351    29167.343     5361.344        9.212        2.806      356.803       57.721        0.026      349.336       29.684      859.006
09/13/2014  15:32:00     -330.653      -47.805        8.099      201.643      112.925       77.414    40660.002    12752.153     5992.998        8.553        2.970      334.090       93.077        0.078      349.439       29.864      859.035
09/13/2014  15:33:00     -235.701     -127.077       -2.680      120.956       87.299       55.593    14630.277     7621.192     3090.613        4.852        1.267      267.775       65.496        0.060      349.367       29.739      859.055
09/13/2014  15:34:00      -82.669     -112.374       17.377      165.710      155.914       63.970    27459.757    24309.320     4092.111        3.780        2.793      139.506       77.102        0.305      349.457       29.895      859.015
09/13/2014  15:35:00     -272.613     -186.946       -6.281      170.776      115.767       76.138    29164.459    13401.984     5796.960        7.883        2.418      330.555       78.310        0.056      349.168       29.395      859.003
09/13/2014  15:36:00     -178.037      -52.852       -3.183      126.578      123.153       71.244    16022.049    15166.564     5075.698        3.538        1.813      185.716       75.502        0.165      349.524       30.013      859.014
09/13/2014  15:37:00     -131.045      -36.475       18.672      113.938       80.593       48.607    12981.842     6495.291     2362.618        2.034        1.092      136.027       55.554        0.167      349.586       30.120      859.013
09/13/2014  15:38:00     -382.905        7.884       -1.258      208.269      156.701       89.011    43375.926    24555.115     7922.870       11.125        3.793      382.986       98.187        0.066      349.410       29.813      859.005
09/13/2014  15:39:00     -350.824     -271.703       -2.284      207.729      157.565       94.553    43151.183    24826.818     8940.353       13.690        3.846      443.734      106.254        0.057      348.994       29.092      858.999
09/13/2014  15:40:00     -374.125     -277.570       -9.568      174.937      134.597       82.059    30602.781    18116.426     6733.623       13.627        2.773      465.849       85.943        0.034      348.987       29.081      858.992
09/13/2014  15:41:00     -489.437     -255.480      -32.572      212.312      146.941       96.205    45076.228    21591.726     9255.427       19.089        3.796      552.104      105.551        0.037      349.037       29.167      858.981
09/13/2014  15:42:00     -361.125     -193.371      -14.639      245.228      171.654       95.996    60136.542    29465.153     9215.303       13.340        4.941      409.639      118.854        0.084      349.192       29.436      858.996
09/13/2014  15:43:00     -297.023     -147.397        3.341      230.899      164.219       96.212    53314.317    26968.033     9256.670        9.973        4.477      331.585      112.998        0.116      349.324       29.665      859.001
09/13/2014  15:44:00     -154.841      -49.657        6.572      154.198      119.916       67.500    23776.997    14379.935     4556.186        3.459        2.136      162.609       69.455        0.182      349.519       30.004      859.012
09/13/2014  15:45:00     -374.675     -225.347      -12.612      225.644      196.388       98.383    50915.041    38568.298     9679.170       14.523        4.958      437.221      110.180        0.064      349.206       29.461      859.011
09/13/2014  15:46:00     -211.406     -268.623        5.938      174.743      134.303       71.318    30534.972    18037.249     5086.316        8.526        2.683      341.835       76.870        0.051      348.980       29.068      858.983
09/13/2014  15:47:00     -222.975     -116.345       -2.481      121.979      107.659       59.713    14878.925    11590.354     3565.654        4.664        1.502      251.503       55.174        0.048      349.268       29.569      858.980
09/13/2014  15:48:00     -336.679     -121.313        2.954      156.089      151.204       82.454    24363.922    22862.700     6798.595        9.104        2.701      357.869       85.194        0.057      349.200       29.450      858.975
09/13/2014  15:49:00     -363.005     -245.049      -14.799      199.603      200.651       91.257    39841.185    40260.677     8327.765       14.022        4.421      437.974       99.077        0.051      349.012       29.124      858.954
09/13/2014  15:50:00     -368.285     -174.961       -7.245      205.418      185.429       85.204    42196.735    34383.812     7259.806       12.506        4.192      407.732       93.060        0.052      349.142       29.350      858.969
09/13/2014  15:51:00     -313.215     -153.915       -6.026      217.127      156.743      101.388    47144.098    24568.303    10279.610       10.190        4.100      348.989      113.963        0.107      349.080       29.243      858.963
09/13/2014  15:52:00     -412.458      -35.630      -12.716      215.194      118.710       85.904    46308.657    14092.127     7379.479       11.966        3.389      413.994       94.578        0.052      349.127       29.324      858.962
09/13/2014  15:53:00     -218.890     -219.879        0.495      198.998      129.504       91.474    39600.192    16771.308     8367.518        8.049        3.237      310.257       96.696        0.097      349.225       29.493      858.941
09/13/2014  15:54:00     -260.540     -196.154        7.792      166.976      114.984       82.409    27880.919    13221.413     6791.286        7.715        2.395      326.125       85.047        0.068      349.329       29.675      858.941
09/13/2014  15:55:00     -364.730     -197.235       -4.308      188.314      152.444       87.814    35462.001    23239.082     7711.275       11.917        3.321      414.644       86.989        0.044      349.354       29.716      858.951
09/13/2014  15:56:00     -323.246     -161.529       -9.689      162.574      131.194       66.029    26430.168    17211.879     4359.876        8.933        2.400      361.358       69.604        0.037      349.099       29.275      858.931
09/13/2014  15:57:00     -260.162     -150.652      -11.306      149.832      129.376       61.010    22449.774    16738.233     3722.255        6.670        2.146      300.633       59.158        0.039      349.248       29.534      858.932
09/13/2014  15:58:00      -67.926      -25.451       18.299      144.369      141.255       68.900    20842.285    19953.052     4747.245        2.556        2.277       72.538       62.196        0.735      349.337       29.689      858.890
09/13/2014  15:59:00     -406.515     -133.426      -12.788      219.602      139.756       71.593    48224.983    19531.625     5125.585       12.804        3.644      427.851       86.322        0.041      349.233       29.508      858.881
09/13/2014  16:00:00     -404.968      -83.984      -35.565      244.975      148.356       84.591    60012.529    22009.518     7155.707       13.073        4.459      413.585       98.015        0.056      349.257       29.549      858.863
09/13/2014  16:01:00     -363.797     -136.822       -2.164      212.671      153.732       95.388    45229.160    23633.541     9098.929       11.450        3.898      388.675      105.589        0.074      349.314       29.646      858.856
09/13/2014  16:02:00     -290.188      -47.147      -15.446      200.346      151.790       81.170    40138.704    23040.350     6588.635        7.821        3.488      293.993       94.607        0.104      349.352       29.714      858.860
09/13/2014  16:03:00     -414.066     -118.427      -25.336      248.775      184.903       78.468    61889.197    34189.023     6157.160       14.416        5.112      430.669      102.184        0.056      349.254       29.543      858.858
09/13/2014  16:04:00     -441.730     -293.668       -2.570      213.280      157.865       94.574    45488.319    24921.418     8944.327       18.035        3.968      530.440       89.560        0.029      349.105       29.286      858.860
09/13/2014  16:05:00     -293.183     -131.088        9.166      188.497      165.855       83.102    35531.073    27508.016     6905.970        8.657        3.497      321.154       95.870        0.089      349.144       29.354      858.872
09/13/2014  16:06:00     -231.564     -224.404       -9.416      128.688      164.345       62.043    16560.521    27009.189     3849.289        7.574        2.371      322.457       67.131        0.043      349.175       29.405      858.884
09/13/2014  16:07:00     -255.548     -188.416        0.281      135.848      124.820       83.191    18454.627    15579.984     6920.725        7.087        2.048      317.499       80.095        0.064      349.202       29.453      858.885
09/13/2014  16:08:00     -231.917     -138.903       -2.479      144.328       87.577       69.879    20830.541     7669.703     4883.037        5.323        1.669      270.332       79.969        0.088      349.357       29.723      858.875
09/13/2014  16:09:00     -167.027     -113.599        4.360      122.625       93.153       56.118    15036.923     8677.564     3149.275        3.384        1.343      201.997       60.657        0.090      349.311       29.642      858.872
09/13/2014  16:10:00     -183.590     -109.609       -0.532      161.732      122.950       72.965    26157.132    15116.798     5323.859        4.615        2.330      213.822       73.796        0.119      349.390       29.782      858.866
09/13/2014  16:11:00     -309.138     -104.647       -5.820      130.165      145.311       76.966    16943.057    21115.274     5923.744        7.526        2.199      326.370       74.692        0.052      349.328       29.673      858.885
09/13/2014  16:12:00     -103.503      -70.346       10.455      104.506      105.819       58.695    10921.558    11197.706     3445.117        2.066        1.278      125.146       62.324        0.248      349.485       29.946      858.880
09/13/2014  16:13:00     -227.361     -138.593        5.454      110.042       83.993       57.363    12109.350     7054.816     3290.555        4.669        1.123      266.273       62.585        0.055      349.260       29.555      858.857
09/13/2014  16:14:00     -298.139     -233.589      -12.471      164.929      138.547       89.567    27201.735    19195.245     8022.191        9.900        2.721      378.749       94.503        0.062      349.286       29.600      858.862
09/13/2014  16:15:00     -242.651     -131.085        2.490      178.804      122.651       65.245    31970.719    15043.151     4256.852        6.366        2.564      275.795       76.013        0.076      349.317       29.653      858.862
09/13/2014  16:16:00     -388.970     -203.961      -10.705      235.953      172.807       98.381    55673.596    29862.192     9678.749       14.410        4.761      439.201      110.555        0.063      349.169       29.396      858.827
09/13/2014  16:17:00     -393.512     -140.133       -1.435      255.614      191.968       91.227    65338.323    36851.688     8322.378       14.248        5.526      417.718      101.242        0.059      349.223       29.491      858.819
09/13/2014  16:18:00     -376.881     -263.062       -5.773      201.309      186.380       95.816    40525.178    34737.678     9180.737       14.784        4.222      459.609      103.300        0.051      349.045       29.180      858.766
09/13/2014  16:19:00     -145.902      -79.534       15.645      177.025      127.923       81.907    31337.887    16364.189     6708.829        4.113        2.721      166.172       94.373        0.323      349.247       29.533      858.795
09/13/2014  16:20:00     -161.110     -111.589       18.086      153.305      147.765       67.207    23502.374    21834.477     4516.822        4.429        2.493      195.981       83.161        0.180      349.407       29.812      858.788
09/13/2014  16:21:00     -471.298     -166.816       -8.912      192.436      170.466       92.208    37031.540    29058.661     8502.292       16.230        3.730      499.949       95.369        0.036      349.293       29.612      858.810
09/13/2014  16:22:00     -557.027     -114.783      -35.009      253.108      181.321      113.787    64063.780    32877.244    12947.422       21.727        5.494      568.730      109.244        0.037      349.103       29.282      858.798
09/13/2014  16:23:00     -466.466     -148.398      -18.857      204.615      177.753       80.040    41867.123    31596.054     6406.337       15.991        3.993      489.502       88.981        0.033      349.117       29.307      858.800
09/13/2014  16:24:00     -392.784     -105.358      -20.188      195.226      195.774       82.060    38113.068    38327.441     6733.771       12.447        4.159      406.669       88.269        0.047      349.168       29.395      858.792
09/13/2014  16:25:00     -406.572     -229.281      -22.145      219.153      159.886       95.340    48027.927    25563.645     9089.741       15.051        4.134      466.766      102.798        0.049      349.137       29.338      858.809
09/13/2014  16:26:00     -393.659     -197.853      -30.641      242.100      136.549      102.551    58612.249    18645.753    10516.716       14.140        4.389      440.583      116.747        0.070      349.065       29.216      858.814
09/13/2014  16:27:00     -353.667     -225.224        0.820      214.669      159.617       80.942    46082.949    25477.706     6551.641       12.695        3.906      419.292      101.819        0.059      349.050       29.191      858.819
09/13/2014  16:28:00     -476.487     -261.295      -13.663      203.380      171.445       84.734    41363.365    29393.246     7179.804       18.671        3.897      543.429      102.914        0.036      348.969       29.050      858.803
09/13/2014  16:29:00     -481.509     -277.747      -24.680      187.941      187.275       96.947    35321.746    35071.905     9398.697       19.468        3.990      555.873       97.831        0.031      348.917       28.959      858.778
09/13/2014  16:30:00     -380.182     -208.547      -11.711      216.987      168.700      100.406    47083.561    28459.539    10081.388       13.688        4.281      433.625      110.686        0.065      349.038       29.169      858.760
09/13/2014  16:31:00     -420.345     -111.349       -8.704      208.775      161.487       91.571    43587.036    26078.209     8385.244       13.359        3.903      434.843       95.048        0.048      349.229       29.500      858.809
09/13/2014  16:32:00     -296.909     -215.364       -6.476      157.253      126.423       80.058    24728.535    15982.732     6409.289        9.084        2.356      366.792       83.385        0.052      349.048       29.187      858.808
09/13/2014  16:33:00     -163.472     -100.835       -4.948      134.345       98.761       66.794    18048.478     9753.763     4461.373        3.458        1.613      192.070       69.272        0.130      349.117       29.307      858.776
09/13/2014  16:34:00     -288.839      -66.950       -5.556      181.011      139.318       70.048    32764.911    19409.467     4906.665        7.250        2.854      296.496       79.534        0.072      349.146       29.356      858.754
09/13/2014  16:35:00     -321.247       41.575      -16.251      186.216      123.616       74.802    34676.247    15280.837     5595.357        8.036        2.778      323.926       90.913        0.079      349.234       29.509      858.728
09/13/2014  16:36:00     -174.878     -165.122       12.326      200.293      161.685      100.227    40117.185    26141.965    10045.412        6.714        3.815      240.516      120.856        0.252      349.242       29.523      858.711
09/13/2014  16:37:00     -221.625      -76.617       -8.296      141.091      101.803       65.127    19906.744    10363.839     4241.464        4.478        1.726      234.495       68.623        0.086      349.388       29.777      858.721
09/13/2014  16:38:00     -340.086     -168.636      -18.977      180.734      159.058       77.667    32664.878    25299.319     6032.164       10.422        3.200      379.600       83.520        0.048      349.275       29.579      858.699
09/13/2014  16:39:00     -430.081      -31.243      -30.045      194.150      165.225       88.683    37694.263    27299.213     7864.743       12.984        3.643      431.214       99.388        0.053      349.351       29.713      858.664
09/13/2014  16:40:00     -342.405      -57.595       -0.013      205.183      110.613       71.977    42100.038    12235.265     5180.638        9.003        2.976      347.215       81.000        0.054      349.363       29.733      858.648
09/13/2014  16:41:00     -347.554      -27.130       -8.861      287.116      129.038       81.551    82435.548    16650.853     6650.518       11.365        5.287      348.611      111.391        0.102      349.378       29.759      858.698
09/13/2014  16:42:00     -470.355     -105.702      -22.279      226.890      195.070       89.960    51478.978    38052.291     8092.748       16.525        4.881      482.086      107.497        0.050      349.233       29.508      858.680
09/13/2014  16:43:00     -389.150     -160.736      -20.349      206.515      132.736       77.880    42648.471    17618.769     6065.342       12.200        3.317      421.039       99.871        0.056      349.148       29.361      858.675
09/13/2014  16:44:00     -348.508      -59.084      -17.697      156.574      116.213       65.981    24515.545    13505.396     4353.527        8.381        2.119      353.481       75.929        0.046      349.216       29.479      858.702
09/13/2014  16:45:00     -218.748      -35.976        3.887      194.591      115.946       70.968    37865.583    13443.515     5036.500        5.274        2.817      221.687       85.869        0.150      349.370       29.743      858.706
09/13/2014  16:46:00     -562.125      -62.380      -25.684      239.278      223.935       89.637    57254.038    50146.801     8034.722       21.797        5.772      565.576      103.016        0.033      349.159       29.379      858.705
09/13/2014  16:47:00     -298.004     -118.393       -3.184      251.633      175.993       98.589    63319.174    30973.623     9719.701       10.341        5.201      320.661      118.609        0.137      349.129       29.328      858.693
09/13/2014  16:48:00     -210.231       31.851        7.001      175.919      100.149       76.532    30947.539    10029.844     5857.210        4.604        2.342      212.630       75.142        0.125      349.340       29.694      858.705
09/13/2014  16:49:00     -472.437     -115.770       -8.772      199.467      137.150       76.574    39786.959    18810.057     5863.594       15.056        3.223      486.415       68.100        0.020      349.095       29.267      858.697
09/13/2014  16:50:00     -274.947      -38.106       -2.661      141.597      132.570       69.524    20049.849    17574.895     4833.524        5.975        2.123      277.575       71.063        0.066      349.203       29.454      858.699
09/13/2014  16:51:00     -160.324      -17.653        6.032      202.999      116.435       64.514    41208.613    13557.039     4162.069        4.248        2.946      161.293       82.389        0.261      349.165       29.392      858.677
09/13/2014  16:52:00     -194.644      -47.034      -24.469      160.571       85.744       42.832    25782.970     7351.998     1834.550        3.783        1.748      200.246       27.959        0.019      349.294       29.614      858.672
09/13/2014  16:53:00     -147.185       24.872       -5.014      123.874       74.663       56.451    15344.738     5574.612     3186.704        2.320        1.205      149.272       61.904        0.172      349.233       29.511      858.682
09/13/2014  16:54:00     -246.030     -108.433      -12.486      124.742      100.189       54.876    15560.643    10037.927     3011.394        5.052        1.430      268.865       49.231        0.034      349.229       29.502      858.670
09/13/2014  16:55:00     -156.459     -121.688       14.436      143.522       95.866       61.417    20598.457     9190.363     3772.020        3.652        1.678      198.210       67.787        0.117      349.277       29.585      858.670
09/13/2014  16:56:00     -279.703     -213.029       -8.716      113.315      104.031       59.985    12840.297    10822.453     3598.248        7.547        1.363      351.589       58.334        0.028      349.138       29.340      858.635
09/13/2014  16:57:00     -168.566      -94.734       -0.676      118.889      104.128       60.860    14134.563    10842.681     3703.921        3.303        1.434      193.363       65.580        0.115      349.206       29.460      858.628
09/13/2014  16:58:00     -231.917     -115.207       15.265      148.410      147.071       77.765    22025.620    21629.816     6047.329        5.849        2.485      258.956       80.984        0.098      349.199       29.449      858.599
09/13/2014  16:59:00     -316.798     -138.503        5.170      211.640      124.518       72.152    44791.531    15504.826     5205.863        9.253        3.275      345.751       87.053        0.063      349.123       29.315      858.583
09/13/2014  17:00:00     -154.745     -121.522       14.392      146.715      111.780       60.360    21525.366    12494.827     3643.322        3.829        1.883      196.757       75.185        0.146      349.253       29.544      858.583
09/13/2014  17:01:00     -192.250     -127.292        7.803      183.915      115.091       63.897    33824.675    13245.876     4082.888        5.218        2.558      230.572       84.882        0.136      349.212       29.471      858.573
09/13/2014  17:02:00     -306.136     -167.705      -17.292      129.122       94.090       60.198    16672.428     8852.890     3623.836        7.564        1.457      349.062       65.405        0.035      349.201       29.453      858.574
09/13/2014  17:03:00     -374.086      -82.313      -24.148      161.336      111.736       61.871    26029.449    12484.930     3828.055        9.481        2.117      383.035       63.057        0.027      349.291       29.608      858.586
09/13/2014  17:04:00     -260.586      -72.422       -6.626       94.938       87.524       48.419     9013.269     7660.491     2344.396        4.610        0.951      270.463       25.426        0.009      349.297       29.618      858.597
09/13/2014  17:05:00     -278.889     -241.862        4.185      224.300      195.158      113.923    50310.356    38086.678    12978.368       11.882        5.069      369.156      128.898        0.122      349.174       29.404      858.567
09/13/2014  17:06:00     -373.494     -277.116       -0.527      224.540      173.356      103.519    50418.020    30052.294    10716.126       15.372        4.559      465.072      124.003        0.071      349.183       29.420      858.534
09/13/2014  17:07:00     -348.374     -265.741       -9.171      209.669      143.765       84.865    43961.257    20668.289     7202.061       13.194        3.592      438.159       81.282        0.034      349.173       29.403      858.540
09/13/2014  17:08:00     -581.553     -244.608      -25.849      261.861      189.334      117.678    68571.327    35847.201    13848.185       25.847        5.913      630.902      127.726        0.041      349.058       29.203      858.537
09/13/2014  17:09:00     -316.441     -210.372        3.904      224.336      172.723       98.464    50326.859    29833.282     9695.253       11.712        4.493      379.989      107.182        0.080      349.154       29.372      858.544
09/13/2014  17:10:00     -451.777     -216.989       -9.255      275.036      193.815      106.070    75644.569    37564.186    11250.744       18.785        6.223      501.186      122.975        0.060      349.034       29.162      858.551
09/13/2014  17:11:00     -355.495     -198.683      -16.456      232.700      204.075      113.843    54149.059    41646.761    12960.310       13.742        5.438      407.249      136.100        0.112      349.037       29.167      858.535
09/13/2014  17:12:00     -293.828     -167.493       -0.615      171.218      156.246       96.410    29315.530    24412.713     9294.869        8.870        3.151      338.214       91.003        0.072      349.101       29.277      858.583
09/13/2014  17:13:00     -437.591     -139.840      -11.263      178.391      148.033       81.490    31823.364    21913.834     6640.634       13.576        3.019      459.392       82.241        0.032      349.036       29.166      858.590
09/13/2014  17:14:00     -482.767     -301.652      -23.554      204.849      149.460       94.665    41963.180    22338.330     8961.546       19.893        3.663      569.261       90.669        0.025      348.850       28.843      858.583
09/13/2014  17:15:00     -300.692     -156.308        9.653      171.135      123.906       89.323    29287.220    15352.761     7978.584        8.377        2.631      338.892       87.942        0.067      348.966       29.045      858.577
09/13/2014  17:16:00     -340.820     -129.042      -12.077      136.175       81.944       63.931    18543.621     6714.785     4087.165        8.115        1.467      364.431       57.696        0.025      348.998       29.099      858.579
09/13/2014  17:17:00     -185.111      -85.997       -1.737       86.610       71.327       45.617     7501.296     5087.588     2080.914        2.816        0.733      204.112       33.695        0.027      349.186       29.427      858.589
09/13/2014  17:18:00     -326.167     -211.589        0.183      203.003      126.071       80.920    41210.070    15894.019     6548.101       10.739        3.183      388.786       98.802        0.065      349.019       29.138      858.580
09/13/2014  17:19:00     -271.697     -115.352        9.305      174.342      129.462       69.062    30395.232    16760.297     4769.532        6.956        2.596      295.170       81.176        0.076      348.967       29.047      858.560
09/13/2014  17:20:00     -177.616      -28.663       12.932      107.637      101.442       55.559    11585.790    10290.454     3086.811        2.875        1.248      179.914       49.747        0.076      349.139       29.346      858.551
09/13/2014  17:21:00     -267.070      -54.764      -18.883      103.337      103.886       50.415    10678.485    10792.213     2541.653        4.934        1.201      272.627       44.632        0.027      349.143       29.350      858.556
09/13/2014  17:22:00     -261.065        0.297      -18.507      109.331      138.255       68.818    11953.323    19114.324     4735.978        5.214        1.790      261.065       57.573        0.049      349.155       29.372      858.554
09/13/2014  17:23:00     -181.720      -74.297        3.135      121.061       96.453       51.749    14655.669     9303.101     2677.932        3.259        1.332      196.321       59.427        0.092      349.173       29.404      858.545
09/13/2014  17:24:00     -310.146      -39.051      -21.618      141.556       87.255       52.170    20038.151     7613.403     2721.754        6.427        1.519      312.594       57.266        0.034      349.083       29.246      858.528
09/13/2014  17:25:00     -231.121      -51.220      -19.132       96.495      108.501       36.019     9311.297    11772.369     1297.333        3.939        1.119      236.729       31.810        0.018      349.083       29.248      858.500
09/13/2014  17:26:00     -329.308     -119.144      -19.274      111.887      127.475       57.410    12518.684    16249.946     3295.881        7.753        1.603      350.198       55.304        0.025      349.059       29.206      858.485
09/13/2014  17:27:00     -231.038     -108.937       -1.346      139.902      107.585       62.508    19572.582    11574.581     3907.304        5.015        1.753      255.433       52.862        0.043      349.069       29.223      858.440
09/13/2014  17:28:00     -254.639      -69.985      -24.245      141.621       83.658       51.848    20056.573     6998.744     2688.221        5.003        1.487      264.081       59.059        0.050      349.137       29.340      858.463
09/13/2014  17:29:00     -226.508      -78.216       -1.741      148.074       93.097       52.251    21926.031     8667.078     2730.115        4.537        1.666      239.632       65.136        0.074      349.227       29.496      858.458
09/13/2014  17:30:00     -179.979      -93.102        8.347      148.110       94.413       51.816    21936.490     8913.750     2684.941        3.733        1.677      202.634       53.364        0.069      349.262       29.559      858.448
09/13/2014  17:31:00     -340.538      -68.048      -25.027      229.256      128.722       86.646    52558.320    16569.242     7507.534        9.892        3.832      347.271      101.145        0.085      349.202       29.454      858.435
09/13/2014  17:32:00     -317.473        4.227      -17.942      162.669      131.494       71.473    26461.249    17290.679     5108.382        7.499        2.443      317.501       80.521        0.064      349.242       29.522      858.454
09/13/2014  17:33:00     -490.288       19.312      -42.451      198.060      120.433       84.761    39227.745    14504.039     7184.453       15.173        3.046      490.668       91.863        0.035      349.073       29.228      858.451
09/13/2014  17:34:00     -558.060      -59.939      -46.953      172.635      135.474       84.936    29802.971    18353.211     7214.050       18.629        2.769      561.270       85.826        0.023      349.037       29.169      858.443
09/13/2014  17:35:00     -259.270     -163.360        2.027      199.295      159.169       86.303    39718.383    25334.693     7448.239        8.319        3.625      306.443      103.879        0.115      349.045       29.183      858.466
09/13/2014  17:36:00     -207.763     -109.304        3.323      160.695      108.380       64.696    25822.900    11746.194     4185.589        4.843        2.088      234.761       72.664        0.096      349.049       29.189      858.476
09/13/2014  17:37:00     -269.239       17.657      -13.211      119.078      108.242       53.727    14179.472    11716.281     2886.566        5.087        1.439      269.818       55.806        0.043      349.063       29.213      858.468
09/13/2014  17:38:00     -161.008      -52.415        7.453      104.495       86.035       50.328    10919.147     7401.952     2532.912        2.479        1.043      169.325       54.930        0.105      349.112       29.298      858.462
09/13/2014  17:39:00     -244.422      -83.376      -11.745      187.994       81.935       54.247    35341.688     6713.358     2942.743        5.591        2.250      258.252       83.279        0.104      349.082       29.246      858.445
09/13/2014  17:40:00     -295.688     -191.853      -20.578      112.107      106.417       54.149    12568.035    11324.589     2932.081        7.574        1.341      352.476       50.733        0.021      348.944       29.007      858.440
09/13/2014  17:41:00     -228.140     -148.049       10.503      153.857       99.749       67.781    23671.990     9949.772     4594.295        5.614        1.911      271.967       82.919        0.093      348.964       29.040      858.408
09/13/2014  17:42:00     -285.872     -115.911       -9.720      156.607      140.881       74.162    24525.808    19847.320     5500.071        7.255        2.494      308.477       84.945        0.076      348.992       29.091      858.379
09/13/2014  17:43:00     -222.525      -86.529      -11.887      110.962      101.497       41.729    12312.492    10301.569     1741.347        4.075        1.218      238.756       42.530        0.032      349.056       29.202      858.405
09/13/2014  17:44:00     -283.987     -110.263       -4.832      118.344       88.424       46.031    14005.391     7818.776     2118.878        5.838        1.197      304.642       45.503        0.022      349.049       29.187      858.403
09/13/2014  17:45:00     -154.761      -79.058       -5.582      115.799       77.612       45.088    13409.407     6023.649     2032.946        2.585        1.073      173.785       39.951        0.053      349.063       29.213      858.421
09/13/2014  17:46:00     -170.591        5.514        6.088      142.757      106.105       60.484    20379.562    11258.220     3658.365        3.223        1.765      170.680       62.459        0.134      349.220       29.485      858.417
09/13/2014  17:47:00     -246.937      -47.866      -25.418      118.857       92.773       60.785    14126.897     8606.892     3694.810        4.517        1.321      251.534       58.134        0.053      349.145       29.356      858.428
09/13/2014  17:48:00     -305.433      -90.237      -18.233      134.862       97.859       56.937    18187.658     9576.330     3241.817        6.638        1.550      318.484       61.227        0.037      349.033       29.161      858.413
09/13/2014  17:49:00     -323.001     -169.552       -8.044      152.174      116.884       67.408    23156.918    13661.944     4543.778        8.725        2.068      364.798       70.608        0.037      348.924       28.973      858.385
09/13/2014  17:50:00     -390.608     -259.534       -9.643      250.788      155.223       89.170    62894.821    24094.115     7951.206       15.747        4.747      468.970      110.256        0.055      348.912       28.952      858.386
09/13/2014  17:51:00     -390.175     -194.445      -17.288      153.723      155.548       71.621    23630.616    24195.264     5129.586       12.164        2.648      435.942       64.425        0.022      348.878       28.893      858.394
09/13/2014  17:52:00     -218.243      -97.595       -0.994      149.635      118.811       67.503    22390.497    14116.020     4556.596        4.910        2.053      239.071       85.677        0.128      348.897       28.925      858.405
09/13/2014  17:53:00     -322.116     -207.273      -17.151      208.103      125.325       82.987    43306.785    15706.386     6886.837       10.645        3.295      383.041       92.680        0.059      348.851       28.845      858.392
09/13/2014  17:54:00     -376.032     -155.548       -0.898      210.072      137.263       86.859    44130.166    18841.198     7544.485       11.804        3.526      406.935       99.162        0.059      348.782       28.727      858.399
09/13/2014  17:55:00     -353.442     -110.469      -25.546      170.289      150.423       81.401    28998.274    22627.047     6626.143        9.800        2.913      370.303       68.080        0.034      348.821       28.794      858.396
09/13/2014  17:56:00     -298.503     -155.435       -2.569      162.909      125.491       75.429    26539.488    15748.029     5689.586        8.062        2.399      336.548       68.510        0.041      348.808       28.770      858.387
09/13/2014  17:57:00     -308.474     -109.709      -14.687      155.124      143.720       69.877    24063.488    20655.541     4882.863        7.850        2.480      327.402       67.787        0.043      348.774       28.713      858.365
09/13/2014  17:58:00     -307.377     -194.776      -19.253      166.771      147.168       90.848    27812.614    21658.354     8253.353        9.525        2.886      363.893       91.941        0.064      348.811       28.776      858.375
09/13/2014  17:59:00     -278.012     -112.185       -4.215      173.041      113.112       64.456    29943.079    12794.302     4154.639        6.839        2.345      299.794       77.808        0.067      348.817       28.786      858.372
09/13/2014  18:00:00     -155.372      -74.696        3.083      140.016       88.328       53.309    19604.544     7801.852     2841.850        2.998        1.512      172.395       63.204        0.134      348.862       28.866      858.370
09/13/2014  18:01:00     -308.389     -231.897      -18.467      138.715       92.398       64.961    19241.896     8537.345     4219.897        9.060        1.600      385.850       60.056        0.024      348.773       28.710      858.356
09/13/2014  18:02:00     -301.792     -138.619       -8.146      126.312       96.766       59.059    15954.598     9363.580     3487.944        6.958        1.440      332.105       65.500        0.039      348.760       28.688      858.353
09/13/2014  18:03:00     -186.416      -90.463       -3.815      107.539      105.022       63.839    11564.616    11029.650     4075.433        3.480        1.333      207.206       57.576        0.077      348.835       28.819      858.366
09/13/2014  18:04:00     -130.814      -93.555        0.977      106.014       70.897       46.708    11238.911     5026.319     2181.652        2.215        0.922      160.826       51.497        0.103      348.813       28.781      858.382
09/13/2014  18:05:00     -191.506        6.691       -7.944      126.457      105.770       52.883    15991.396    11187.210     2796.606        3.337        1.499      191.622       63.641        0.110      348.800       28.758      858.374
09/13/2014  18:06:00     -312.255     -107.698        0.817      167.963      106.864       71.302    28211.611    11419.939     5083.913        7.690        2.236      330.306       78.320        0.056      348.772       28.709      858.366
09/13/2014  18:07:00     -220.507      -52.709        2.718      192.880      139.359       91.111    37202.603    19420.942     8301.173        5.816        3.246      226.719      108.801        0.230      348.772       28.710      858.339
09/13/2014  18:08:00     -283.776      -93.847        3.356      186.554      133.515       71.778    34802.317    17826.137     5152.135        7.355        2.889      298.892       81.227        0.074      348.797       28.752      858.338
09/13/2014  18:09:00     -288.683     -131.217       -7.390      147.059      108.950       59.850    21626.343    11870.134     3582.047        6.884        1.854      317.105       68.836        0.047      348.788       28.736      858.365
09/13/2014  18:10:00     -315.159     -187.577       -2.711      175.670      139.275       80.040    30860.124    19397.522     6406.411        9.558        2.833      366.757       71.574        0.038      348.766       28.699      858.358
09/13/2014  18:11:00     -351.655     -150.760      -20.211      155.922      126.301       70.648    24311.559    15951.961     4991.204        9.602        2.263      382.609       70.735        0.034      348.727       28.630      858.359
09/13/2014  18:12:00     -363.078      -57.540      -11.758      215.662      125.608       77.796    46510.110    15777.468     6052.243       10.180        3.417      367.609       86.041        0.055      348.709       28.599      858.360
09/13/2014  18:13:00     -306.530     -133.694       -3.323      170.314      114.433       70.754    29006.720    13094.929     5006.174        7.947        2.355      334.417       80.430        0.058      348.718       28.617      858.349
09/13/2014  18:14:00     -218.473     -160.625       -3.844      155.728      126.281       85.035    24251.326    15946.956     7231.019        6.048        2.371      271.166       88.228        0.106      348.696       28.579      858.360
09/13/2014  18:15:00     -139.449     -105.019       -7.705      125.031       87.898       60.413    15632.667     7726.013     3649.706        2.877        1.350      174.571       51.081        0.086      348.726       28.632      858.385
09/13/2014  18:16:00     -264.972     -171.746       -8.588      149.019      115.284       65.979    22206.774    13290.315     4353.185        6.981        1.993      315.764       69.075        0.048      348.725       28.628      858.389
09/13/2014  18:17:00     -307.258     -169.851      -13.197      149.273      102.691       66.502    22282.426    10545.530     4422.475        8.033        1.863      351.080       75.207        0.046      348.709       28.600      858.389
09/13/2014  18:18:00     -419.884     -190.239      -23.129      180.736      135.362       84.844    32665.654    18322.784     7198.537       13.560        2.909      460.970       91.832        0.040      348.643       28.484      858.397
09/13/2014  18:19:00     -263.914      -86.754      -21.573      146.977      106.317       57.849    21602.176    11303.227     3346.473        5.694        1.813      277.807       56.590        0.041      348.697       28.578      858.387
09/13/2014  18:20:00     -107.431      -18.296        3.572      103.207       77.002       46.607    10651.611     5929.306     2172.224        1.532        0.938      108.977       34.410        0.100      348.726       28.629      858.395
09/13/2014  18:21:00     -163.939      -45.421       -7.816      108.328      101.662       53.758    11734.917    10335.245     2889.971        2.698        1.248      170.114       59.780        0.123      348.716       28.615      858.402
09/13/2014  18:22:00     -333.195      -14.098      -24.600      108.275      100.476       49.795    11723.537    10095.414     2479.497        6.806        1.215      333.494       45.870        0.019      348.626       28.455      858.409
09/13/2014  18:23:00     -390.479      -56.644      -24.968      157.007      138.778       71.328    24651.166    19259.196     5087.624       10.264        2.450      394.566       79.890        0.041      348.596       28.402      858.389
09/13/2014  18:24:00     -353.169      -39.833      -15.244      173.497      116.106       69.514    30101.369    13480.655     4832.203        8.747        2.421      355.408       75.580        0.045      348.561       28.342      858.403
09/13/2014  18:25:00     -416.035     -108.540      -27.079      145.052      150.898       67.001    21040.009    22770.286     4489.197       11.694        2.415      429.961       62.279        0.021      348.581       28.376      858.409
09/13/2014  18:26:00     -372.230      -17.791      -15.701      151.924      114.642       61.221    23080.860    13142.765     3748.015        8.954        1.999      372.655       67.370        0.033      348.554       28.330      858.418
09/13/2014  18:27:00     -177.425      -10.211        6.218      123.836      101.588       60.881    15335.427    10320.110     3706.541        3.049        1.468      177.718       59.631        0.113      348.575       28.367      858.427
09/13/2014  18:28:00     -236.755      -47.198       -5.742       98.382       94.196       47.904     9679.003     8872.798     2294.806        3.958        1.042      241.414       42.870        0.032      348.585       28.385      858.451
09/13/2014  18:29:00     -375.090     -110.969       -6.559      172.572      151.825       80.775    29781.073    23050.803     6524.525       10.619        2.968      391.160       93.767        0.057      348.525       28.282      858.431
09/13/2014  18:30:00     -239.435      -24.464      -16.876      133.978       96.426       58.737    17950.192     9297.993     3450.071        4.445        1.535      240.682       68.794        0.082      348.550       28.324      858.443
09/13/2014  18:31:00     -264.365      -31.374      -12.009      186.343      112.007       70.533    34723.775    12545.503     4974.955        6.162        2.612      266.221       78.776        0.088      348.532       28.294      858.416
09/13/2014  18:32:00     -222.991       10.326        4.226      163.550       79.762       65.914    26748.726     6362.011     4344.716        4.365        1.873      223.230       76.146        0.116      348.487       28.217      858.411
09/13/2014  18:33:00     -197.844     -129.172       -6.176      135.080      119.267       64.165    18246.726    14224.717     4117.112        4.622        1.829      236.279       71.303        0.091      348.453       28.157      858.408
09/13/2014  18:34:00     -294.473     -167.585       -2.494      187.489      160.644       83.001    35152.176    25806.490     6889.110        9.132        3.392      338.820       95.501        0.079      348.429       28.117      858.392
09/13/2014  18:35:00     -247.348     -101.165       -0.417      141.440      127.430       64.481    20005.191    16238.437     4157.852        5.590        2.020      267.237       59.879        0.050      348.451       28.154      858.376
09/13/2014  18:36:00     -151.903      -77.492       13.151      137.750       93.182       56.382    18975.160     8682.883     3178.886        3.004        1.542      170.527       65.180        0.146      348.420       28.101      858.388
09/13/2014  18:37:00     -221.970      -50.794        1.809      105.926      114.136       73.175    11220.422    13026.964     5354.650        4.072        1.480      227.707       52.877        0.054      348.408       28.080      858.392
09/13/2014  18:38:00     -215.082     -109.761       -2.102      176.176      128.558       74.613    31037.957    16527.091     5567.054        5.571        2.657      241.470       78.068        0.105      348.377       28.026      858.391
09/13/2014  18:39:00     -355.141     -141.740      -16.069      160.864      147.638       82.565    25877.208    21797.007     6816.919       10.047        2.725      382.381       81.728        0.046      348.357       27.990      858.379
09/13/2014  18:40:00     -312.457     -229.744       -5.713      161.604      178.798       93.122    26115.862    31968.851     8671.751       10.859        3.338      387.830       91.826        0.056      348.322       27.928      858.388
09/13/2014  18:41:00     -292.360     -208.751        1.114      179.742      137.706       82.162    32307.084    18962.967     6750.669        9.353        2.901      359.237       85.965        0.057      348.293       27.879      858.414
09/13/2014  18:42:00     -448.929     -206.274      -29.501      177.370      129.294       82.054    31460.015    16716.914     6732.911       14.992        2.745      494.051       92.720        0.035      348.296       27.884      858.414
09/13/2014  18:43:00     -213.823     -156.211       -0.415      145.671      120.627       80.800    21220.065    14550.972     6528.703        5.620        2.115      264.806       94.180        0.126      348.296       27.885      858.428
09/13/2014  18:44:00     -298.564     -139.210       -8.784      145.817       91.764       56.012    21262.591     8420.715     3137.303        7.070        1.641      329.423       47.157        0.020      348.264       27.829      858.440
09/13/2014  18:45:00     -281.080     -127.208       -6.923      135.622       92.179       60.944    18393.362     8496.889     3714.150        6.291        1.530      308.525       59.849        0.038      348.248       27.800      858.444
09/13/2014  18:46:00     -149.855      -93.787        4.222      122.779      103.683       56.585    15074.792    10750.165     3201.846        3.014        1.451      176.784       59.498        0.113      348.226       27.764      858.445
09/13/2014  18:47:00     -279.903     -131.534      -11.293       98.107      100.272       58.577     9624.950    10054.553     3431.265        5.944        1.156      309.268       65.197        0.044      348.221       27.757      858.457
09/13/2014  18:48:00     -259.547      -45.331      -17.692      130.099      106.863       49.008    16925.827    11419.706     2401.818        5.023        1.537      263.476       44.740        0.029      348.199       27.718      858.472
09/13/2014  18:49:00     -238.649     -107.588       -8.256      106.482       91.128       47.718    11338.513     8304.314     2276.977        4.525        1.096      261.779       49.570        0.036      348.171       27.669      858.481
09/13/2014  18:50:00     -169.250      -89.560        0.566      144.955      119.480       61.066    21012.013    14275.495     3729.034        3.784        1.951      191.486       66.405        0.120      348.159       27.650      858.475
09/13/2014  18:51:00     -211.327     -122.447       -4.606      164.240       97.042       71.331    26974.659     9417.075     5088.065        5.057        2.074      244.238       76.118        0.097      348.135       27.606      858.481
09/13/2014  18:52:00     -303.656     -124.459        2.922      261.395      142.818       73.196    68327.546    20396.941     5357.659       10.088        4.704      328.172      106.237        0.105      348.148       27.629      858.471
09/13/2014  18:53:00     -266.422     -177.720        2.628      164.556      107.849       68.599    27078.540    11631.439     4705.800        7.299        2.171      320.258       70.367        0.048      348.143       27.621      858.483
09/13/2014  18:54:00     -251.364     -182.785      -10.264      127.687       98.169       69.459    16304.024     9637.097     4824.516        6.373        1.538      310.795       65.410        0.044      348.137       27.609      858.487
09/13/2014  18:55:00     -384.647     -219.236       -8.635      143.304      129.059       76.290    20536.122    16656.199     5820.182       11.955        2.151      442.739       80.645        0.033      348.115       27.573      858.490
09/13/2014  18:56:00     -353.364     -201.331        2.307      185.523      163.332       79.590    34418.828    26677.295     6334.524       11.641        3.372      406.695       86.920        0.046      348.093       27.533      858.494
09/13/2014  18:57:00     -176.514      -46.248        3.023      139.655      134.498       66.826    19503.397    18089.730     4465.747        3.768        2.103      182.472       65.598        0.129      348.059       27.477      858.514
09/13/2014  18:58:00     -210.114      -94.189       -4.108      148.574      101.618       64.385    22074.161    10326.314     4145.490        4.479        1.827      230.259       68.499        0.088      348.066       27.486      858.514
09/13/2014  18:59:00     -335.136      -59.113      -12.784      185.624      122.454       76.372    34456.379    14995.009     5832.693        8.562        2.764      340.309       71.523        0.044      348.043       27.447      858.532
09/13/2014  19:00:00     -195.918      -25.612        9.380      164.457      133.943       71.826    27046.266    17940.682     5159.026        4.463        2.507      197.585       75.131        0.145      347.971       27.324      858.534
09/13/2014  19:01:00     -394.853       -6.390      -24.856      134.832      108.703       70.296    18179.613    11816.398     4941.589        9.575        1.747      394.905       70.866        0.032      347.974       27.328      858.560
09/13/2014  19:02:00     -350.604      -17.344      -12.638      153.262       99.567       63.137    23489.130     9913.560     3986.234        8.038        1.869      351.033       55.217        0.025      347.989       27.354      858.563
09/13/2014  19:03:00     -265.188     -112.136       -9.192      154.440      130.506       65.867    23851.743    17031.769     4338.463        6.410        2.261      287.922       65.229        0.051      347.952       27.290      858.569
09/13/2014  19:04:00     -277.134     -119.478      -22.062      197.399      116.894       69.960    38966.541    13664.284     4894.442        7.454        2.876      301.792       87.411        0.084      347.941       27.272      858.544
09/13/2014  19:05:00     -278.506     -151.340       -5.430      159.148      109.879       65.752    25328.147    12073.348     4323.261        7.110        2.086      316.969       66.408        0.044      347.927       27.247      858.561
09/13/2014  19:06:00     -272.970      -50.161      -18.756      138.446      118.103       73.893    19167.389    13948.357     5460.235        5.797        1.929      277.540       76.597        0.076      347.936       27.264      858.567
09/13/2014  19:07:00     -222.839      -82.039      -16.187      100.532       69.200       35.276    10106.685     4788.579     1244.384        3.639        0.807      237.461       37.923        0.026      347.865       27.139      858.576
09/13/2014  19:08:00     -172.349      -60.444       -6.973       80.509       64.927       35.120     6481.675     4215.543     1233.397        2.267        0.597      182.641       29.047        0.025      347.863       27.138      858.577
09/13/2014  19:09:00     -238.826     -131.464      -19.683      110.447       94.758       56.235    12198.538     8979.164     3162.345        4.952        1.217      272.618       58.292        0.046      347.838       27.093      858.580
09/13/2014  19:10:00     -180.633      -74.123      -10.219       88.806       67.518       47.846     7886.427     4558.670     2289.225        2.648        0.737      195.250       46.173        0.056      347.812       27.049      858.598
09/13/2014  19:11:00      -90.021       -5.796       15.749       88.312       73.630       42.356     7799.029     5421.364     1794.007        1.170        0.751       90.208       46.388        0.264      347.719       26.892      858.617
09/13/2014  19:12:00     -117.404      -53.303        6.124       83.975       84.188       42.823     7051.881     7087.652     1833.795        1.632        0.799      128.938       35.535        0.076      347.733       26.915      858.618
09/13/2014  19:13:00     -168.019      -66.737        1.544      157.318      102.397       42.486    24748.902    10485.058     1805.086        3.486        1.852      180.788       63.584        0.124      347.696       26.849      858.629
09/13/2014  19:14:00     -380.736      -18.940      -30.668       98.728       95.111       57.917     9747.228     9046.083     3354.407        8.420        1.107      381.206       58.069        0.023      347.790       27.010      858.628
09/13/2014  19:15:00     -179.520     -106.052       -2.855       74.298       72.114       39.016     5520.239     5200.404     1522.287        2.786        0.612      208.505       29.920        0.021      347.722       26.895      858.639
09/13/2014  19:16:00     -263.617      -16.351      -15.740      105.099       68.742       42.317    11045.762     4725.509     1790.686        4.378        0.878      264.124       44.694        0.029      347.717       26.884      858.638
09/13/2014  19:17:00     -191.632      -41.527       -0.653       93.163       85.853       45.164     8679.316     7370.746     2039.811        2.827        0.904      196.079       47.621        0.059      347.661       26.790      858.646
09/13/2014  19:18:00     -206.860      -69.717      -11.480      131.184       92.403       44.528    17209.199     8538.226     1982.715        3.775        1.387      218.292       54.307        0.062      347.691       26.841      858.645
09/13/2014  19:19:00     -409.223      -77.684      -16.739      139.080      124.659       63.235    19343.130    15539.959     3998.655       10.632        1.944      416.531       59.452        0.020      347.701       26.857      858.663
09/13/2014  19:20:00     -320.754     -105.401       -9.336      149.966      113.515       53.741    22489.821    12885.739     2888.131        7.617        1.913      337.627       52.900        0.025      347.658       26.782      858.675
09/13/2014  19:21:00     -263.357      -93.596        0.293      155.500      113.899       79.998    24180.363    12973.032     6399.726        6.083        2.178      279.495       83.201        0.089      347.637       26.747      858.666
09/13/2014  19:22:00     -226.077      -51.496       -1.833      140.132       77.013       51.002    19636.886     5930.971     2601.246        4.096        1.408      231.868       62.325        0.072      347.594       26.675      858.677
09/13/2014  19:23:00     -307.282      -34.720      -15.219      128.451      105.112       62.421    16499.661    11048.632     3896.348        6.365        1.572      309.238       55.618        0.032      347.609       26.698      858.676
09/13/2014  19:24:00     -207.336      -38.443        0.220      118.346       92.686       57.811    14005.818     8590.743     3342.115        3.520        1.297      210.870       64.807        0.094      347.575       26.640      858.678
09/13/2014  19:25:00     -183.183      -48.557       -3.767      110.227       85.009       47.682    12150.100     7226.539     2273.533        2.879        1.083      189.509       47.451        0.063      347.564       26.623      858.672
09/13/2014  19:26:00     -205.361      -23.115        3.714      179.422      102.468       66.440    32192.193    10499.747     4414.311        4.491        2.355      206.658       79.425        0.148      347.548       26.595      858.667
09/13/2014  19:27:00     -388.769      -99.516      -24.047      166.196      130.664       62.830    27620.999    17073.072     3947.608       10.512        2.432      401.304       79.576        0.039      347.566       26.626      858.666
09/13/2014  19:28:00     -277.791      -60.943      -11.910      108.015      105.218       61.326    11667.271    11070.786     3760.846        5.376        1.325      284.397       50.984        0.032      347.536       26.573      858.667
09/13/2014  19:29:00     -224.679      -68.306       -1.255      135.703       88.692       59.021    18415.312     7866.200     3483.525        4.245        1.488      234.832       70.253        0.089      347.481       26.477      858.688
09/13/2014  19:30:00     -194.365      -33.798        4.806       89.053      117.495       48.199     7930.521    13805.157     2323.117        3.150        1.203      197.282       42.914        0.047      347.469       26.457      858.702
09/13/2014  19:31:00     -311.443     -152.963      -13.924      184.119      127.900       76.780    33899.982    16358.349     5895.097        8.836        2.808      346.979       84.663        0.060      347.549       26.594      858.704
09/13/2014  19:32:00     -230.514     -140.564        7.039      179.422      106.353       72.635    32192.427    11311.039     5275.806        6.085        2.439      269.991       88.493        0.107      347.507       26.523      858.698
09/13/2014  19:33:00     -180.098     -103.337       -6.763      130.887      116.312       78.774    17131.502    13528.395     6205.420        4.001        1.843      207.638       70.106        0.114      347.491       26.496      858.701
09/13/2014  19:34:00     -246.982      -68.117      -14.676      173.170      103.020       65.961    29987.870    10613.170     4350.840        5.540        2.248      256.203       80.179        0.098      347.486       26.487      858.716
09/13/2014  19:35:00     -178.208     -107.600      -13.815      136.001       97.915       53.797    18496.361     9587.306     2894.076        3.725        1.549      208.173       62.092        0.089      347.483       26.482      858.718
09/13/2014  19:36:00     -205.435      -89.867       -3.464      166.242      117.808       64.956    27636.318    13878.819     4219.301        4.801        2.287      224.231       77.647        0.120      347.464       26.450      858.726
09/13/2014  19:37:00     -181.144     -112.841       -6.874      167.284      141.498       75.562    27984.052    20021.807     5709.608        4.965        2.686      213.416       90.776        0.181      347.442       26.410      858.729
09/13/2014  19:38:00     -321.620      -75.137      -17.264      169.872      161.959       69.676    28856.619    26230.809     4854.804        8.465        2.997      330.280       70.348        0.045      347.443       26.413      858.733
09/13/2014  19:39:00     -200.997     -123.412       -5.498      145.792      119.923       77.476    21255.299    14381.520     6002.607        4.864        2.082      235.861       87.338        0.137      347.420       26.371      858.761
09/13/2014  19:40:00     -294.794      -64.901      -24.473      136.021      120.788       65.809    18501.809    14589.662     4330.890        6.456        1.871      301.854       60.377        0.040      347.412       26.356      858.756
09/13/2014  19:41:00     -329.280     -118.468        6.371      180.554      169.101       79.031    32599.892    28595.111     6245.883        9.496        3.372      349.942       89.511        0.065      347.425       26.380      858.778
09/13/2014  19:42:00     -352.594      -48.238       -0.292      150.575      103.762       69.193    22672.964    10766.530     4787.661        8.243        1.911      355.878       69.578        0.038      347.407       26.348      858.792
09/13/2014  19:43:00     -340.746     -144.685      -13.773      152.774      104.062       64.869    23339.806    10828.982     4208.002        8.780        1.919      370.191       75.472        0.042      347.382       26.307      858.803
09/13/2014  19:44:00     -246.231     -105.998       -0.429      173.369      109.500       78.822    30056.691    11990.168     6212.963        6.005        2.413      268.077       87.203        0.106      347.340       26.234      858.821
09/13/2014  19:45:00     -159.838     -101.179        3.159      125.861      102.856       71.254    15841.003    10579.328     5077.071        3.364        1.575      189.170       79.634        0.177      347.316       26.193      858.823
09/13/2014  19:46:00     -175.220     -111.255        0.595      136.390       90.083       57.630    18602.163     8114.963     3321.206        3.655        1.502      207.556       54.420        0.069      347.285       26.141      858.828
09/13/2014  19:47:00     -223.628      -80.013        9.637      160.830       93.154       71.253    25866.323     8677.644     5077.029        4.806        1.981      237.511       75.072        0.100      347.248       26.077      858.843
09/13/2014  19:48:00     -248.652      -94.888       -1.878      152.238      102.548       69.968    23176.470    10516.131     4895.501        5.471        1.929      266.142       73.696        0.077      347.244       26.070      858.853
09/13/2014  19:49:00     -294.636     -155.259       -8.162      152.381      106.948       51.532    23220.001    11437.867     2655.577        7.414        1.866      333.040       50.015        0.023      347.268       26.111      858.866
09/13/2014  19:50:00     -249.583     -129.981      -10.351      155.353      118.966       68.318    24134.475    14153.023     4667.375        6.112        2.148      281.402       71.458        0.064      347.239       26.061      858.867
09/13/2014  19:51:00     -247.955     -137.852       -1.362      178.518      111.129       67.011    31868.825    12349.676     4490.480        6.459        2.435      283.698       66.298        0.055      347.215       26.020      858.888
09/13/2014  19:52:00     -235.910     -193.398      -12.119      119.238      105.510       66.394    14217.805    11132.407     4408.228        6.148        1.488      305.051       61.473        0.041      347.223       26.032      858.892
09/13/2014  19:53:00     -273.370     -224.291      -31.020      194.277      126.097       76.923    37743.727    15900.516     5917.220        9.277        2.978      353.607       96.697        0.075      347.222       26.030      858.892
09/13/2014  19:54:00     -285.274     -226.146      -19.227      139.189      108.008       79.584    19373.524    11665.636     6333.649        8.513        1.869      364.037       75.280        0.043      347.211       26.013      858.892
09/13/2014  19:55:00     -243.443     -160.646        4.896      162.909      150.488       83.764    26539.398    22646.663     7016.364        7.064        2.810      291.670       94.214        0.104      347.196       25.986      858.893
09/13/2014  19:56:00     -298.227     -144.936       -2.390      159.742      125.404       77.908    25517.581    15726.248     6069.730        7.862        2.366      331.581       83.338        0.063      347.154       25.915      858.902
09/13/2014  19:57:00     -171.177     -151.684       11.633      175.218      135.736       82.032    30701.373    18424.218     6729.228        5.414        2.793      228.713      100.481        0.193      347.146       25.901      858.921
09/13/2014  19:58:00     -264.976     -100.035        7.304      176.308      103.031       67.427    31084.346    10615.352     4546.398        6.325        2.312      283.230       70.203        0.061      347.126       25.867      858.943
09/13/2014  19:59:00     -197.165      -58.646       -8.519       96.378      111.725       55.429     9288.733    12482.546     3072.351        3.361        1.242      205.702       59.518        0.084      347.124       25.863      858.970
09/13/2014  20:00:00     -141.599      -65.103       16.231      107.088      112.160       56.359    11467.821    12579.824     3176.322        2.588        1.361      155.848       50.378        0.104      347.092       25.808      858.982
09/13/2014  20:01:00     -341.752      -70.351      -16.612      132.994      101.336       66.414    17687.470    10269.003     4410.882        7.719        1.618      348.918       70.400        0.041      347.113       25.843      858.980
09/13/2014  20:02:00     -140.607      -85.780        3.794       97.639      102.634       62.299     9533.380    10533.781     3881.195        2.554        1.197      164.708       54.813        0.111      347.072       25.774      858.995
09/13/2014  20:03:00     -166.883     -112.238        5.898      148.571      112.898       68.835    22073.335    12745.946     4738.251        4.001        1.978      201.115       73.910        0.135      347.046       25.728      858.995
09/13/2014  20:04:00     -241.190     -173.692       -8.685      150.537      115.896       81.107    22661.279    13431.900     6578.303        6.554        2.134      297.223       76.068        0.065      347.084       25.795      859.001
09/13/2014  20:05:00     -258.304      -28.395        1.830      148.560      100.005       69.931    22070.079    10001.055     4890.316        5.224        1.848      259.860       71.718        0.076      347.049       25.733      859.017
09/13/2014  20:06:00     -245.911      -57.703        0.105      159.761      101.207       64.223    25523.620    10242.818     4124.539        5.184        1.995      252.590       66.571        0.069      347.013       25.672      859.040
09/13/2014  20:07:00     -168.363       11.185       -2.108      104.481       73.736       40.644    10916.277     5437.049     1651.961        2.324        0.900      168.734       40.115        0.057      346.963       25.587      859.072
09/13/2014  20:08:00     -128.489      -44.201        3.153      100.043       80.414       42.692    10008.575     6466.382     1822.622        1.838        0.915      135.879       48.472        0.127      346.924       25.521      859.075
09/13/2014  20:09:00     -198.904      -33.350       -1.628       73.169       70.213       41.741     5353.682     4929.890     1742.288        2.635        0.601      201.680       41.247        0.042      346.954       25.570      859.090
09/13/2014  20:10:00      -98.467      -61.903       15.800       74.486       87.002       49.972     5548.179     7569.282     2497.188        1.469        0.781      116.309       46.404        0.159      346.861       25.410      859.111
09/13/2014  20:11:00     -192.657      -11.384      -15.440       83.363       76.796       44.011     6949.383     5897.549     1936.933        2.613        0.739      192.993       37.296        0.037      346.912       25.500      859.117
09/13/2014  20:12:00     -137.680      -40.823      -23.640      112.860       78.460       60.988    12737.400     6155.948     3719.497        2.189        1.131      143.604       74.203        0.267      346.884       25.450      859.130
09/13/2014  20:13:00     -154.947       14.475       -6.339       52.756       33.467       30.773     2783.208     1120.043      947.007        1.455        0.243      155.622       30.120        0.037      346.905       25.486      859.127
09/13/2014  20:14:00      -73.779       14.618       -3.680       50.905       37.294       30.202     2591.353     1390.837      912.188        0.528        0.245       75.213       24.418        0.105      346.784       25.281      859.154
09/13/2014  20:15:00     -104.340        5.119       -4.341       54.993       53.715       24.280     3024.197     2885.308      589.515        0.871        0.325      104.466       16.061        0.024      346.672       25.088      859.180
09/13/2014  20:16:00      -71.318       -5.200        0.930       80.094       35.510       30.263     6415.092     1260.973      915.852        0.685        0.430       71.507       43.314        0.367      346.780       25.274      859.199
09/13/2014  20:17:00     -115.534      -29.349       -5.153       46.326       56.043       23.804     2146.063     3140.797      566.615        1.004        0.293      119.204       20.562        0.030      346.770       25.257      859.223
09/13/2014  20:18:00     -105.242      -45.705        5.448       43.229       75.221       26.068     1868.751     5658.178      679.545        1.070        0.410      114.738       27.892        0.059      346.680       25.102      859.236
09/13/2014  20:19:00     -157.774      -24.493       -7.826       75.333       64.974       39.280     5675.027     4221.627     1542.947        1.849        0.572      159.663       34.822        0.048      346.667       25.078      859.259
09/13/2014  20:20:00      -58.275       13.761       -5.377       48.227       43.878       20.658     2325.821     1925.285      426.739        0.415        0.234       59.878       18.013        0.091      346.680       25.101      859.269
09/13/2014  20:21:00      -34.879       13.455       -3.986       46.632       42.477       25.241     2174.590     1804.313      637.125        0.301        0.231       37.384       20.593        0.303      346.723       25.176      859.300
09/13/2014  20:22:00     -102.687      -10.800       -4.898       35.276       41.860       23.060     1244.399     1752.247      531.785        0.711        0.176      103.254       15.837        0.024      346.732       25.191      859.318
09/13/2014  20:23:00      -89.507      -23.765       -5.262       25.411       24.144       12.308      645.699      582.927      151.476        0.499        0.069       92.608        7.975        0.007      346.742       25.209      859.342
09/13/2014  20:24:00      -81.343       50.207       -9.308       53.674       42.190       23.044     2880.943     1779.971      531.026        0.721        0.260       95.590       16.723        0.031      346.670       25.085      859.364
09/13/2014  20:25:00     -154.197       -1.487       -9.643       53.697       49.689       34.002     2883.347     2468.991     1156.155        1.519        0.325      154.204       30.079        0.038      346.704       25.142      859.378
09/13/2014  20:26:00      -76.688       61.837      -14.104       42.871       27.611       19.014     1837.885      762.355      361.520        0.643        0.148       98.514       16.341        0.028      346.640       25.034      859.397
09/13/2014  20:27:00      -46.049       64.973       -5.103       36.473       45.880       19.596     1330.306     2105.003      383.995        0.509        0.191       79.637       22.348        0.079      346.655       25.057      859.404
09/13/2014  20:28:00      -34.381       51.871       -9.508       25.571       33.586       20.786      653.861     1128.030      432.075        0.309        0.111       62.230       13.302        0.046      346.586       24.941      859.411
09/13/2014  20:29:00      -45.241       82.287      -12.315       33.748       27.591       20.538     1138.947      761.262      421.805        0.565        0.116       93.904       15.906        0.029      346.611       24.983      859.411
09/13/2014  20:30:00      -66.854      122.563      -27.216       42.956       36.298       19.543     1845.182     1317.523      381.941        1.189        0.177      139.611        9.806        0.005      346.718       25.166      859.396
09/13/2014  20:31:00      -73.193       83.034      -24.777       22.767       28.708       16.304      518.336      824.160      265.817        0.724        0.080      110.688       14.885        0.018      346.695       25.128      859.417
09/13/2014  20:32:00      -41.327       64.075      -15.497       24.998       18.975       15.530      624.887      360.057      241.189        0.364        0.061       76.247       13.103        0.030      346.634       25.023      859.422
09/13/2014  20:33:00      -22.562      134.731      -24.690       31.362       36.850       17.167      983.574     1357.903      294.704        1.095        0.132      136.608       15.123        0.012      346.661       25.068      859.440
09/13/2014  20:34:00     -134.662      101.784      -26.208       76.369       75.991       31.337     5832.277     5774.577      982.035        2.088        0.629      168.801       35.125        0.043      346.665       25.072      859.459
09/13/2014  20:35:00      -72.403      147.188      -26.177       46.667       46.486       28.058     2177.768     2160.960      787.256        1.636        0.256      164.032       20.817        0.016      346.734       25.193      859.477
09/13/2014  20:36:00      -33.299       98.134       -7.760       33.036       42.633       23.050     1091.363     1817.554      531.325        0.712        0.172      103.629       13.336        0.017      346.585       24.938      859.502
09/13/2014  20:37:00      -56.131       18.167       -2.944       18.958       28.581       20.722      359.404      816.874      429.421        0.255        0.080       58.997        8.069        0.019      346.530       24.844      859.529
09/13/2014  20:38:00     -137.174       33.212      -16.949       50.149       31.199       24.357     2514.898      973.382      593.244        1.214        0.204      141.137       27.373        0.038      346.601       24.965      859.557
09/13/2014  20:39:00     -105.863       66.780      -18.461       26.908       24.885       16.333      724.045      619.269      266.772        0.881        0.081      125.166       16.883        0.018      346.743       25.210      859.583
09/13/2014  20:40:00      -65.607       63.331       -9.335       44.595       43.570       24.401     1988.716     1898.324      595.411        0.644        0.224       91.187       23.194        0.065      346.711       25.156      859.582
09/13/2014  20:41:00      -78.971       64.510      -20.155       36.219       50.922       17.033     1311.798     2593.014      290.127        0.750        0.210      101.970       14.334        0.020      346.751       25.224      859.577
09/13/2014  20:42:00      -70.517       17.044      -12.252       33.590       23.912       21.500     1128.302      571.789      462.260        0.379        0.108       72.547       11.607        0.026      346.711       25.156      859.574
09/13/2014  20:43:00      -34.537       67.311       -7.398       19.011       39.801       18.902      361.404     1584.141      357.297        0.404        0.115       75.654       24.446        0.104      346.701       25.138      859.557
09/13/2014  20:44:00      -87.368       51.806      -19.274       35.371       23.983       12.887     1251.086      575.176      166.079        0.634        0.100      101.573       10.940        0.012      346.642       25.036      859.576
09/13/2014  20:45:00     -147.551       62.439      -22.051       49.184       39.760       24.878     2419.048     1580.850      618.918        1.539        0.231      160.219       20.402        0.016      346.662       25.071      859.572
09/13/2014  20:46:00     -133.006      133.877      -36.908       46.097       37.330       26.365     2124.916     1393.502      695.137        2.059        0.211      188.716       20.264        0.012      346.671       25.085      859.578
09/13/2014  20:47:00     -106.042      132.307      -26.907       55.528       45.833       32.781     3083.369     2100.662     1074.566        1.787        0.313      169.558       29.104        0.029      346.673       25.087      859.581
09/13/2014  20:48:00     -137.214      105.616      -27.457       52.546       63.848       36.970     2761.087     4076.586     1366.805        1.947        0.410      173.154       35.676        0.042      346.584       24.935      859.600
09/13/2014  20:49:00     -136.830      107.831      -29.286       31.649       55.166       25.222     1001.647     3043.242      636.164        1.794        0.234      174.213       17.591        0.010      346.611       24.981      859.619
09/13/2014  20:50:00      -80.690       71.891      -11.632       38.519       50.684       24.459     1483.712     2568.829      598.234        0.823        0.233      108.070       21.788        0.041      346.525       24.836      859.623
09/13/2014  20:51:00     -102.761      113.032      -21.023       57.898       64.802       30.325     3352.173     4199.294      919.627        1.612        0.424      152.762       21.820        0.020      346.501       24.793      859.643
09/13/2014  20:52:00      -98.759      109.353      -16.650       43.262       57.222       38.526     1871.630     3274.328     1484.290        1.431        0.332      147.348       30.937        0.044      346.450       24.706      859.671
09/13/2014  20:53:00      -85.861       -2.928      -21.932       22.648       39.465       18.398      512.936     1557.448      338.468        0.513        0.120       85.911        6.705        0.006      346.441       24.689      859.691
09/13/2014  20:54:00     -108.529      -29.438      -13.217       36.492       26.204       15.183     1331.671      686.625      230.510        0.753        0.112      112.451       13.682        0.015      346.387       24.599      859.690
09/13/2014  20:55:00      -79.278       49.432      -12.890       38.374       46.723       27.501     1472.587     2183.037      756.288        0.665        0.221       93.427       16.463        0.031      346.371       24.568      859.701
09/13/2014  20:56:00      -98.724        3.643      -12.988       26.766       33.707       25.558      716.418     1136.132      653.198        0.622        0.125       98.791       19.625        0.039      346.412       24.640      859.731
09/13/2014  20:57:00     -100.990      -24.641      -17.678       38.512       35.845       18.192     1483.155     1284.889      330.938        0.711        0.155      103.953       14.240        0.019      346.418       24.650      859.750
09/13/2014  20:58:00     -143.272      -72.791       -3.853       38.097       33.567       24.111     1451.382     1126.745      581.334        1.450        0.158      160.703       22.838        0.020      346.288       24.429      859.778
09/13/2014  20:59:00     -111.740      -46.294       -0.728       49.324       41.850       24.297     2432.900     1751.448      590.355        0.970        0.239      120.950       25.439        0.044      346.228       24.324      859.790
09/13/2014  21:00:00     -100.724        6.751       -9.016       50.082       65.563       30.097     2508.171     4298.506      905.800        0.899        0.386      100.950       29.948        0.088      346.291       24.433      859.786
09/13/2014  21:01:00     -118.662       53.081      -18.974       49.593       35.876       25.711     2459.436     1287.113      661.031        1.083        0.220      129.994       20.549        0.025      346.431       24.674      859.785
09/13/2014  21:02:00     -110.896      -15.996      -15.507       34.922       56.913       20.801     1219.572     3239.124      432.674        0.884        0.245      112.044       13.612        0.015      346.333       24.505      859.791
09/13/2014  21:03:00     -131.349      -83.929       -3.689       36.148       30.550       27.273     1306.703      933.319      743.808        1.365        0.149      155.874       19.023        0.015      346.280       24.414      859.795
09/13/2014  21:04:00     -146.373       -2.946      -18.524       59.873       46.898       28.324     3584.768     2199.406      802.240        1.418        0.329      146.403       23.771        0.026      346.307       24.458      859.818
09/13/2014  21:05:00      -82.338      103.258      -13.986       30.130       56.491       26.019      907.801     3191.241      676.963        1.121        0.239      132.068       15.404        0.014      346.461       24.726      859.817
09/13/2014  21:06:00      -62.117       72.532      -14.071       32.389       39.284       23.832     1049.071     1543.255      567.964        0.624        0.158       95.496       15.869        0.028      346.399       24.618      859.803
09/13/2014  21:07:00     -152.848        8.328      -28.690       70.544       53.770       34.785     4976.444     2891.171     1210.029        1.666        0.454      153.075       40.560        0.070      346.364       24.558      859.810
09/13/2014  21:08:00     -141.144       -3.935      -30.421       42.008       67.215       36.999     1764.702     4517.795     1368.916        1.426        0.383      141.198       26.749        0.036      346.275       24.405      859.835
09/13/2014  21:09:00      -55.909       27.223       -0.182       48.006       61.760       33.359     2304.614     3814.254     1112.793        0.555        0.362       62.184       32.507        0.273      346.171       24.228      859.822
09/13/2014  21:10:00     -105.161      121.448      -15.661       78.291       52.956       37.620     6129.545     2804.322     1415.293        1.820        0.517      160.650       35.132        0.048      346.314       24.470      859.811
09/13/2014  21:11:00     -111.430      104.592       -8.855       84.287       53.695       43.910     7104.283     2883.104     1928.120        1.767        0.596      152.827       44.423        0.084      346.318       24.477      859.837
09/13/2014  21:12:00     -135.413      123.482      -29.872       63.334       85.487       42.805     4011.184     7308.080     1832.302        2.381        0.658      183.261       41.789        0.052      346.457       24.713      859.844
09/13/2014  21:13:00      -81.726       39.731      -13.594       51.875       60.401       33.261     2691.016     3648.263     1106.322        0.794        0.372       90.871       32.874        0.131      346.380       24.587      859.849
09/13/2014  21:14:00      -89.997       27.125      -21.911       26.122       30.469       13.861      682.353      928.368      192.132        0.556        0.090       93.996       10.594        0.013      346.295       24.440      859.865
09/13/2014  21:15:00     -153.288      -32.598      -17.647       44.907       37.612       34.979     2016.646     1414.666     1223.507        1.476        0.233      156.716       15.926        0.010      346.197       24.270      859.877
09/13/2014  21:16:00      -72.283      -29.488       -0.959       59.921       51.724       34.867     3590.519     2675.379     1215.733        0.679        0.374       78.067       27.282        0.122      346.069       24.051      859.890
09/13/2014  21:17:00     -114.749       32.970      -21.614       64.228       61.822       40.242     4125.261     3821.950     1619.436        1.214        0.478      119.392       27.910        0.055      346.182       24.244      859.894
09/13/2014  21:18:00      -93.876       12.265       -9.514       52.087       67.330       36.567     2713.041     4533.308     1337.175        0.882        0.429       94.673       33.922        0.128      346.216       24.304      859.885
09/13/2014  21:19:00     -122.809        1.585       -8.699       71.951       59.910       43.006     5176.947     3589.192     1849.504        1.289        0.531      122.820       36.455        0.088      346.114       24.127      859.906
09/13/2014  21:20:00     -160.991       82.165      -30.370       76.360      139.806       45.874     5830.860    19545.668     2104.415        3.053        1.374      180.747       34.826        0.037      346.255       24.368      859.908
09/13/2014  21:21:00      -87.456      162.703      -14.383       82.596       64.312       43.002     6822.025     4136.052     1849.179        2.357        0.640      184.718       47.503        0.066      346.336       24.507      859.898
09/13/2014  21:22:00     -104.309      124.359       -7.200       62.898       99.094       43.752     3956.168     9819.685     1914.259        2.104        0.785      162.313       50.542        0.097      346.349       24.530      859.899
09/13/2014  21:23:00     -116.566      139.498      -17.688       43.108       98.484       38.895     1858.278     9699.129     1512.805        2.321        0.654      181.789       34.948        0.037      346.388       24.598      859.915
09/13/2014  21:24:00     -110.866      123.824      -19.570       51.999       45.897       31.694     2703.898     2106.566     1004.528        1.691        0.291      166.203       30.179        0.033      346.401       24.622      859.916
09/13/2014  21:25:00     -102.496      130.749      -18.966       67.942       57.653       39.272     4616.064     3323.885     1542.271        1.872        0.474      166.135       41.277        0.062      346.336       24.509      859.924
09/13/2014  21:26:00     -112.459       67.396      -17.725       64.210       68.837       37.572     4122.934     4738.526     1411.684        1.389        0.514      131.108       25.997        0.039      346.369       24.567      859.944
09/13/2014  21:27:00     -112.133       55.204       -6.988       84.402       85.181       50.226     7123.665     7255.788     2522.639        1.628        0.845      124.985       41.983        0.113      346.351       24.534      859.950
09/13/2014  21:28:00      -75.411       64.688       -5.594       58.045       44.934       39.936     3369.262     2019.024     1594.919        0.844        0.349       99.355       35.437        0.127      346.280       24.413      859.942
09/13/2014  21:29:00      -86.054       76.776      -19.985       55.353       46.746       34.820     3063.900     2185.191     1212.467        1.008        0.323      115.325       32.205        0.078      346.356       24.545      859.932
09/13/2014  21:30:00     -128.414       96.404      -24.714       62.638       53.393       40.018     3923.550     2850.803     1601.476        1.738        0.419      160.574       37.829        0.056      346.370       24.568      859.944
09/13/2014  21:31:00     -107.334      153.138      -13.176       63.997       65.660       34.271     4095.658     4311.245     1174.488        2.236        0.479      187.007       29.230        0.024      346.270       24.395      859.940
09/13/2014  21:32:00     -117.565       -4.949      -15.997       45.261       49.180       26.388     2048.591     2418.648      696.318        0.963        0.258      117.669       24.212        0.042      346.270       24.397      859.951
09/13/2014  21:33:00      -88.016        2.210      -18.733       29.954       34.928       24.971      897.217     1219.979      623.562        0.542        0.137       88.044       15.981        0.033      346.217       24.304      859.963
09/13/2014  21:34:00      -89.901       85.665      -25.247       45.828       59.055       24.518     2100.232     3487.544      601.127        1.112        0.309      124.180       15.746        0.016      346.165       24.216      859.981
09/13/2014  21:35:00      -78.395        7.502      -16.897       42.319       40.295       23.486     1790.887     1623.693      551.582        0.523        0.198       78.753       15.235        0.037      346.159       24.206      859.973
09/13/2014  21:36:00      -84.767       93.310       -0.027       74.291       64.205       49.754     5519.100     4122.221     2475.493        1.400        0.606      126.065       49.279        0.153      346.161       24.208      859.963
09/13/2014  21:37:00     -125.015       70.320       -5.715       81.069       74.239       46.694     6572.255     5511.355     2180.327        1.743        0.713      143.435       48.742        0.115      346.338       24.514      859.951
09/13/2014  21:38:00     -121.595      186.699      -30.559       55.008       65.845       46.280     3025.929     4335.585     2141.885        3.004        0.475      222.804       33.468        0.023      346.407       24.628      859.957
09/13/2014  21:39:00     -101.782      110.413      -21.319       50.856       98.001       29.295     2586.323     9604.142      858.186        1.802        0.652      150.169       25.355        0.029      346.392       24.607      859.946
09/13/2014  21:40:00     -118.382      -27.584       -9.697       54.711       36.435       22.089     2993.268     1327.527      487.919        0.984        0.240      121.553       24.428        0.040      346.230       24.328      859.945
09/13/2014  21:41:00     -192.764      -64.181      -17.606       62.654       43.900       31.671     3925.562     1927.180     1003.068        2.422        0.343      203.168       24.990        0.015      346.102       24.105      859.959
09/13/2014  21:42:00     -234.772       -7.486      -19.019       79.632       59.080       35.686     6341.179     3490.491     1273.484        3.332        0.555      234.891       36.143        0.024      346.047       24.009      860.007
09/13/2014  21:43:00     -141.502       28.620       -8.481       65.992       35.385       25.268     4354.882     1252.074      638.479        1.358        0.312      144.367       29.623        0.042      345.933       23.818      860.012
09/13/2014  21:44:00     -180.522      -35.001      -12.092       91.454       61.792       36.258     8363.885     3818.311     1314.678        2.373        0.675      183.884       33.511        0.033      345.893       23.748      860.010
09/13/2014  21:45:00     -203.726       -0.065      -17.961       53.560       34.760       33.050     2868.695     1208.247     1092.313        2.350        0.258      203.726       27.977        0.019      345.944       23.834      860.018
09/13/2014  21:46:00     -199.648      -37.759      -22.447       45.229       50.019       27.744     2045.619     2501.893      769.703        2.355        0.266      203.187       18.729        0.008      345.988       23.910      860.037
09/13/2014  21:47:00     -190.027       31.310      -12.784       49.412       51.550       33.316     2441.516     2657.371     1109.942        2.173        0.310      192.589       23.536        0.015      346.018       23.962      860.046
09/13/2014  21:48:00     -106.985      -67.093       -5.246       45.007       51.043       26.282     2025.630     2605.355      690.761        1.065        0.266      126.282       22.058        0.031      345.939       23.828      860.041
09/13/2014  21:49:00      -84.605      -11.811       -4.949       46.482       42.411       30.125     2160.586     1798.697      907.543        0.609        0.243       85.426       30.203        0.125      346.016       23.959      860.032
09/13/2014  21:50:00     -146.075       26.865      -27.862       84.556       42.061       28.506     7149.706     1769.162      812.564        1.628        0.487      148.525       31.895        0.046      345.979       23.895      860.051
09/13/2014  21:51:00     -212.660      -33.114      -12.890       99.556       59.715       41.691     9911.303     3565.871     1738.143        3.085        0.761      215.222       40.714        0.036      345.921       23.794      860.062
09/13/2014  21:52:00     -161.042       15.756       -8.049       56.018       76.747       42.568     3137.987     5890.058     1812.057        1.854        0.542      161.811       24.654        0.023      345.914       23.785      860.056
09/13/2014  21:53:00     -102.133        6.097       -9.181       57.439       65.954       33.277     3299.242     4349.990     1107.380        0.965        0.438      102.314       33.550        0.108      345.881       23.727      860.055
09/13/2014  21:54:00      -57.714       31.957        0.252       54.225       53.130       41.674     2940.342     2822.751     1736.727        0.592        0.375       65.971       34.490        0.273      345.693       23.404      860.051
09/13/2014  21:55:00      -81.074      -16.549       -4.218       34.470       38.714       26.934     1188.191     1498.760      725.425        0.514        0.171       82.746       11.424        0.019      345.731       23.472      860.068
09/13/2014  21:56:00      -44.865       -2.897        1.780       27.418       28.503       14.635      751.739      812.409      214.195        0.190        0.089       44.958        3.748        0.007      345.570       23.195      860.072
09/13/2014  21:57:00      -46.174       -8.369       13.089       40.061       54.523       36.927     1604.918     2972.774     1363.639        0.416        0.297       46.926       29.187        0.387      345.638       23.310      860.074
09/13/2014  21:58:00     -108.336       11.045      -24.576       55.023       47.234       28.103     3027.585     2231.046      789.763        0.925        0.302      108.897       22.527        0.043      345.717       23.447      860.071
09/13/2014  21:59:00      -56.282       55.124       -1.371       34.789       59.851       33.908     1210.291     3582.158     1149.727        0.607        0.297       78.780       25.465        0.104      345.713       23.441      860.084
09/13/2014  22:00:00      -75.711       90.920       -3.721       43.051       59.544       32.229     1853.375     3545.513     1038.699        1.022        0.322      118.316       25.544        0.047      345.724       23.459      860.095
09/13/2014  22:01:00     -141.998       -8.032      -14.978       59.576       55.581       36.369     3549.345     3089.279     1322.677        1.421        0.398      142.225       24.114        0.029      345.768       23.534      860.099
09/13/2014  22:02:00     -132.917       84.834      -13.843       70.896       96.707       43.175     5026.209     9352.197     1864.042        2.065        0.812      157.683       33.739        0.046      345.849       23.672      860.101
09/13/2014  22:03:00     -140.191      133.887      -31.880       56.590       55.241       31.369     3202.472     3051.515      983.985        2.292        0.362      193.854       23.740        0.015      346.004       23.937      860.095
09/13/2014  22:04:00     -122.529      180.552      -23.499       42.000       62.034       34.394     1764.034     3848.229     1182.947        2.748        0.340      218.203       20.990        0.009      345.980       23.897      860.111
09/13/2014  22:05:00     -100.422       57.367      -11.880       33.957       57.830       25.717     1153.068     3344.346      661.340        0.934        0.258      115.653       19.716        0.029      345.813       23.612      860.127
09/13/2014  22:06:00      -70.522       51.486       -4.670       66.375       62.074       36.008     4405.662     3853.136     1296.597        0.860        0.478       87.317       32.223        0.136      345.772       23.540      860.133
09/13/2014  22:07:00     -127.943        0.082      -18.111       39.420       41.561       27.021     1553.933     1727.348      730.129        1.035        0.201      127.943       13.940        0.012      345.730       23.470      860.150
09/13/2014  22:08:00     -129.099      -27.559      -12.852       52.336       40.176       26.015     2739.043     1614.136      676.760        1.131        0.251      132.008       23.404        0.031      345.710       23.435      860.166
09/13/2014  22:09:00     -107.981      -21.519       -6.167       49.050       48.770       32.621     2405.939     2378.552     1064.151        0.900        0.292      110.104       22.895        0.043      345.701       23.420      860.175
09/13/2014  22:10:00     -141.655        4.017      -16.419       39.981       80.554       29.182     1598.441     6488.926      851.588        1.464        0.447      141.711       18.861        0.018      345.642       23.317      860.182
09/13/2014  22:11:00     -176.210       43.872      -31.773       44.120       60.767       33.864     1946.617     3692.649     1146.783        2.038        0.339      181.589       33.623        0.034      345.644       23.319      860.209
09/13/2014  22:12:00      -89.593       49.242      -15.774       40.352       52.727       29.554     1628.252     2780.141      873.466        0.799        0.264      102.233       25.389        0.062      345.598       23.242      860.233
09/13/2014  22:13:00      -81.827       27.024       -6.710       45.270       35.680       29.083     2049.345     1273.070      845.808        0.582        0.208       86.174       29.588        0.118      345.633       23.304      860.235
09/13/2014  22:14:00      -54.628      -14.465       -5.849       37.166       42.033       23.360     1381.331     1766.733      545.671        0.346        0.185       56.511       18.927        0.112      345.605       23.254      860.230
09/13/2014  22:15:00      -34.040       26.069       -2.893       32.643       32.197       20.005     1065.554     1036.657      400.201        0.217        0.125       42.875       17.151        0.160      345.531       23.128      860.229
09/13/2014  22:16:00      -97.981      114.818      -22.951       33.562       42.395       26.113     1126.439     1797.302      681.897        1.346        0.180      150.942       19.414        0.017      345.739       23.485      860.249
09/13/2014  22:17:00      -87.458      110.678       -9.516       40.313       51.106       26.522     1625.169     2611.861      703.407        1.246        0.247      141.062       21.830        0.024      345.604       23.253      860.245
09/13/2014  22:18:00      -71.563       90.491      -15.550       32.143       85.015       22.727     1033.183     7227.472      516.528        1.116        0.439      115.368       25.984        0.051      345.659       23.348      860.243
09/13/2014  22:19:00      -85.944       16.294       -6.087       58.617       64.505       27.435     3435.897     4160.863      752.660        0.802        0.417       87.475       32.135        0.135      345.570       23.194      860.236
09/13/2014  22:20:00      -87.137       40.641       -9.903       55.976       59.203       27.651     3133.265     3504.977      764.555        0.837        0.370       96.148       22.590        0.055      345.574       23.202      860.250
09/13/2014  22:21:00      -53.596       55.499        2.835       48.228       60.710       30.025     2325.952     3685.751      901.515        0.644        0.346       77.153       26.761        0.120      345.498       23.071      860.239
09/13/2014  22:22:00      -95.698       10.244        0.926       49.679       85.858       40.090     2468.024     7371.594     1607.247        1.035        0.572       96.245       30.120        0.098      345.517       23.104      860.237
09/13/2014  22:23:00      -60.731       43.985       -1.673       41.755       47.668       25.577     1743.460     2272.191      654.161        0.515        0.233       74.987       19.875        0.070      345.527       23.121      860.243
09/13/2014  22:24:00      -62.882        2.175      -15.587       31.251       46.257       22.092      976.611     2139.671      488.064        0.390        0.180       62.919       15.833        0.063      345.426       22.948      860.257
09/13/2014  22:25:00      -77.527       49.812      -14.281       44.830       33.636       17.277     2009.726     1131.357      298.505        0.607        0.172       92.151       10.025        0.012      345.471       23.024      860.258
09/13/2014  22:26:00      -87.817       32.779       -8.999       31.335       37.858       27.154      981.883     1433.238      737.340        0.601        0.158       93.735       16.185        0.030      345.557       23.172      860.262
09/13/2014  22:27:00     -112.217       41.189       -3.828       47.419       58.429       39.377     2248.580     3413.977     1550.517        1.076        0.361      119.537       34.475        0.083      345.547       23.155      860.273
09/13/2014  22:28:00     -100.693       94.284      -18.319       39.127       50.464       28.233     1530.900     2546.657      797.120        1.212        0.244      137.944       23.758        0.030      345.575       23.204      860.285
09/13/2014  22:29:00     -110.173      118.508      -22.596       42.420       65.307       30.018     1799.451     4264.987      901.110        1.683        0.348      161.809       20.287        0.016      345.625       23.288      860.282
09/13/2014  22:30:00     -105.378      145.784      -23.445       40.768       50.693       27.040     1662.053     2569.760      731.186        1.893        0.248      179.882       25.997        0.021      345.670       23.365      860.276
09/13/2014  22:31:00     -102.307       89.494      -17.993       64.222       44.946       29.066     4124.418     2020.142      844.831        1.289        0.349      135.926       27.678        0.041      345.582       23.214      860.291
09/13/2014  22:32:00     -121.099       50.568      -19.589       69.312       64.962       39.354     4804.129     4220.009     1548.760        1.409        0.529      131.233       37.266        0.081      345.554       23.167      860.297
09/13/2014  22:33:00      -65.953       11.941       -6.170       34.627       38.316       25.754     1199.047     1468.143      663.244        0.393        0.167       67.025       21.057        0.099      345.466       23.016      860.298
09/13/2014  22:34:00      -78.288        6.258      -12.063       42.858       48.251       20.388     1836.828     2328.190      415.661        0.545        0.229       78.537       20.536        0.068      345.409       22.919      860.296
09/13/2014  22:35:00      -70.971        7.197       -7.731       31.995       30.943       22.901     1023.654      957.472      524.472        0.383        0.125       71.335       19.846        0.077      345.388       22.883      860.305
09/13/2014  22:36:00     -117.350       14.729       -9.759       40.142       36.765       29.290     1611.415     1351.674      857.883        0.895        0.191      118.270       15.762        0.018      345.445       22.980      860.308
09/13/2014  22:37:00     -111.389      -25.467      -17.110       39.054       41.164       31.242     1525.195     1694.443      976.080        0.877        0.210      114.263       18.616        0.027      345.336       22.793      860.315
09/13/2014  22:38:00      -68.150       -2.564      -22.719       37.864       48.365       27.007     1433.713     2339.128      729.361        0.483        0.225       68.199       25.775        0.143      345.386       22.880      860.320
09/13/2014  22:39:00      -59.089      -19.928        2.207       41.956       42.706       24.625     1760.298     1823.823      606.401        0.404        0.210       62.359       23.394        0.141      345.285       22.705      860.332
09/13/2014  22:40:00     -100.892      -42.966      -13.461       32.745       28.807       25.718     1072.239      829.834      661.408        0.738        0.128      109.660       20.577        0.035      345.300       22.731      860.343
09/13/2014  22:41:00     -121.317      -21.754      -13.498       44.429       37.733       20.150     1973.908     1423.811      406.031        0.959        0.190      123.252       14.619        0.014      345.285       22.706      860.352
09/13/2014  22:42:00      -75.611      -19.548        4.008       46.410       39.057       27.169     2153.844     1525.427      738.180        0.527        0.221       78.097       24.174        0.096      345.295       22.723      860.355
09/13/2014  22:43:00      -74.615       64.914      -11.601       37.963       54.861       26.926     1441.215     3009.741      725.018        0.755        0.259       98.901       18.244        0.034      345.448       22.986      860.353
09/13/2014  22:44:00      -88.518       51.419      -10.103       38.901       67.270       34.530     1513.295     4525.249     1192.352        0.890        0.362      102.369       26.086        0.065      345.489       23.055      860.357
09/13/2014  22:45:00      -60.140        4.956       -8.450       39.662       41.317       27.450     1573.096     1707.116      753.509        0.387        0.202       60.344       20.696        0.118      345.435       22.964      860.349
09/13/2014  22:46:00      -99.358      -32.755       -6.419       47.788       51.315       25.973     2283.669     2633.224      674.611        0.829        0.280      104.618       21.208        0.041      345.308       22.746      860.337
09/13/2014  22:47:00     -132.439       99.333      -32.958       63.692       42.787       26.941     4056.694     1830.724      725.812        1.755        0.331      165.551       28.256        0.029      345.460       23.005      860.333
09/13/2014  22:48:00      -94.197       53.457      -18.957       39.868       38.677       21.312     1589.493     1495.885      454.205        0.781        0.177      108.309       13.145        0.015      345.393       22.891      860.322
09/13/2014  22:49:00      -59.194       -4.403        4.419       54.466       38.621       24.674     2966.534     1491.547      608.795        0.430        0.253       59.358       26.659        0.202      345.410       22.921      860.321
09/13/2014  22:50:00     -129.079      -10.022      -16.471       39.754       44.384       28.809     1580.349     1969.925      829.976        1.071        0.219      129.467       25.447        0.039      345.267       22.676      860.304
09/13/2014  22:51:00      -83.436      -15.592       -4.074       40.956       49.526       40.343     1677.392     2452.817     1627.594        0.649        0.288       84.880       30.617        0.130      345.290       22.714      860.321
09/13/2014  22:52:00     -119.178       47.836      -17.650       76.333       78.689       39.372     5826.753     6191.972     1550.187        1.518        0.678      128.420       48.214        0.141      345.331       22.783      860.331
09/13/2014  22:53:00     -114.908       55.561      -11.801       56.100       75.152       41.955     3147.164     5647.785     1760.240        1.349        0.528      127.636       35.110        0.076      345.300       22.731      860.338
09/13/2014  22:54:00     -134.415       11.587      -22.709       63.189       48.887       30.542     3992.839     2389.950      932.790        1.302        0.366      134.914       25.314        0.035      345.350       22.818      860.339
09/13/2014  22:55:00     -117.962       67.768      -14.270       41.345       66.164       31.710     1709.448     4377.636     1005.529        1.290        0.355      136.042       25.272        0.035      345.267       22.674      860.373
09/13/2014  22:56:00     -100.796       17.523       -4.977       46.049       42.619       33.317     2120.556     1816.359     1110.022        0.777        0.252      102.308       32.279        0.100      345.234       22.618      860.374
09/13/2014  22:57:00      -62.797       30.136       -7.254       46.264       43.633       29.031     2140.317     1903.868      842.814        0.489        0.244       69.654       21.954        0.099      345.386       22.879      860.381
09/13/2014  22:58:00     -106.424       17.876      -20.115       46.202       50.832       30.203     2134.635     2583.843      912.225        0.884        0.282      107.915       27.052        0.063      345.397       22.896      860.381
09/13/2014  22:59:00      -95.877       52.228      -10.671       56.961       61.090       28.589     3244.543     3731.943      817.345        0.991        0.390      109.179       27.316        0.063      345.385       22.877      860.397
09/13/2014  23:00:00      -75.358      -36.905       -2.903       41.674       57.412       39.534     1736.757     3296.163     1562.927        0.682        0.330       83.909       25.972        0.096      345.289       22.713      860.398
09/13/2014  23:01:00     -102.683       -5.957        2.248       61.190       57.111       29.444     3744.219     3261.715      866.935        0.923        0.394      102.855       21.531        0.044      345.221       22.596      860.394
09/13/2014  23:02:00      -99.528        6.398      -13.733       39.434       61.543       24.639     1555.054     3787.542      607.089        0.804        0.297       99.733       19.504        0.038      345.189       22.542      860.396
09/13/2014  23:03:00      -59.721        4.725      -17.877       42.962       39.141       24.091     1845.697     1531.983      580.392        0.393        0.198       59.908       21.181        0.125      345.122       22.427      860.413
09/13/2014  23:04:00      -64.707       -8.337       -5.164       32.927       30.552       21.142     1084.205      933.407      446.975        0.337        0.123       65.241       19.954        0.094      344.999       22.216      860.418
09/13/2014  23:05:00     -129.845      -29.826      -12.205       38.522       29.047       20.387     1483.925      843.755      415.626        1.032        0.137      133.226        6.752        0.003      344.980       22.185      860.420
09/13/2014  23:06:00     -120.291      -11.047      -11.558       32.020       35.376       24.004     1025.283     1251.495      576.201        0.879        0.143      120.797       11.979        0.010      345.071       22.339      860.418
09/13/2014  23:07:00     -155.363      -12.629      -15.869       54.863       37.865       25.425     3009.988     1433.774      646.407        1.482        0.255      155.876       16.731        0.012      345.036       22.281      860.436
09/13/2014  23:08:00     -163.775      -25.007      -20.068       36.829       29.399       23.403     1356.396      864.277      547.681        1.531        0.138      165.673        8.178        0.002      344.950       22.132      860.440
09/13/2014  23:09:00     -151.070      -28.545      -18.193       28.805       29.370       19.153      829.707      862.617      366.848        1.301        0.103      153.743        9.801        0.004      345.013       22.241      860.434
09/13/2014  23:10:00     -101.872      -29.943       -5.628       29.297       39.382       21.313      858.330     1550.978      454.245        0.708        0.143      106.181       14.258        0.018      344.995       22.211      860.434
09/13/2014  23:11:00      -84.150      -16.364      -18.089       27.177       30.636       19.009      738.606      938.543      361.344        0.486        0.102       85.726        7.650        0.008      344.997       22.215      860.433
09/13/2014  23:12:00      -77.688       19.030      -14.477       38.985       36.202       16.651     1519.799     1310.606      277.258        0.486        0.155       79.985       22.418        0.079      345.076       22.347      860.428
09/13/2014  23:13:00      -82.492      -29.432       -4.515       38.116       53.890       24.114     1452.832     2904.160      581.485        0.631        0.247       87.585       12.490        0.020      345.070       22.339      860.418
09/13/2014  23:14:00      -93.675        4.125      -13.737       50.427       60.742       27.499     2542.842     3689.650      756.168        0.798        0.349       93.766       17.121        0.033      345.093       22.378      860.412
09/13/2014  23:15:00      -77.229       66.611       -9.436       51.769       69.772       29.961     2680.067     4868.072      897.657        0.947        0.422      101.987       37.924        0.138      345.149       22.473      860.419
09/13/2014  23:16:00      -93.395       12.631       -3.888       52.221       43.369       31.991     2727.083     1880.853     1023.419        0.726        0.282       94.245       30.371        0.104      345.210       22.577      860.418
09/13/2014  23:17:00      -84.685       11.168      -16.307       48.527       32.796       25.010     2354.900     1075.592      625.480        0.581        0.203       85.418       23.057        0.073      345.148       22.474      860.421
09/13/2014  23:18:00      -82.676       65.250      -10.437       45.894       71.221       30.996     2106.261     5072.501      960.738        0.967        0.407      105.323       22.629        0.046      345.372       22.854      860.421
09/13/2014  23:19:00     -142.729       44.729      -21.789       68.940       46.593       27.578     4752.729     2170.919      760.542        1.526        0.384      149.574       32.376        0.047      345.384       22.875      860.430
09/13/2014  23:20:00     -133.299       97.750      -25.057       51.360       59.712       35.249     2637.802     3565.475     1242.473        1.770        0.372      165.299       27.410        0.027      345.526       23.120      860.426
09/13/2014  23:21:00     -103.543      128.341      -21.428       45.400       51.763       27.171     2061.192     2679.363      738.287        1.656        0.274      164.902       22.914        0.019      345.508       23.088      860.428
09/13/2014  23:22:00      -97.090       77.969      -24.934       30.475       56.103       26.419      928.700     3147.560      697.958        1.045        0.239      124.522       28.447        0.052      345.497       23.070      860.437
09/13/2014  23:23:00     -119.295      117.308      -23.767       50.422       60.785       28.660     2542.421     3694.772      821.412        1.781        0.353      167.309       18.174        0.012      345.563       23.181      860.455
09/13/2014  23:24:00     -100.969       78.995      -19.743       45.694       74.757       26.932     2087.956     5588.539      725.359        1.261        0.420      128.199       24.592        0.037      345.461       23.008      860.463
09/13/2014  23:25:00      -87.132       39.432       -9.135       37.683       29.286       19.491     1420.038      857.696      379.885        0.594        0.133       95.639       14.598        0.023      345.538       23.140      860.472
09/13/2014  23:26:00      -77.269       78.884      -15.986       38.346       29.634       20.052     1470.453      878.184      402.096        0.760        0.138      110.423       18.949        0.029      345.512       23.094      860.471
09/13/2014  23:27:00      -96.137       95.535      -20.767       26.553       37.718       17.402      705.053     1422.650      302.834        1.062        0.122      135.533       17.150        0.016      345.518       23.105      860.467
09/13/2014  23:28:00      -76.166       86.556      -19.874       25.722       28.980       19.178      661.634      839.845      367.805        0.778        0.093      115.296        9.898        0.007      345.533       23.130      860.462
09/13/2014  23:29:00     -117.217      129.775      -31.992       37.062       42.652       26.270     1373.611     1819.159      690.119        1.774        0.194      174.876       24.498        0.020      345.496       23.067      860.468
09/13/2014  23:30:00      -84.441      114.734      -14.773       32.048       42.588       26.030     1027.089     1813.717      677.585        1.201        0.176      142.457       22.608        0.025      345.485       23.048      860.463
09/13/2014  23:31:00     -117.563       96.452      -27.151       62.421       44.011       27.571     3896.366     1936.997      760.144        1.523        0.330      152.066       29.892        0.039      345.530       23.125      860.453
09/13/2014  23:32:00      -79.142       99.926      -25.899       39.058       40.668       18.426     1525.539     1653.920      339.516        1.022        0.176      127.470       16.033        0.016      345.480       23.041      860.447
09/13/2014  23:33:00     -117.791      131.325      -33.496       59.766       71.722       32.677     3571.964     5144.034     1067.774        2.101        0.489      176.411       44.581        0.064      345.510       23.090      860.452
09/13/2014  23:34:00      -76.507      131.808      -21.967       46.196       50.242       26.967     2134.095     2524.294      727.201        1.455        0.269      152.403       24.996        0.027      345.455       22.998      860.458
09/13/2014  23:35:00      -66.057       72.767       -9.899       35.879       39.960       28.285     1287.304     1596.773      800.051        0.672        0.184       98.278       19.645        0.040      345.402       22.906      860.450
09/13/2014  23:36:00      -77.248       81.455      -16.831       36.224       45.737       23.600     1312.154     2091.904      556.970        0.842        0.198      112.259       17.659        0.025      345.447       22.984      860.449
09/13/2014  23:37:00      -72.805       -1.498      -10.708       20.964       30.696       16.958      439.494      942.251      287.578        0.354        0.083       72.821       10.985        0.023      345.292       22.718      860.460
09/13/2014  23:38:00      -61.207       44.783       -7.995       31.762       28.243       16.780     1008.843      797.666      281.569        0.395        0.104       75.841       14.292        0.036      345.359       22.832      860.471
09/13/2014  23:39:00      -57.673       75.026      -17.371       50.981       38.567       20.862     2599.076     1487.384      435.203        0.689        0.226       94.631       21.905        0.054      345.380       22.869      860.486
09/13/2014  23:40:00      -52.527        2.986       -6.356       42.082       44.981       19.943     1770.880     2023.256      397.711        0.350        0.210       52.611       14.397        0.075      345.253       22.651      860.502
09/13/2014  23:41:00      -54.048       31.795       -6.118       49.549       22.899       16.381     2455.113      524.381      268.349        0.361        0.162       62.706        8.047        0.016      345.309       22.747      860.507
09/13/2014  23:42:00      -68.518      104.384      -15.874       38.173       50.136       25.953     1457.146     2513.652      673.558        1.024        0.232      124.863       21.572        0.030      345.455       22.998      860.519
09/13/2014  23:43:00      -73.875      123.615      -12.835       66.117       43.790       32.435     4371.464     1917.585     1052.047        1.412        0.367      144.008       34.257        0.057      345.592       23.233      860.517
09/13/2014  23:44:00      -99.033       81.599      -17.782       32.076       46.945       21.690     1028.876     2203.791      470.449        1.024        0.185      128.320       21.722        0.029      345.483       23.044      860.520
09/13/2014  23:45:00      -90.048       65.190      -14.550       24.309       40.374       26.442      590.942     1630.050      699.174        0.774        0.146      111.169       25.275        0.052      345.310       22.749      860.534
09/13/2014  23:46:00      -90.145       22.081      -18.556       24.523       39.065       14.967      601.374     1526.101      224.016        0.565        0.118       92.810       12.127        0.017      345.207       22.572      860.550
09/13/2014  23:47:00      -33.999      -22.103       -4.022       40.821       47.057       21.895     1666.327     2214.372      479.411        0.301        0.218       40.552       16.007        0.156      345.132       22.445      860.573
09/13/2014  23:48:00      -10.689        1.208        0.122       28.304       27.142       12.302      801.091      736.682      151.335        0.090        0.084       10.757       17.564        2.666      344.990       22.201      860.569
09/13/2014  23:49:00      -51.139      -38.627        4.313       33.674       25.988       20.055     1133.951      675.380      402.209        0.317        0.111       64.088       17.859        0.078      345.114       22.414      860.573
09/13/2014  23:50:00      -67.051      -54.882       -3.103       31.590       23.929       18.572      997.942      572.577      344.910        0.472        0.096       86.648       14.391        0.028      345.105       22.398      860.574
09/13/2014  23:51:00      -72.773      -53.642        0.117       37.133       27.927       16.693     1378.883      779.918      278.648        0.531        0.122       90.407        8.077        0.008      345.122       22.429      860.567
09/13/2014  23:52:00      -60.055      -38.932        4.987       25.185       27.506       15.369      634.285      756.606      236.215        0.339        0.081       71.570       13.528        0.036      345.046       22.297      860.559
09/13/2014  23:53:00      -63.308      -22.532       -5.302       24.876       16.928       11.113      618.821      286.566      123.509        0.279        0.051       67.199       11.869        0.031      344.989       22.199      860.563
09/13/2014  23:54:00      -92.805      -57.260       -4.460       26.322       17.875       13.432      692.870      319.504      180.406        0.655        0.060      109.047       12.867        0.014      344.963       22.154      860.565
09/13/2014  23:55:00      -78.420      -63.432       -2.155       32.104       21.637       19.906     1030.668      468.173      396.246        0.604        0.095      100.863       13.535        0.018      344.879       22.011      860.575
09/13/2014  23:56:00      -62.700      -55.662        1.898       28.641       24.688       22.563      820.334      609.520      509.100        0.449        0.097       83.843       20.611        0.060      344.852       21.964      860.578
09/13/2014  23:57:00      -69.900      -24.978       -0.588       32.703       20.357       14.049     1069.477      414.406      197.376        0.360        0.084       74.229       15.956        0.046      344.853       21.967      860.580
09/13/2014  23:58:00      -63.925      -45.774       -4.124       36.772       24.311       15.709     1352.211      591.032      246.764        0.419        0.110       78.623       16.772        0.046      344.847       21.956      860.583
09/13/2014  23:59:00      -98.730      -34.790      -15.268       23.191       22.790       18.514      537.819      519.374      342.763        0.630        0.070      104.680       14.571        0.019      344.848       21.960      860.586
